﻿<?xml version="1.0" encoding="utf-8"?><gpx creator="Garmin Desktop App" version="1.1" xsi:schemaLocation="http://www.topografix.com/GPX/1/1 http://www.topografix.com/GPX/1/1/gpx.xsd http://www.garmin.com/xmlschemas/WaypointExtension/v1 http://www8.garmin.com/xmlschemas/WaypointExtensionv1.xsd http://www.garmin.com/xmlschemas/TrackPointExtension/v1 http://www.garmin.com/xmlschemas/TrackPointExtensionv1.xsd http://www.garmin.com/xmlschemas/GpxExtensions/v3 http://www8.garmin.com/xmlschemas/GpxExtensionsv3.xsd http://www.garmin.com/xmlschemas/ActivityExtension/v1 http://www8.garmin.com/xmlschemas/ActivityExtensionv1.xsd http://www.garmin.com/xmlschemas/AdventuresExtensions/v1 http://www8.garmin.com/xmlschemas/AdventuresExtensionv1.xsd http://www.garmin.com/xmlschemas/PressureExtension/v1 http://www.garmin.com/xmlschemas/PressureExtensionv1.xsd http://www.garmin.com/xmlschemas/TripExtensions/v1 http://www.garmin.com/xmlschemas/TripExtensionsv1.xsd http://www.garmin.com/xmlschemas/TripMetaDataExtensions/v1 http://www.garmin.com/xmlschemas/TripMetaDataExtensionsv1.xsd http://www.garmin.com/xmlschemas/ViaPointTransportationModeExtensions/v1 http://www.garmin.com/xmlschemas/ViaPointTransportationModeExtensionsv1.xsd http://www.garmin.com/xmlschemas/CreationTimeExtension/v1 http://www.garmin.com/xmlschemas/CreationTimeExtensionsv1.xsd http://www.garmin.com/xmlschemas/AccelerationExtension/v1 http://www.garmin.com/xmlschemas/AccelerationExtensionv1.xsd http://www.garmin.com/xmlschemas/PowerExtension/v1 http://www.garmin.com/xmlschemas/PowerExtensionv1.xsd http://www.garmin.com/xmlschemas/VideoExtension/v1 http://www.garmin.com/xmlschemas/VideoExtensionv1.xsd" xmlns="http://www.topografix.com/GPX/1/1" xmlns:xsi="http://www.w3.org/2001/XMLSchema-instance" xmlns:wptx1="http://www.garmin.com/xmlschemas/WaypointExtension/v1" xmlns:gpxtrx="http://www.garmin.com/xmlschemas/GpxExtensions/v3" xmlns:gpxtpx="http://www.garmin.com/xmlschemas/TrackPointExtension/v1" xmlns:gpxx="http://www.garmin.com/xmlschemas/GpxExtensions/v3" xmlns:trp="http://www.garmin.com/xmlschemas/TripExtensions/v1" xmlns:adv="http://www.garmin.com/xmlschemas/AdventuresExtensions/v1" xmlns:prs="http://www.garmin.com/xmlschemas/PressureExtension/v1" xmlns:tmd="http://www.garmin.com/xmlschemas/TripMetaDataExtensions/v1" xmlns:vptm="http://www.garmin.com/xmlschemas/ViaPointTransportationModeExtensions/v1" xmlns:ctx="http://www.garmin.com/xmlschemas/CreationTimeExtension/v1" xmlns:gpxacc="http://www.garmin.com/xmlschemas/AccelerationExtension/v1" xmlns:gpxpx="http://www.garmin.com/xmlschemas/PowerExtension/v1" xmlns:vidx1="http://www.garmin.com/xmlschemas/VideoExtension/v1">

  <metadata>
    <link href="http://www.garmin.com">
      <text>Garmin International</text>
    </link>
    <time>2026-05-10T09:05:24Z</time>
    <bounds maxlat="46.079641012474895" maxlon="12.29781199246645" minlat="45.98698703572154" minlon="12.219264004379511" />
  </metadata>

  <trk>
    <name>GR 40-2026 Official</name>
    <extensions>
      <gpxx:TrackExtension>
        <gpxx:DisplayColor>DarkGray</gpxx:DisplayColor>
      </gpxx:TrackExtension>
    </extensions>
    <trkseg>
      <trkpt lat="45.996812973171473" lon="12.250933013856411">
        <ele>231.45307500000001</ele>
        <time>2026-02-23T17:05:37Z</time>
      </trkpt>
      <trkpt lat="45.996802998706698" lon="12.25073997862637">
        <ele>231.45307500000001</ele>
        <time>2026-02-23T17:05:51Z</time>
      </trkpt>
      <trkpt lat="45.99678598344326" lon="12.250561024993658">
        <ele>231.45307500000001</ele>
        <time>2026-02-23T17:06:03Z</time>
      </trkpt>
      <trkpt lat="45.996764022856951" lon="12.250405037775636">
        <ele>231.45307500000001</ele>
        <time>2026-02-23T17:06:14Z</time>
      </trkpt>
      <trkpt lat="45.996718006208539" lon="12.250314010307193">
        <ele>231.45307500000001</ele>
        <time>2026-02-23T17:06:22Z</time>
      </trkpt>
      <trkpt lat="45.99663401953876" lon="12.250264976173639">
        <ele>231.45307500000001</ele>
        <time>2026-02-23T17:06:31Z</time>
      </trkpt>
      <trkpt lat="45.996556989848614" lon="12.25028702057898">
        <ele>231.45307500000001</ele>
        <time>2026-02-23T17:06:39Z</time>
      </trkpt>
      <trkpt lat="45.996479038149118" lon="12.250402020290494">
        <ele>231.45307500000001</ele>
        <time>2026-02-23T17:06:50Z</time>
      </trkpt>
      <trkpt lat="45.996482977643609" lon="12.250554990023375">
        <ele>231.45307500000001</ele>
        <time>2026-02-23T17:07:01Z</time>
      </trkpt>
      <trkpt lat="45.996499992907047" lon="12.2507160063833">
        <ele>231.51573099999999</ele>
        <time>2026-02-23T17:07:12Z</time>
      </trkpt>
      <trkpt lat="45.996513990685344" lon="12.250897977501154">
        <ele>231.67613700000001</ele>
        <time>2026-02-23T17:07:25Z</time>
      </trkpt>
      <trkpt lat="45.996528994292021" lon="12.25104097276926">
        <ele>231.80282500000001</ele>
        <time>2026-02-23T17:07:35Z</time>
      </trkpt>
      <trkpt lat="45.996533017605543" lon="12.25116896443069">
        <ele>231.91506699999999</ele>
        <time>2026-02-23T17:07:44Z</time>
      </trkpt>
      <trkpt lat="45.996528994292021" lon="12.251316988840699">
        <ele>232.044813</ele>
        <time>2026-02-23T17:07:54Z</time>
      </trkpt>
      <trkpt lat="45.996499992907047" lon="12.251404998824">
        <ele>232.130135</ele>
        <time>2026-02-23T17:08:01Z</time>
      </trkpt>
      <trkpt lat="45.996491024270654" lon="12.25155302323401">
        <ele>232.260279</ele>
        <time>2026-02-23T17:08:11Z</time>
      </trkpt>
      <trkpt lat="45.996295977383852" lon="12.251676991581917">
        <ele>232.52909299999999</ele>
        <time>2026-02-23T17:08:34Z</time>
      </trkpt>
      <trkpt lat="45.995703041553497" lon="12.250980036333203">
        <ele>233.49446800000001</ele>
        <time>2026-02-23T17:09:55Z</time>
      </trkpt>
      <trkpt lat="45.995506988838315" lon="12.250899989157915">
        <ele>233.72913299999999</ele>
        <time>2026-02-23T17:10:16Z</time>
      </trkpt>
      <trkpt lat="45.994425974786282" lon="12.249860968440771">
        <ele>234.16351399999999</ele>
        <time>2026-02-23T17:12:32Z</time>
      </trkpt>
      <trkpt lat="45.993988020345569" lon="12.249498032033443">
        <ele>234.24622099999999</ele>
        <time>2026-02-23T17:13:23Z</time>
      </trkpt>
      <trkpt lat="45.993378991261125" lon="12.248440990224481">
        <ele>231.87727000000001</ele>
        <time>2026-02-23T17:15:04Z</time>
      </trkpt>
      <trkpt lat="45.993248987942934" lon="12.24803295917809">
        <ele>231.102914</ele>
        <time>2026-02-23T17:15:37Z</time>
      </trkpt>
      <trkpt lat="45.99321898072958" lon="12.247769013047218">
        <ele>230.64142100000001</ele>
        <time>2026-02-23T17:15:57Z</time>
      </trkpt>
      <trkpt lat="45.993157960474491" lon="12.24751403555274">
        <ele>230.17615799999999</ele>
        <time>2026-02-23T17:16:17Z</time>
      </trkpt>
      <trkpt lat="45.99287498742342" lon="12.246872987598181">
        <ele>229.118257</ele>
        <time>2026-02-23T17:17:12Z</time>
      </trkpt>
      <trkpt lat="45.992986969649792" lon="12.246824037283659">
        <ele>228.90167</ele>
        <time>2026-02-23T17:17:25Z</time>
      </trkpt>
      <trkpt lat="45.993060981854796" lon="12.246660003438592">
        <ele>228.65029699999999</ele>
        <time>2026-02-23T17:17:39Z</time>
      </trkpt>
      <trkpt lat="45.993234990164638" lon="12.246442995965481">
        <ele>228.224324</ele>
        <time>2026-02-23T17:18:03Z</time>
      </trkpt>
      <trkpt lat="45.993344960734248" lon="12.246356997638941">
        <ele>227.99271300000001</ele>
        <time>2026-02-23T17:18:16Z</time>
      </trkpt>
      <trkpt lat="45.993646960705519" lon="12.246347023174167">
        <ele>227.433795</ele>
        <time>2026-02-23T17:18:47Z</time>
      </trkpt>
      <trkpt lat="45.993787022307515" lon="12.246393039822578">
        <ele>227.16809900000001</ele>
        <time>2026-02-23T17:19:02Z</time>
      </trkpt>
      <trkpt lat="45.993839995935559" lon="12.246444001793861">
        <ele>227.05014199999999</ele>
        <time>2026-02-23T17:19:08Z</time>
      </trkpt>
      <trkpt lat="45.99377503618598" lon="12.246189024299383">
        <ele>226.70099200000001</ele>
        <time>2026-02-23T17:19:28Z</time>
      </trkpt>
      <trkpt lat="45.9937359765172" lon="12.245784010738134">
        <ele>226.33240000000001</ele>
        <time>2026-02-23T17:19:57Z</time>
      </trkpt>
      <trkpt lat="45.993539001792669" lon="12.244780026376247">
        <ele>225.58847600000001</ele>
        <time>2026-02-23T17:21:12Z</time>
      </trkpt>
      <trkpt lat="45.99336801096797" lon="12.243966981768608">
        <ele>224.982766</ele>
        <time>2026-02-23T17:22:12Z</time>
      </trkpt>
      <trkpt lat="45.993082020431757" lon="12.244053985923529">
        <ele>224.682737</ele>
        <time>2026-02-23T17:22:41Z</time>
      </trkpt>
      <trkpt lat="45.992956040427089" lon="12.244054991751909">
        <ele>224.66437400000001</ele>
        <time>2026-02-23T17:22:54Z</time>
      </trkpt>
      <trkpt lat="45.992510039359331" lon="12.243807977065444">
        <ele>224.59754100000001</ele>
        <time>2026-02-23T17:23:42Z</time>
      </trkpt>
      <trkpt lat="45.99242496304214" lon="12.243830021470785">
        <ele>224.585463</ele>
        <time>2026-02-23T17:23:51Z</time>
      </trkpt>
      <trkpt lat="45.992369977757335" lon="12.243934040889144">
        <ele>224.57276300000001</ele>
        <time>2026-02-23T17:24:00Z</time>
      </trkpt>
      <trkpt lat="45.992257995530963" lon="12.243822980672121">
        <ele>224.55374499999999</ele>
        <time>2026-02-23T17:24:13Z</time>
      </trkpt>
      <trkpt lat="45.992127992212772" lon="12.243962036445737">
        <ele>224.53109699999999</ele>
        <time>2026-02-23T17:24:30Z</time>
      </trkpt>
      <trkpt lat="45.992009975016117" lon="12.243874026462436">
        <ele>224.51250999999999</ele>
        <time>2026-02-23T17:24:43Z</time>
      </trkpt>
      <trkpt lat="45.991911990568042" lon="12.243499020114541">
        <ele>224.473581</ele>
        <time>2026-02-23T17:25:11Z</time>
      </trkpt>
      <trkpt lat="45.991909978911281" lon="12.243305984884501">
        <ele>224.454826</ele>
        <time>2026-02-23T17:25:24Z</time>
      </trkpt>
      <trkpt lat="45.991996983066201" lon="12.243225015699863">
        <ele>224.440335</ele>
        <time>2026-02-23T17:25:35Z</time>
      </trkpt>
      <trkpt lat="45.991962030529976" lon="12.242727968841791">
        <ele>224.48959099999999</ele>
        <time>2026-02-23T17:26:10Z</time>
      </trkpt>
      <trkpt lat="45.991935040801764" lon="12.242636019363999">
        <ele>224.504515</ele>
        <time>2026-02-23T17:26:16Z</time>
      </trkpt>
      <trkpt lat="45.991877960041165" lon="12.242569969967008">
        <ele>224.52024900000001</ele>
        <time>2026-02-23T17:26:24Z</time>
      </trkpt>
      <trkpt lat="45.991720966994762" lon="12.242569969967008">
        <ele>224.55401699999999</ele>
        <time>2026-02-23T17:26:39Z</time>
      </trkpt>
      <trkpt lat="45.991560034453869" lon="12.242519007995725">
        <ele>224.589473</ele>
        <time>2026-02-23T17:26:56Z</time>
      </trkpt>
      <trkpt lat="45.991472024470568" lon="12.242377018555999">
        <ele>224.617907</ele>
        <time>2026-02-23T17:27:09Z</time>
      </trkpt>
      <trkpt lat="45.991236995905638" lon="12.242108965292573">
        <ele>224.68239399999999</ele>
        <time>2026-02-23T17:27:40Z</time>
      </trkpt>
      <trkpt lat="45.990894008427858" lon="12.241626000031829">
        <ele>224.78560100000001</ele>
        <time>2026-02-23T17:28:29Z</time>
      </trkpt>
      <trkpt lat="45.990688987076283" lon="12.24126398563385">
        <ele>224.75952000000001</ele>
        <time>2026-02-23T17:29:02Z</time>
      </trkpt>
      <trkpt lat="45.990537023171782" lon="12.241083020344377">
        <ele>224.69547900000001</ele>
        <time>2026-02-23T17:29:22Z</time>
      </trkpt>
      <trkpt lat="45.990264024585485" lon="12.24055303260684">
        <ele>224.546673</ele>
        <time>2026-02-23T17:30:08Z</time>
      </trkpt>
      <trkpt lat="45.99021197296679" lon="12.240352034568787">
        <ele>224.49829800000001</ele>
        <time>2026-02-23T17:30:23Z</time>
      </trkpt>
      <trkpt lat="45.990223037078977" lon="12.239963030442595">
        <ele>224.41048900000001</ele>
        <time>2026-02-23T17:30:50Z</time>
      </trkpt>
      <trkpt lat="45.990181965753436" lon="12.239730013534427">
        <ele>224.356279</ele>
        <time>2026-02-23T17:31:07Z</time>
      </trkpt>
      <trkpt lat="45.990043999627233" lon="12.23943698219955">
        <ele>224.27644100000001</ele>
        <time>2026-02-23T17:31:32Z</time>
      </trkpt>
      <trkpt lat="45.989891029894352" lon="12.238889979198575">
        <ele>224.43244100000001</ele>
        <time>2026-02-23T17:32:14Z</time>
      </trkpt>
      <trkpt lat="45.989752979949117" lon="12.238699961453676">
        <ele>224.569839</ele>
        <time>2026-02-23T17:32:33Z</time>
      </trkpt>
      <trkpt lat="45.98932801745832" lon="12.238326966762543">
        <ele>224.927976</ele>
        <time>2026-02-23T17:33:23Z</time>
      </trkpt>
      <trkpt lat="45.989015037193894" lon="12.238052962347865">
        <ele>225.191552</ele>
        <time>2026-02-23T17:34:01Z</time>
      </trkpt>
      <trkpt lat="45.988814039155841" lon="12.237838972359896">
        <ele>225.371431</ele>
        <time>2026-02-23T17:34:29Z</time>
      </trkpt>
      <trkpt lat="45.988580016419291" lon="12.237784992903471">
        <ele>225.54515699999999</ele>
        <time>2026-02-23T17:34:55Z</time>
      </trkpt>
      <trkpt lat="45.988149018958211" lon="12.237767977640033">
        <ele>225.92393100000001</ele>
        <time>2026-02-23T17:35:43Z</time>
      </trkpt>
      <trkpt lat="45.987971993163228" lon="12.237806031480432">
        <ele>226.08114499999999</ele>
        <time>2026-02-23T17:36:02Z</time>
      </trkpt>
      <trkpt lat="45.987830003723502" lon="12.237881971523166">
        <ele>226.214237</ele>
        <time>2026-02-23T17:36:18Z</time>
      </trkpt>
      <trkpt lat="45.987727995961905" lon="12.238014992326498">
        <ele>226.33515</ele>
        <time>2026-02-23T17:36:33Z</time>
      </trkpt>
      <trkpt lat="45.987321976572275" lon="12.237241007387638">
        <ele>226.927109</ele>
        <time>2026-02-23T17:37:40Z</time>
      </trkpt>
      <trkpt lat="45.987302027642727" lon="12.236964991316199">
        <ele>227.09649099999999</ele>
        <time>2026-02-23T17:38:00Z</time>
      </trkpt>
      <trkpt lat="45.987457009032369" lon="12.236066032201052">
        <ele>226.342028</ele>
        <time>2026-02-23T17:39:07Z</time>
      </trkpt>
      <trkpt lat="45.98743999376893" lon="12.235958995297551">
        <ele>226.24952999999999</ele>
        <time>2026-02-23T17:39:15Z</time>
      </trkpt>
      <trkpt lat="45.987380985170603" lon="12.235823962837458">
        <ele>226.115129</ele>
        <time>2026-02-23T17:39:27Z</time>
      </trkpt>
      <trkpt lat="45.987303033471107" lon="12.235723966732621">
        <ele>225.98843400000001</ele>
        <time>2026-02-23T17:39:38Z</time>
      </trkpt>
      <trkpt lat="45.987127013504505" lon="12.235637968406081">
        <ele>225.763003</ele>
        <time>2026-02-23T17:39:57Z</time>
      </trkpt>
      <trkpt lat="45.987021988257766" lon="12.235429007560015">
        <ele>225.54565600000001</ele>
        <time>2026-02-23T17:40:15Z</time>
      </trkpt>
      <trkpt lat="45.98698703572154" lon="12.235282994806767">
        <ele>225.41550100000001</ele>
        <time>2026-02-23T17:40:26Z</time>
      </trkpt>
      <trkpt lat="45.987079991027713" lon="12.234811009839177">
        <ele>225.00205199999999</ele>
        <time>2026-02-23T17:41:01Z</time>
      </trkpt>
      <trkpt lat="45.987112009897828" lon="12.234735991805792">
        <ele>224.92788300000001</ele>
        <time>2026-02-23T17:41:07Z</time>
      </trkpt>
      <trkpt lat="45.987241007387638" lon="12.234698021784425">
        <ele>224.86595700000001</ele>
        <time>2026-02-23T17:41:20Z</time>
      </trkpt>
      <trkpt lat="45.987423984333873" lon="12.234588973224163">
        <ele>224.77461199999999</ele>
        <time>2026-02-23T17:41:40Z</time>
      </trkpt>
      <trkpt lat="45.987766971811652" lon="12.2342589776963">
        <ele>224.58432400000001</ele>
        <time>2026-02-23T17:42:22Z</time>
      </trkpt>
      <trkpt lat="45.988070983439684" lon="12.233934011310339">
        <ele>224.40966499999999</ele>
        <time>2026-02-23T17:43:00Z</time>
      </trkpt>
      <trkpt lat="45.988330990076065" lon="12.233480969443917">
        <ele>224.22137499999999</ele>
        <time>2026-02-23T17:43:41Z</time>
      </trkpt>
      <trkpt lat="45.988408019766212" lon="12.233255999162793">
        <ele>224.14100099999999</ele>
        <time>2026-02-23T17:43:59Z</time>
      </trkpt>
      <trkpt lat="45.988399973139167" lon="12.232952993363142">
        <ele>224.027569</ele>
        <time>2026-02-23T17:44:20Z</time>
      </trkpt>
      <trkpt lat="45.988451018929482" lon="12.232595002278686">
        <ele>223.87421900000001</ele>
        <time>2026-02-23T17:44:46Z</time>
      </trkpt>
      <trkpt lat="45.988537017256021" lon="12.232186971232295">
        <ele>223.69530800000001</ele>
        <time>2026-02-23T17:45:16Z</time>
      </trkpt>
      <trkpt lat="45.988695016130805" lon="12.231623036786914">
        <ele>223.44012900000001</ele>
        <time>2026-02-23T17:45:59Z</time>
      </trkpt>
      <trkpt lat="45.988699961453676" lon="12.231527986004949">
        <ele>223.40015099999999</ele>
        <time>2026-02-23T17:46:06Z</time>
      </trkpt>
      <trkpt lat="45.988961979746819" lon="12.231319025158882">
        <ele>223.21923899999999</ele>
        <time>2026-02-23T17:46:36Z</time>
      </trkpt>
      <trkpt lat="45.989233972504735" lon="12.231195978820324">
        <ele>223.04704799999999</ele>
        <time>2026-02-23T17:47:05Z</time>
      </trkpt>
      <trkpt lat="45.989426001906395" lon="12.231049966067076">
        <ele>223.08970500000001</ele>
        <time>2026-02-23T17:47:27Z</time>
      </trkpt>
      <trkpt lat="45.989864962175488" lon="12.2312300093472">
        <ele>223.32261700000001</ele>
        <time>2026-02-23T17:48:13Z</time>
      </trkpt>
      <trkpt lat="45.989961018785834" lon="12.231317013502121">
        <ele>223.38050200000001</ele>
        <time>2026-02-23T17:48:25Z</time>
      </trkpt>
      <trkpt lat="45.990071995183825" lon="12.231332017108798">
        <ele>223.437389</ele>
        <time>2026-02-23T17:48:36Z</time>
      </trkpt>
      <trkpt lat="45.99038003012538" lon="12.231585988774896">
        <ele>223.618514</ele>
        <time>2026-02-23T17:49:13Z</time>
      </trkpt>
      <trkpt lat="45.990481032058597" lon="12.231687996536493">
        <ele>223.68146999999999</ele>
        <time>2026-02-23T17:49:25Z</time>
      </trkpt>
      <trkpt lat="45.990524031221867" lon="12.231785980984569">
        <ele>223.72255999999999</ele>
        <time>2026-02-23T17:49:34Z</time>
      </trkpt>
      <trkpt lat="45.990549009293318" lon="12.231909027323127">
        <ele>223.76799199999999</ele>
        <time>2026-02-23T17:49:43Z</time>
      </trkpt>
      <trkpt lat="45.990543980151415" lon="12.232101978734136">
        <ele>223.83645999999999</ele>
        <time>2026-02-23T17:49:56Z</time>
      </trkpt>
      <trkpt lat="45.990268969908357" lon="12.232657028362155">
        <ele>225.48322300000001</ele>
        <time>2026-02-23T17:50:45Z</time>
      </trkpt>
      <trkpt lat="45.990249020978808" lon="12.232744032517076">
        <ele>225.81950699999999</ele>
        <time>2026-02-23T17:50:52Z</time>
      </trkpt>
      <trkpt lat="45.99031699821353" lon="12.233292041346431">
        <ele>227.86231000000001</ele>
        <time>2026-02-23T17:51:34Z</time>
      </trkpt>
      <trkpt lat="45.990405008196831" lon="12.23348499275744">
        <ele>228.709452</ele>
        <time>2026-02-23T17:51:52Z</time>
      </trkpt>
      <trkpt lat="45.990519002079964" lon="12.233556993305683">
        <ele>229.36699400000001</ele>
        <time>2026-02-23T17:52:07Z</time>
      </trkpt>
      <trkpt lat="45.99070399068296" lon="12.233516005799174">
        <ele>230.355638</ele>
        <time>2026-02-23T17:52:29Z</time>
      </trkpt>
      <trkpt lat="45.990827959030867" lon="12.233545007184148">
        <ele>231.01916800000001</ele>
        <time>2026-02-23T17:52:45Z</time>
      </trkpt>
      <trkpt lat="45.991762960329652" lon="12.232977971434593">
        <ele>240.71027599999999</ele>
        <time>2026-02-23T17:55:03Z</time>
      </trkpt>
      <trkpt lat="45.992321027442813" lon="12.232593996450305">
        <ele>248.77422100000001</ele>
        <time>2026-02-23T17:56:35Z</time>
      </trkpt>
      <trkpt lat="45.992337036877871" lon="12.232524007558823">
        <ele>249.44172800000001</ele>
        <time>2026-02-23T17:56:44Z</time>
      </trkpt>
      <trkpt lat="45.992327984422445" lon="12.232486959546804">
        <ele>249.796829</ele>
        <time>2026-02-23T17:56:48Z</time>
      </trkpt>
      <trkpt lat="45.99220996722579" lon="12.232383023947477">
        <ele>251.600818</ele>
        <time>2026-02-23T17:57:10Z</time>
      </trkpt>
      <trkpt lat="45.992159005254507" lon="12.23206995986402">
        <ele>254.51296500000001</ele>
        <time>2026-02-23T17:57:46Z</time>
      </trkpt>
      <trkpt lat="45.992297977209091" lon="12.231941968202591">
        <ele>256.664399</ele>
        <time>2026-02-23T17:58:14Z</time>
      </trkpt>
      <trkpt lat="45.992447007447481" lon="12.232012962922454">
        <ele>259.93231200000002</ele>
        <time>2026-02-23T17:58:41Z</time>
      </trkpt>
      <trkpt lat="45.992699973285198" lon="12.232053028419614">
        <ele>265.46321999999998</ele>
        <time>2026-02-23T17:59:26Z</time>
      </trkpt>
      <trkpt lat="45.992767028510571" lon="12.231997959315777">
        <ele>267.13931000000002</ele>
        <time>2026-02-23T17:59:40Z</time>
      </trkpt>
      <trkpt lat="45.992864007130265" lon="12.231715992093086">
        <ele>271.88998199999997</ele>
        <time>2026-02-23T18:00:21Z</time>
      </trkpt>
      <trkpt lat="45.992976995185018" lon="12.231685984879732">
        <ele>274.38695999999999</ele>
        <time>2026-02-23T18:00:45Z</time>
      </trkpt>
      <trkpt lat="45.993192996829748" lon="12.231757985427976">
        <ele>279.20498900000001</ele>
        <time>2026-02-23T18:01:33Z</time>
      </trkpt>
      <trkpt lat="45.993420984596014" lon="12.23163703456521">
        <ele>284.48560099999997</ele>
        <time>2026-02-23T18:02:28Z</time>
      </trkpt>
      <trkpt lat="45.993643021211028" lon="12.231581965461373">
        <ele>289.38073100000003</ele>
        <time>2026-02-23T18:03:22Z</time>
      </trkpt>
      <trkpt lat="45.993792973458767" lon="12.231706017628312">
        <ele>293.13964499999997</ele>
        <time>2026-02-23T18:04:03Z</time>
      </trkpt>
      <trkpt lat="45.993997994810343" lon="12.231697971001267">
        <ele>298.17121900000001</ele>
        <time>2026-02-23T18:04:53Z</time>
      </trkpt>
      <trkpt lat="45.99420603364706" lon="12.231563022360206">
        <ele>304.87692299999998</ele>
        <time>2026-02-23T18:05:47Z</time>
      </trkpt>
      <trkpt lat="45.994408037513494" lon="12.231476018205285">
        <ele>311.07364000000001</ele>
        <time>2026-02-23T18:06:39Z</time>
      </trkpt>
      <trkpt lat="45.994509039446712" lon="12.23131600767374">
        <ele>315.48760800000002</ele>
        <time>2026-02-23T18:07:18Z</time>
      </trkpt>
      <trkpt lat="45.994671983644366" lon="12.23120603710413">
        <ele>320.778435</ele>
        <time>2026-02-23T18:08:05Z</time>
      </trkpt>
      <trkpt lat="45.99470199085772" lon="12.231118027120829">
        <ele>322.77984800000002</ele>
        <time>2026-02-23T18:08:24Z</time>
      </trkpt>
      <trkpt lat="45.994667960330844" lon="12.230924991890788">
        <ele>326.84515499999998</ele>
        <time>2026-02-23T18:09:01Z</time>
      </trkpt>
      <trkpt lat="45.994569975882769" lon="12.23077897913754">
        <ele>330.99021199999999</ele>
        <time>2026-02-23T18:09:39Z</time>
      </trkpt>
      <trkpt lat="45.994489006698132" lon="12.230589967221022">
        <ele>335.524339</ele>
        <time>2026-02-23T18:10:22Z</time>
      </trkpt>
      <trkpt lat="45.994484983384609" lon="12.230505980551243">
        <ele>337.24344400000001</ele>
        <time>2026-02-23T18:10:37Z</time>
      </trkpt>
      <trkpt lat="45.994606018066406" lon="12.230353010818362">
        <ele>341.97680300000002</ele>
        <time>2026-02-23T18:11:21Z</time>
      </trkpt>
      <trkpt lat="45.994777008891106" lon="12.230269024148583">
        <ele>347.28698300000002</ele>
        <time>2026-02-23T18:12:10Z</time>
      </trkpt>
      <trkpt lat="45.994834005832672" lon="12.230143966153264">
        <ele>349.55705699999999</ele>
        <time>2026-02-23T18:12:38Z</time>
      </trkpt>
      <trkpt lat="45.994895026087761" lon="12.229854958131909">
        <ele>352.53692899999999</ele>
        <time>2026-02-23T18:13:33Z</time>
      </trkpt>
      <trkpt lat="45.994901983067393" lon="12.229725038632751">
        <ele>353.82331399999998</ele>
        <time>2026-02-23T18:13:56Z</time>
      </trkpt>
      <trkpt lat="45.994838029146194" lon="12.229181975126266">
        <ele>359.25693000000001</ele>
        <time>2026-02-23T18:15:23Z</time>
      </trkpt>
      <trkpt lat="45.994831994175911" lon="12.228929009288549">
        <ele>361.75440300000002</ele>
        <time>2026-02-23T18:15:57Z</time>
      </trkpt>
      <trkpt lat="45.994803998619318" lon="12.228732034564018">
        <ele>363.738202</ele>
        <time>2026-02-23T18:16:20Z</time>
      </trkpt>
      <trkpt lat="45.994692016392946" lon="12.228313023224473">
        <ele>368.16735699999998</ele>
        <time>2026-02-23T18:17:01Z</time>
      </trkpt>
      <trkpt lat="45.994395967572927" lon="12.227966012433171">
        <ele>373.58850699999999</ele>
        <time>2026-02-23T18:17:39Z</time>
      </trkpt>
      <trkpt lat="45.994395967572927" lon="12.227966012433171">
        <ele>373.58850699999999</ele>
        <time>2026-02-23T18:17:39Z</time>
      </trkpt>
      <trkpt lat="45.993795990943909" lon="12.226732028648257">
        <ele>366.281113</ele>
        <time>2026-02-23T18:19:49Z</time>
      </trkpt>
      <trkpt lat="45.993377985432744" lon="12.226057033985853">
        <ele>361.15793200000002</ele>
        <time>2026-02-23T18:21:04Z</time>
      </trkpt>
      <trkpt lat="45.993333980441093" lon="12.226043036207557">
        <ele>360.790436</ele>
        <time>2026-02-23T18:21:10Z</time>
      </trkpt>
      <trkpt lat="45.993345966562629" lon="12.225636010989547">
        <ele>360.57799799999998</ele>
        <time>2026-02-23T18:21:41Z</time>
      </trkpt>
      <trkpt lat="45.993330040946603" lon="12.225470971316099">
        <ele>361.25996199999997</ele>
        <time>2026-02-23T18:21:53Z</time>
      </trkpt>
      <trkpt lat="45.993285030126572" lon="12.225371981039643">
        <ele>361.74424199999999</ele>
        <time>2026-02-23T18:22:01Z</time>
      </trkpt>
      <trkpt lat="45.993209006264806" lon="12.225315989926457">
        <ele>362.2473</ele>
        <time>2026-02-23T18:22:10Z</time>
      </trkpt>
      <trkpt lat="45.993174975737929" lon="12.225252036005259">
        <ele>362.57709599999998</ele>
        <time>2026-02-23T18:22:16Z</time>
      </trkpt>
      <trkpt lat="45.99319702014327" lon="12.225022036582232">
        <ele>363.527469</ele>
        <time>2026-02-23T18:22:34Z</time>
      </trkpt>
      <trkpt lat="45.993180004879832" lon="12.224859008565545">
        <ele>364.20217700000001</ele>
        <time>2026-02-23T18:22:48Z</time>
      </trkpt>
      <trkpt lat="45.993017982691526" lon="12.224540999159217">
        <ele>365.816349</ele>
        <time>2026-02-23T18:23:24Z</time>
      </trkpt>
      <trkpt lat="45.992982024326921" lon="12.224406972527504">
        <ele>366.40445599999998</ele>
        <time>2026-02-23T18:23:38Z</time>
      </trkpt>
      <trkpt lat="45.99302401766181" lon="12.223804984241724">
        <ele>368.88111199999997</ele>
        <time>2026-02-23T18:24:39Z</time>
      </trkpt>
      <trkpt lat="45.992991998791695" lon="12.222968973219395">
        <ele>373.30435899999998</ele>
        <time>2026-02-23T18:26:10Z</time>
      </trkpt>
      <trkpt lat="45.993000967428088" lon="12.222709972411394">
        <ele>374.89139599999999</ele>
        <time>2026-02-23T18:26:36Z</time>
      </trkpt>
      <trkpt lat="45.993104986846447" lon="12.222336977720261">
        <ele>377.35109</ele>
        <time>2026-02-23T18:27:14Z</time>
      </trkpt>
      <trkpt lat="45.993104986846447" lon="12.222229018807411">
        <ele>378.01203800000002</ele>
        <time>2026-02-23T18:27:24Z</time>
      </trkpt>
      <trkpt lat="45.992988981306553" lon="12.222142014652491">
        <ele>379.16425800000002</ele>
        <time>2026-02-23T18:27:41Z</time>
      </trkpt>
      <trkpt lat="45.992868030443788" lon="12.22214100882411">
        <ele>380.230144</ele>
        <time>2026-02-23T18:27:56Z</time>
      </trkpt>
      <trkpt lat="45.992238968610764" lon="12.221856024116278">
        <ele>386.03894600000001</ele>
        <time>2026-02-23T18:29:15Z</time>
      </trkpt>
      <trkpt lat="45.992096979171038" lon="12.221739012748003">
        <ele>387.03878500000002</ele>
        <time>2026-02-23T18:29:33Z</time>
      </trkpt>
      <trkpt lat="45.991872008889914" lon="12.221078015863895">
        <ele>390.059076</ele>
        <time>2026-02-23T18:30:30Z</time>
      </trkpt>
      <trkpt lat="45.991820963099599" lon="12.220587003976107">
        <ele>392.09617100000003</ele>
        <time>2026-02-23T18:31:09Z</time>
      </trkpt>
      <trkpt lat="45.991749968379736" lon="12.220199005678296">
        <ele>393.74253599999997</ele>
        <time>2026-02-23T18:31:43Z</time>
      </trkpt>
      <trkpt lat="45.991610996425152" lon="12.219724003225565">
        <ele>395.85742499999998</ele>
        <time>2026-02-23T18:32:30Z</time>
      </trkpt>
      <trkpt lat="45.99149901419878" lon="12.219491992145777">
        <ele>397.269184</ele>
        <time>2026-02-23T18:32:55Z</time>
      </trkpt>
      <trkpt lat="45.991472024470568" lon="12.21932795830071">
        <ele>398.650442</ele>
        <time>2026-02-23T18:33:11Z</time>
      </trkpt>
      <trkpt lat="45.991495996713638" lon="12.219264004379511">
        <ele>399.24647099999999</ele>
        <time>2026-02-23T18:33:18Z</time>
      </trkpt>
      <trkpt lat="45.991540001705289" lon="12.219280013814569">
        <ele>399.78179699999998</ele>
        <time>2026-02-23T18:33:24Z</time>
      </trkpt>
      <trkpt lat="45.991575960069895" lon="12.219470031559467">
        <ele>401.39578</ele>
        <time>2026-02-23T18:33:42Z</time>
      </trkpt>
      <trkpt lat="45.991643015295267" lon="12.219591988250613">
        <ele>402.67025000000001</ele>
        <time>2026-02-23T18:33:56Z</time>
      </trkpt>
      <trkpt lat="45.991788022220135" lon="12.219827016815543">
        <ele>405.246016</ele>
        <time>2026-02-23T18:34:25Z</time>
      </trkpt>
      <trkpt lat="45.992404008284211" lon="12.221170971170068">
        <ele>418.54944799999998</ele>
        <time>2026-02-23T18:37:12Z</time>
      </trkpt>
      <trkpt lat="45.992452958598733" lon="12.221239032223821">
        <ele>419.540482</ele>
        <time>2026-02-23T18:37:23Z</time>
      </trkpt>
      <trkpt lat="45.993170030415058" lon="12.221462996676564">
        <ele>430.22307699999999</ele>
        <time>2026-02-23T18:39:34Z</time>
      </trkpt>
      <trkpt lat="45.993667999282479" lon="12.221508007496595">
        <ele>437.48823199999998</ele>
        <time>2026-02-23T18:41:04Z</time>
      </trkpt>
      <trkpt lat="45.993919037282467" lon="12.221591994166374">
        <ele>441.24027000000001</ele>
        <time>2026-02-23T18:41:45Z</time>
      </trkpt>
      <trkpt lat="45.994198992848396" lon="12.221770025789738">
        <ele>444.72903700000001</ele>
        <time>2026-02-23T18:42:27Z</time>
      </trkpt>
      <trkpt lat="45.994583973661065" lon="12.222074037417769">
        <ele>447.07452999999998</ele>
        <time>2026-02-23T18:43:20Z</time>
      </trkpt>
      <trkpt lat="45.994591014459729" lon="12.222146037966013">
        <ele>447.34430700000001</ele>
        <time>2026-02-23T18:43:26Z</time>
      </trkpt>
      <trkpt lat="45.994566036388278" lon="12.222204962745309">
        <ele>447.60075000000001</ele>
        <time>2026-02-23T18:43:32Z</time>
      </trkpt>
      <trkpt lat="45.994281973689795" lon="12.222405038774014">
        <ele>449.28949799999998</ele>
        <time>2026-02-23T18:44:06Z</time>
      </trkpt>
      <trkpt lat="45.994212990626693" lon="12.222491959109902">
        <ele>449.779449</ele>
        <time>2026-02-23T18:44:16Z</time>
      </trkpt>
      <trkpt lat="45.994183989241719" lon="12.222575023770332">
        <ele>450.12420100000003</ele>
        <time>2026-02-23T18:44:23Z</time>
      </trkpt>
      <trkpt lat="45.994156999513507" lon="12.222969979047775">
        <ele>451.59703400000001</ele>
        <time>2026-02-23T18:44:52Z</time>
      </trkpt>
      <trkpt lat="45.994193963706493" lon="12.223308021202683">
        <ele>452.86675000000002</ele>
        <time>2026-02-23T18:45:18Z</time>
      </trkpt>
      <trkpt lat="45.994407031685114" lon="12.223874973133206">
        <ele>455.97506700000002</ele>
        <time>2026-02-23T18:46:10Z</time>
      </trkpt>
      <trkpt lat="45.994453970342875" lon="12.223933981731534">
        <ele>456.469043</ele>
        <time>2026-02-23T18:46:18Z</time>
      </trkpt>
      <trkpt lat="45.994680030271411" lon="12.224464975297451">
        <ele>459.89587</ele>
        <time>2026-02-23T18:47:13Z</time>
      </trkpt>
      <trkpt lat="45.994926039129496" lon="12.225100994110107">
        <ele>463.90161499999999</ele>
        <time>2026-02-23T18:48:21Z</time>
      </trkpt>
      <trkpt lat="45.995043972507119" lon="12.225804990157485">
        <ele>467.88682499999999</ele>
        <time>2026-02-23T18:49:27Z</time>
      </trkpt>
      <trkpt lat="45.995848970487714" lon="12.227478018030524">
        <ele>481.48139099999997</ele>
        <time>2026-02-23T18:52:32Z</time>
      </trkpt>
      <trkpt lat="45.996111994609237" lon="12.227933993563056">
        <ele>485.43416999999999</ele>
        <time>2026-02-23T18:53:30Z</time>
      </trkpt>
      <trkpt lat="45.996228000149131" lon="12.228028038516641">
        <ele>486.51566300000002</ele>
        <time>2026-02-23T18:53:48Z</time>
      </trkpt>
      <trkpt lat="45.996646005660295" lon="12.228112025186419">
        <ele>489.94456100000002</ele>
        <time>2026-02-23T18:54:44Z</time>
      </trkpt>
      <trkpt lat="45.996836023405194" lon="12.228220989927649">
        <ele>491.60625499999998</ele>
        <time>2026-02-23T18:55:11Z</time>
      </trkpt>
      <trkpt lat="45.996894026175141" lon="12.228180002421141">
        <ele>492.13121799999999</ele>
        <time>2026-02-23T18:55:19Z</time>
      </trkpt>
      <trkpt lat="45.996839040890336" lon="12.228099033236504">
        <ele>492.77048200000002</ele>
        <time>2026-02-23T18:55:29Z</time>
      </trkpt>
      <trkpt lat="45.996420029550791" lon="12.227887976914644">
        <ele>496.376867</ele>
        <time>2026-02-23T18:56:24Z</time>
      </trkpt>
      <trkpt lat="45.99616002291441" lon="12.227627970278263">
        <ele>498.94888700000001</ele>
        <time>2026-02-23T18:57:02Z</time>
      </trkpt>
      <trkpt lat="45.995873026549816" lon="12.226758012548089">
        <ele>504.34817299999997</ele>
        <time>2026-02-23T18:58:23Z</time>
      </trkpt>
      <trkpt lat="45.995779987424612" lon="12.226392980664968">
        <ele>506.52430199999998</ele>
        <time>2026-02-23T18:58:58Z</time>
      </trkpt>
      <trkpt lat="45.995741011574864" lon="12.225865004584193">
        <ele>509.49639200000001</ele>
        <time>2026-02-23T18:59:46Z</time>
      </trkpt>
      <trkpt lat="45.995594998821616" lon="12.22484802827239">
        <ele>515.42374900000004</ele>
        <time>2026-02-23T19:01:21Z</time>
      </trkpt>
      <trkpt lat="45.995340021327138" lon="12.223723009228706">
        <ele>522.94009000000005</ele>
        <time>2026-02-23T19:03:07Z</time>
      </trkpt>
      <trkpt lat="45.995349995791912" lon="12.223555035889149">
        <ele>524.01108099999999</ele>
        <time>2026-02-23T19:03:22Z</time>
      </trkpt>
      <trkpt lat="45.995415039360523" lon="12.223300980404019">
        <ele>525.73037999999997</ele>
        <time>2026-02-23T19:03:46Z</time>
      </trkpt>
      <trkpt lat="45.995444962754846" lon="12.223270973190665">
        <ele>526.06435799999997</ele>
        <time>2026-02-23T19:03:51Z</time>
      </trkpt>
      <trkpt lat="45.995489973574877" lon="12.223297040909529">
        <ele>526.50769100000002</ele>
        <time>2026-02-23T19:03:57Z</time>
      </trkpt>
      <trkpt lat="45.995446974411607" lon="12.223463002592325">
        <ele>527.63297699999998</ele>
        <time>2026-02-23T19:04:13Z</time>
      </trkpt>
      <trkpt lat="45.995434988290071" lon="12.223655031993985">
        <ele>528.85742200000004</ele>
        <time>2026-02-23T19:04:31Z</time>
      </trkpt>
      <trkpt lat="45.995755009353161" lon="12.224391968920827">
        <ele>535.44224399999996</ele>
        <time>2026-02-23T19:05:53Z</time>
      </trkpt>
      <trkpt lat="45.996120041236281" lon="12.225458985194564">
        <ele>545.31171300000005</ele>
        <time>2026-02-23T19:07:47Z</time>
      </trkpt>
      <trkpt lat="45.996432015672326" lon="12.226475961506367">
        <ele>555.32998299999997</ele>
        <time>2026-02-23T19:09:44Z</time>
      </trkpt>
      <trkpt lat="45.996495969593525" lon="12.22656799480319">
        <ele>556.80901400000005</ele>
        <time>2026-02-23T19:09:59Z</time>
      </trkpt>
      <trkpt lat="45.99764303304255" lon="12.227074010297656">
        <ele>576.42612999999994</ele>
        <time>2026-02-23T19:13:35Z</time>
      </trkpt>
      <trkpt lat="45.997925000265241" lon="12.227163026109338">
        <ele>581.14700700000003</ele>
        <time>2026-02-23T19:14:29Z</time>
      </trkpt>
      <trkpt lat="45.998435961082578" lon="12.227143999189138">
        <ele>586.26629300000002</ele>
        <time>2026-02-23T19:16:00Z</time>
      </trkpt>
      <trkpt lat="45.998809039592743" lon="12.227081973105669">
        <ele>589.82475399999998</ele>
        <time>2026-02-23T19:16:55Z</time>
      </trkpt>
      <trkpt lat="45.999490991234779" lon="12.226984994485974">
        <ele>596.31963399999995</ele>
        <time>2026-02-23T19:18:17Z</time>
      </trkpt>
      <trkpt lat="45.999576989561319" lon="12.226937972009182">
        <ele>597.19142599999998</ele>
        <time>2026-02-23T19:18:27Z</time>
      </trkpt>
      <trkpt lat="45.999644966796041" lon="12.226943001151085">
        <ele>597.83671200000003</ele>
        <time>2026-02-23T19:18:35Z</time>
      </trkpt>
      <trkpt lat="45.999673968181014" lon="12.226993963122368">
        <ele>598.27060800000004</ele>
        <time>2026-02-23T19:18:39Z</time>
      </trkpt>
      <trkpt lat="45.999674974009395" lon="12.227155985310674">
        <ele>599.14151900000002</ele>
        <time>2026-02-23T19:18:51Z</time>
      </trkpt>
      <trkpt lat="45.999657958745956" lon="12.227312978357077">
        <ele>599.77029600000003</ele>
        <time>2026-02-23T19:19:02Z</time>
      </trkpt>
      <trkpt lat="45.999624012038112" lon="12.227407023310661">
        <ele>600.18967399999997</ele>
        <time>2026-02-23T19:19:10Z</time>
      </trkpt>
      <trkpt lat="45.99959802813828" lon="12.227789992466569">
        <ele>601.71249</ele>
        <time>2026-02-23T19:19:38Z</time>
      </trkpt>
      <trkpt lat="45.999654019251466" lon="12.2281130310148">
        <ele>603.02986399999998</ele>
        <time>2026-02-23T19:20:03Z</time>
      </trkpt>
      <trkpt lat="45.999772036448121" lon="12.228434979915619">
        <ele>604.470505</ele>
        <time>2026-02-23T19:20:32Z</time>
      </trkpt>
      <trkpt lat="45.999807994812727" lon="12.228622986003757">
        <ele>605.24219900000003</ele>
        <time>2026-02-23T19:20:48Z</time>
      </trkpt>
      <trkpt lat="45.999820986762643" lon="12.228878969326615">
        <ele>606.25793399999998</ele>
        <time>2026-02-23T19:21:10Z</time>
      </trkpt>
      <trkpt lat="45.999783016741276" lon="12.229036968201399">
        <ele>606.919578</ele>
        <time>2026-02-23T19:21:25Z</time>
      </trkpt>
      <trkpt lat="45.99977002479136" lon="12.229249030351639">
        <ele>607.76175799999999</ele>
        <time>2026-02-23T19:21:45Z</time>
      </trkpt>
      <trkpt lat="45.999836996197701" lon="12.229409040883183">
        <ele>608.50104399999998</ele>
        <time>2026-02-23T19:22:03Z</time>
      </trkpt>
      <trkpt lat="45.999931041151285" lon="12.229518005624413">
        <ele>609.28023099999996</ele>
        <time>2026-02-23T19:22:20Z</time>
      </trkpt>
      <trkpt lat="46.000146036967635" lon="12.229659995064139">
        <ele>611.91513399999997</ele>
        <time>2026-02-23T19:22:54Z</time>
      </trkpt>
      <trkpt lat="46.000220971181989" lon="12.229975992813706">
        <ele>614.49904100000003</ele>
        <time>2026-02-23T19:23:28Z</time>
      </trkpt>
      <trkpt lat="46.000039000064135" lon="12.230775961652398">
        <ele>621.01275799999996</ele>
        <time>2026-02-23T19:24:49Z</time>
      </trkpt>
      <trkpt lat="45.999888963997364" lon="12.231137976050377">
        <ele>624.27431200000001</ele>
        <time>2026-02-23T19:25:28Z</time>
      </trkpt>
      <trkpt lat="45.99981402978301" lon="12.231265967711806">
        <ele>625.57003399999996</ele>
        <time>2026-02-23T19:25:44Z</time>
      </trkpt>
      <trkpt lat="45.999781005084515" lon="12.231408040970564">
        <ele>626.728658</ele>
        <time>2026-02-23T19:25:58Z</time>
      </trkpt>
      <trkpt lat="45.999779999256134" lon="12.231570985168219">
        <ele>627.98996899999997</ele>
        <time>2026-02-23T19:26:13Z</time>
      </trkpt>
      <trkpt lat="45.999844959005713" lon="12.231804002076387">
        <ele>630.08544400000005</ele>
        <time>2026-02-23T19:26:37Z</time>
      </trkpt>
      <trkpt lat="45.999844036996365" lon="12.232032995671034">
        <ele>632.19335599999999</ele>
        <time>2026-02-23T19:26:59Z</time>
      </trkpt>
      <trkpt lat="45.999868009239435" lon="12.232129974290729">
        <ele>633.14115300000003</ele>
        <time>2026-02-23T19:27:09Z</time>
      </trkpt>
      <trkpt lat="46.000390034168959" lon="12.233133036643267">
        <ele>644.67703600000004</ele>
        <time>2026-02-23T19:29:25Z</time>
      </trkpt>
      <trkpt lat="46.000664038583636" lon="12.233731001615524">
        <ele>651.27092300000004</ele>
        <time>2026-02-23T19:30:47Z</time>
      </trkpt>
      <trkpt lat="46.001073997467756" lon="12.234311029314995">
        <ele>658.909268</ele>
        <time>2026-02-23T19:32:14Z</time>
      </trkpt>
      <trkpt lat="46.001215986907482" lon="12.234673965722322">
        <ele>662.75780499999996</ele>
        <time>2026-02-23T19:32:57Z</time>
      </trkpt>
      <trkpt lat="46.001346996054053" lon="12.234915029257536">
        <ele>665.58475199999998</ele>
        <time>2026-02-23T19:33:28Z</time>
      </trkpt>
      <trkpt lat="46.001422014087439" lon="12.235201019793749">
        <ele>668.40878699999996</ele>
        <time>2026-02-23T19:34:00Z</time>
      </trkpt>
      <trkpt lat="46.001674979925156" lon="12.235798984766006">
        <ele>674.87699599999996</ele>
        <time>2026-02-23T19:35:14Z</time>
      </trkpt>
      <trkpt lat="46.002090973779559" lon="12.23653600551188">
        <ele>682.42253800000003</ele>
        <time>2026-02-23T19:36:59Z</time>
      </trkpt>
      <trkpt lat="46.002188036218286" lon="12.236745972186327">
        <ele>684.32988899999998</ele>
        <time>2026-02-23T19:37:27Z</time>
      </trkpt>
      <trkpt lat="46.002310998737812" lon="12.237204965204">
        <ele>688.05073000000004</ele>
        <time>2026-02-23T19:38:18Z</time>
      </trkpt>
      <trkpt lat="46.002333965152502" lon="12.237219968810678">
        <ele>688.32565299999999</ele>
        <time>2026-02-23T19:38:22Z</time>
      </trkpt>
      <trkpt lat="46.002346035093069" lon="12.237131036818027">
        <ele>689.01133300000004</ele>
        <time>2026-02-23T19:38:31Z</time>
      </trkpt>
      <trkpt lat="46.002308987081051" lon="12.236863989382982">
        <ele>691.07047699999998</ele>
        <time>2026-02-23T19:38:56Z</time>
      </trkpt>
      <trkpt lat="46.002314016222954" lon="12.2365159727633">
        <ele>693.70300499999996</ele>
        <time>2026-02-23T19:39:26Z</time>
      </trkpt>
      <trkpt lat="46.002279985696077" lon="12.236322015523911">
        <ele>695.21623</ele>
        <time>2026-02-23T19:39:43Z</time>
      </trkpt>
      <trkpt lat="46.002213014289737" lon="12.236064020544291">
        <ele>696.82727999999997</ele>
        <time>2026-02-23T19:40:06Z</time>
      </trkpt>
      <trkpt lat="46.001842031255364" lon="12.235147962346673">
        <ele>700.31300499999998</ele>
        <time>2026-02-23T19:41:30Z</time>
      </trkpt>
      <trkpt lat="46.001693001016974" lon="12.234285967424512">
        <ele>703.23315400000001</ele>
        <time>2026-02-23T19:42:39Z</time>
      </trkpt>
      <trkpt lat="46.001508012413979" lon="12.233861004933715">
        <ele>704.88195599999995</ele>
        <time>2026-02-23T19:43:20Z</time>
      </trkpt>
      <trkpt lat="46.00146702490747" lon="12.233608961105347">
        <ele>706.28572799999995</ele>
        <time>2026-02-23T19:43:41Z</time>
      </trkpt>
      <trkpt lat="46.001336015760899" lon="12.233166983351111">
        <ele>709.02033500000005</ele>
        <time>2026-02-23T19:44:23Z</time>
      </trkpt>
      <trkpt lat="46.001179022714496" lon="12.232971014454961">
        <ele>710.72275300000001</ele>
        <time>2026-02-23T19:44:49Z</time>
      </trkpt>
      <trkpt lat="46.00112596526742" lon="12.232700027525425">
        <ele>712.32485899999995</ele>
        <time>2026-02-23T19:45:14Z</time>
      </trkpt>
      <trkpt lat="46.001099981367588" lon="12.232274981215596">
        <ele>714.75272600000005</ele>
        <time>2026-02-23T19:45:52Z</time>
      </trkpt>
      <trkpt lat="46.001314977183938" lon="12.23146797157824">
        <ele>719.67120799999998</ele>
        <time>2026-02-23T19:47:12Z</time>
      </trkpt>
      <trkpt lat="46.001429976895452" lon="12.231231015175581">
        <ele>721.65454799999998</ele>
        <time>2026-02-23T19:47:39Z</time>
      </trkpt>
      <trkpt lat="46.001899028196931" lon="12.230565994977951">
        <ele>728.18354899999997</ele>
        <time>2026-02-23T19:49:15Z</time>
      </trkpt>
      <trkpt lat="46.002016961574554" lon="12.23032702691853">
        <ele>730.20368299999996</ele>
        <time>2026-02-23T19:49:43Z</time>
      </trkpt>
      <trkpt lat="46.002106983214617" lon="12.230212027207017">
        <ele>731.39721299999997</ele>
        <time>2026-02-23T19:49:59Z</time>
      </trkpt>
      <trkpt lat="46.002140007913113" lon="12.230097027495503">
        <ele>732.25444400000003</ele>
        <time>2026-02-23T19:50:11Z</time>
      </trkpt>
      <trkpt lat="46.002142019569874" lon="12.229844983667135">
        <ele>733.99069899999995</ele>
        <time>2026-02-23T19:50:33Z</time>
      </trkpt>
      <trkpt lat="46.00230697542429" lon="12.229337962344289">
        <ele>737.97207100000003</ele>
        <time>2026-02-23T19:51:21Z</time>
      </trkpt>
      <trkpt lat="46.002330025658011" lon="12.229127995669842">
        <ele>740.04712400000005</ele>
        <time>2026-02-23T19:51:38Z</time>
      </trkpt>
      <trkpt lat="46.00230697542429" lon="12.229054989293218">
        <ele>740.829519</ele>
        <time>2026-02-23T19:51:44Z</time>
      </trkpt>
      <trkpt lat="46.001693001016974" lon="12.228062991052866">
        <ele>753.79829199999995</ele>
        <time>2026-02-23T19:53:46Z</time>
      </trkpt>
      <trkpt lat="46.001689983531833" lon="12.227856041863561">
        <ele>755.81920300000002</ele>
        <time>2026-02-23T19:54:10Z</time>
      </trkpt>
      <trkpt lat="46.001742035150528" lon="12.227765014395118">
        <ele>756.96935099999996</ele>
        <time>2026-02-23T19:54:25Z</time>
      </trkpt>
      <trkpt lat="46.001858040690422" lon="12.227591006085277">
        <ele>759.32334300000002</ele>
        <time>2026-02-23T19:54:57Z</time>
      </trkpt>
      <trkpt lat="46.001958036795259" lon="12.227494027465582">
        <ele>761.01770699999997</ele>
        <time>2026-02-23T19:55:22Z</time>
      </trkpt>
      <trkpt lat="46.001986032351851" lon="12.227399982511997">
        <ele>762.01601200000005</ele>
        <time>2026-02-23T19:55:37Z</time>
      </trkpt>
      <trkpt lat="46.002076976001263" lon="12.22731800749898">
        <ele>764.61103400000002</ele>
        <time>2026-02-23T19:56:02Z</time>
      </trkpt>
      <trkpt lat="46.002131039276719" lon="12.227583965286613">
        <ele>771.511438</ele>
        <time>2026-02-23T19:56:49Z</time>
      </trkpt>
      <trkpt lat="46.002213014289737" lon="12.227611960843205">
        <ele>774.53236400000003</ele>
        <time>2026-02-23T19:57:11Z</time>
      </trkpt>
      <trkpt lat="46.002708971500397" lon="12.226581992581487">
        <ele>805.73915999999997</ele>
        <time>2026-02-23T20:01:42Z</time>
      </trkpt>
      <trkpt lat="46.00286697037518" lon="12.22665298730135">
        <ele>811.67232999999999</ele>
        <time>2026-02-23T20:02:37Z</time>
      </trkpt>
      <trkpt lat="46.00295003503561" lon="12.226464981213212">
        <ele>817.21891100000005</ele>
        <time>2026-02-23T20:03:29Z</time>
      </trkpt>
      <trkpt lat="46.003051036968827" lon="12.226426005363464">
        <ele>820.96732799999995</ele>
        <time>2026-02-23T20:04:04Z</time>
      </trkpt>
      <trkpt lat="46.003132006153464" lon="12.226450983434916">
        <ele>823.93683299999998</ele>
        <time>2026-02-23T20:04:31Z</time>
      </trkpt>
      <trkpt lat="46.003267038613558" lon="12.226294996216893">
        <ele>830.30292699999995</ele>
        <time>2026-02-23T20:05:28Z</time>
      </trkpt>
      <trkpt lat="46.003548000007868" lon="12.226154012605548">
        <ele>841.57309499999997</ele>
        <time>2026-02-23T20:07:01Z</time>
      </trkpt>
      <trkpt lat="46.003733994439244" lon="12.226146971806884">
        <ele>848.61984800000005</ele>
        <time>2026-02-23T20:08:01Z</time>
      </trkpt>
      <trkpt lat="46.00393800996244" lon="12.226037001237273">
        <ele>856.870046</ele>
        <time>2026-02-23T20:09:10Z</time>
      </trkpt>
      <trkpt lat="46.003983020782471" lon="12.226174967363477">
        <ele>860.88052100000004</ele>
        <time>2026-02-23T20:09:44Z</time>
      </trkpt>
      <trkpt lat="46.003943039104342" lon="12.226507980376482">
        <ele>869.77070700000002</ele>
        <time>2026-02-23T20:10:57Z</time>
      </trkpt>
      <trkpt lat="46.003884030506015" lon="12.226699003949761">
        <ele>875.26976200000001</ele>
        <time>2026-02-23T20:11:41Z</time>
      </trkpt>
      <trkpt lat="46.003865003585815" lon="12.226872006431222">
        <ele>879.87738100000001</ele>
        <time>2026-02-23T20:12:17Z</time>
      </trkpt>
      <trkpt lat="46.00404404103756" lon="12.226969990879297">
        <ele>887.13027499999998</ele>
        <time>2026-02-23T20:13:13Z</time>
      </trkpt>
      <trkpt lat="46.004147976636887" lon="12.226944006979465">
        <ele>891.12799500000006</ele>
        <time>2026-02-23T20:13:43Z</time>
      </trkpt>
      <trkpt lat="46.004214026033878" lon="12.226892961189151">
        <ele>893.96490100000005</ele>
        <time>2026-02-23T20:14:05Z</time>
      </trkpt>
      <trkpt lat="46.004341011866927" lon="12.226660028100014">
        <ele>900.78744900000004</ele>
        <time>2026-02-23T20:15:03Z</time>
      </trkpt>
      <trkpt lat="46.004560030996799" lon="12.226467998698354">
        <ele>909.01419099999998</ele>
        <time>2026-02-23T20:16:14Z</time>
      </trkpt>
      <trkpt lat="46.004665978252888" lon="12.226328020915389">
        <ele>913.62944700000003</ele>
        <time>2026-02-23T20:16:54Z</time>
      </trkpt>
      <trkpt lat="46.004811991006136" lon="12.225982015952468">
        <ele>922.65159900000003</ele>
        <time>2026-02-23T20:18:17Z</time>
      </trkpt>
      <trkpt lat="46.004946017637849" lon="12.225820999592543">
        <ele>928.25135899999998</ele>
        <time>2026-02-23T20:19:06Z</time>
      </trkpt>
      <trkpt lat="46.005070991814137" lon="12.225606003776193">
        <ele>934.499685</ele>
        <time>2026-02-23T20:19:58Z</time>
      </trkpt>
      <trkpt lat="46.005128994584084" lon="12.225400982424617">
        <ele>939.43265899999994</ele>
        <time>2026-02-23T20:20:39Z</time>
      </trkpt>
      <trkpt lat="46.005220022052526" lon="12.224833024665713">
        <ele>952.423135</ele>
        <time>2026-02-23T20:22:23Z</time>
      </trkpt>
      <trkpt lat="46.00520602427423" lon="12.224622974172235">
        <ele>956.75989000000004</ele>
        <time>2026-02-23T20:23:00Z</time>
      </trkpt>
      <trkpt lat="46.005175011232495" lon="12.224489031359553">
        <ele>959.62035700000001</ele>
        <time>2026-02-23T20:23:24Z</time>
      </trkpt>
      <trkpt lat="46.005190014839172" lon="12.224156018346548">
        <ele>966.37876300000005</ele>
        <time>2026-02-23T20:24:20Z</time>
      </trkpt>
      <trkpt lat="46.005176017060876" lon="12.224087035283446">
        <ele>967.83461899999998</ele>
        <time>2026-02-23T20:24:33Z</time>
      </trkpt>
      <trkpt lat="46.005251035094261" lon="12.224006988108158">
        <ele>970.55628999999999</ele>
        <time>2026-02-23T20:24:55Z</time>
      </trkpt>
      <trkpt lat="46.005294034257531" lon="12.223872961476445">
        <ele>973.54580799999997</ele>
        <time>2026-02-23T20:25:19Z</time>
      </trkpt>
      <trkpt lat="46.005245000123978" lon="12.223594011738896">
        <ele>979.37420799999995</ele>
        <time>2026-02-23T20:26:09Z</time>
      </trkpt>
      <trkpt lat="46.005257992073894" lon="12.223455961793661">
        <ele>982.19470100000001</ele>
        <time>2026-02-23T20:26:33Z</time>
      </trkpt>
      <trkpt lat="46.005233014002442" lon="12.223340962082148">
        <ele>984.63519799999995</ele>
        <time>2026-02-23T20:26:54Z</time>
      </trkpt>
      <trkpt lat="46.005205018445849" lon="12.223252030089498">
        <ele>986.61398599999995</ele>
        <time>2026-02-23T20:27:12Z</time>
      </trkpt>
      <trkpt lat="46.005205018445849" lon="12.223252030089498">
        <ele>986.61398599999995</ele>
        <time>2026-02-23T20:27:12Z</time>
      </trkpt>
      <trkpt lat="46.005137041211128" lon="12.223240965977311">
        <ele>988.60920899999996</ele>
        <time>2026-02-23T20:27:29Z</time>
      </trkpt>
      <trkpt lat="46.005093958228827" lon="12.22269999794662">
        <ele>999.63758099999995</ele>
        <time>2026-02-23T20:29:06Z</time>
      </trkpt>
      <trkpt lat="46.004984993487597" lon="12.222495982423425">
        <ele>1004.850197</ele>
        <time>2026-02-23T20:29:54Z</time>
      </trkpt>
      <trkpt lat="46.005020029842854" lon="12.222516015172005">
        <ele>1005.995185</ele>
        <time>2026-02-23T20:30:08Z</time>
      </trkpt>
      <trkpt lat="46.005166964605451" lon="12.222487013787031">
        <ele>1010.8602990000001</ele>
        <time>2026-02-23T20:31:02Z</time>
      </trkpt>
      <trkpt lat="46.005438035354018" lon="12.222619028761983">
        <ele>1020.241069</ele>
        <time>2026-02-23T20:32:51Z</time>
      </trkpt>
      <trkpt lat="46.005496960133314" lon="12.222750959917903">
        <ele>1023.8160820000001</ele>
        <time>2026-02-23T20:33:34Z</time>
      </trkpt>
      <trkpt lat="46.005697036162019" lon="12.222951035946608">
        <ele>1031.8007439999999</ele>
        <time>2026-02-23T20:35:11Z</time>
      </trkpt>
      <trkpt lat="46.005858974531293" lon="12.223036028444767">
        <ele>1037.4544269999999</ele>
        <time>2026-02-23T20:36:20Z</time>
      </trkpt>
      <trkpt lat="46.006133984774351" lon="12.223248006775975">
        <ele>1047.6828929999999</ele>
        <time>2026-02-23T20:38:25Z</time>
      </trkpt>
      <trkpt lat="46.00623800419271" lon="12.223285976797342">
        <ele>1051.2011190000001</ele>
        <time>2026-02-23T20:39:07Z</time>
      </trkpt>
      <trkpt lat="46.00628100335598" lon="12.223348002880812">
        <ele>1053.1965769999999</ele>
        <time>2026-02-23T20:39:29Z</time>
      </trkpt>
      <trkpt lat="46.006408995017409" lon="12.223437018692493">
        <ele>1057.8574779999999</ele>
        <time>2026-02-23T20:40:21Z</time>
      </trkpt>
      <trkpt lat="46.00647303275764" lon="12.223454033955932">
        <ele>1059.99143</ele>
        <time>2026-02-23T20:40:44Z</time>
      </trkpt>
      <trkpt lat="46.006498010829091" lon="12.223381027579308">
        <ele>1061.845104</ele>
        <time>2026-02-23T20:41:04Z</time>
      </trkpt>
      <trkpt lat="46.006476972252131" lon="12.223051032051444">
        <ele>1068.1158780000001</ele>
        <time>2026-02-23T20:42:21Z</time>
      </trkpt>
      <trkpt lat="46.006671013310552" lon="12.223068969324231">
        <ele>1072.8108380000001</ele>
        <time>2026-02-23T20:43:26Z</time>
      </trkpt>
      <trkpt lat="46.006659027189016" lon="12.222746014595032">
        <ele>1078.2367409999999</ele>
        <time>2026-02-23T20:44:20Z</time>
      </trkpt>
      <trkpt lat="46.006684005260468" lon="12.22267996519804">
        <ele>1079.4977879999999</ele>
        <time>2026-02-23T20:44:33Z</time>
      </trkpt>
      <trkpt lat="46.006736978888512" lon="12.222631014883518">
        <ele>1081.0189620000001</ele>
        <time>2026-02-23T20:44:48Z</time>
      </trkpt>
      <trkpt lat="46.006737984716892" lon="12.222635960206389">
        <ele>1081.1062420000001</ele>
        <time>2026-02-23T20:44:49Z</time>
      </trkpt>
      <trkpt lat="46.006821971386671" lon="12.223004009574652">
        <ele>1087.6040379999999</ele>
        <time>2026-02-23T20:45:16Z</time>
      </trkpt>
      <trkpt lat="46.006837980821729" lon="12.223034016788006">
        <ele>1088.2385119999999</ele>
        <time>2026-02-23T20:45:19Z</time>
      </trkpt>
      <trkpt lat="46.006853990256786" lon="12.223065029829741">
        <ele>1088.8863710000001</ele>
        <time>2026-02-23T20:45:22Z</time>
      </trkpt>
      <trkpt lat="46.006869999691844" lon="12.223095959052444">
        <ele>1089.53423</ele>
        <time>2026-02-23T20:45:25Z</time>
      </trkpt>
      <trkpt lat="46.006886009126902" lon="12.223126972094178">
        <ele>1090.1820889999999</ele>
        <time>2026-02-23T20:45:27Z</time>
      </trkpt>
      <trkpt lat="46.006902018561959" lon="12.223157985135913">
        <ele>1090.8299469999999</ele>
        <time>2026-02-23T20:45:30Z</time>
      </trkpt>
      <trkpt lat="46.006918027997017" lon="12.223187992349267">
        <ele>1091.4644209999999</ele>
        <time>2026-02-23T20:45:33Z</time>
      </trkpt>
      <trkpt lat="46.006934037432075" lon="12.223219005391002">
        <ele>1092.1122789999999</ele>
        <time>2026-02-23T20:45:36Z</time>
      </trkpt>
      <trkpt lat="46.0069499630481" lon="12.223250018432736">
        <ele>1092.7601380000001</ele>
        <time>2026-02-23T20:45:38Z</time>
      </trkpt>
      <trkpt lat="46.007049959152937" lon="12.223269967362285">
        <ele>1095.1984010000001</ele>
        <time>2026-02-23T20:45:49Z</time>
      </trkpt>
      <trkpt lat="46.007209969684482" lon="12.223599962890148">
        <ele>1101.949216</ele>
        <time>2026-02-23T20:46:17Z</time>
      </trkpt>
      <trkpt lat="46.00729001685977" lon="12.22368998453021">
        <ele>1104.401155</ele>
        <time>2026-02-23T20:46:27Z</time>
      </trkpt>
      <trkpt lat="46.007569972425699" lon="12.223870027810335">
        <ele>1110.256427</ele>
        <time>2026-02-23T20:46:58Z</time>
      </trkpt>
      <trkpt lat="46.007590005174279" lon="12.223900035023689">
        <ele>1110.6709069999999</ele>
        <time>2026-02-23T20:47:01Z</time>
      </trkpt>
      <trkpt lat="46.007754961028695" lon="12.223985027521849">
        <ele>1113.1857930000001</ele>
        <time>2026-02-23T20:47:19Z</time>
      </trkpt>
      <trkpt lat="46.007920000702143" lon="12.224070020020008">
        <ele>1115.7006779999999</ele>
        <time>2026-02-23T20:47:37Z</time>
      </trkpt>
      <trkpt lat="46.007999964058399" lon="12.22416004166007">
        <ele>1117.1576540000001</ele>
        <time>2026-02-23T20:47:47Z</time>
      </trkpt>
      <trkpt lat="46.008180007338524" lon="12.224409990012646">
        <ele>1120.7467959999999</ele>
        <time>2026-02-23T20:48:12Z</time>
      </trkpt>
      <trkpt lat="46.008334988728166" lon="12.224609982222319">
        <ele>1123.7337299999999</ele>
        <time>2026-02-23T20:48:33Z</time>
      </trkpt>
      <trkpt lat="46.008489970117807" lon="12.224809974431992">
        <ele>1126.7206590000001</ele>
        <time>2026-02-23T20:48:54Z</time>
      </trkpt>
      <trkpt lat="46.008694991469383" lon="12.225060006603599">
        <ele>1130.576051</ele>
        <time>2026-02-23T20:49:21Z</time>
      </trkpt>
      <trkpt lat="46.008849972859025" lon="12.225169977173209">
        <ele>1133.055953</ele>
        <time>2026-02-23T20:49:39Z</time>
      </trkpt>
      <trkpt lat="46.008949968963861" lon="12.225269973278046">
        <ele>1134.2116430000001</ele>
        <time>2026-02-23T20:49:51Z</time>
      </trkpt>
      <trkpt lat="46.009120037779212" lon="12.225359994918108">
        <ele>1135.2812939999999</ele>
        <time>2026-02-23T20:50:09Z</time>
      </trkpt>
      <trkpt lat="46.009279964491725" lon="12.225580019876361">
        <ele>1136.587833</ele>
        <time>2026-02-23T20:50:31Z</time>
      </trkpt>
      <trkpt lat="46.009399993345141" lon="12.225640034303069">
        <ele>1137.3380070000001</ele>
        <time>2026-02-23T20:50:44Z</time>
      </trkpt>
      <trkpt lat="46.009580036625266" lon="12.225670041516423">
        <ele>1138.408095</ele>
        <time>2026-02-23T20:51:02Z</time>
      </trkpt>
      <trkpt lat="46.009720014408231" lon="12.225659983232617">
        <ele>1139.2358810000001</ele>
        <time>2026-02-23T20:51:16Z</time>
      </trkpt>
      <trkpt lat="46.009865021333098" lon="12.225550012663007">
        <ele>1140.2037660000001</ele>
        <time>2026-02-23T20:51:33Z</time>
      </trkpt>
      <trkpt lat="46.010010028257966" lon="12.225439958274364">
        <ele>1141.1716510000001</ele>
        <time>2026-02-23T20:51:49Z</time>
      </trkpt>
      <trkpt lat="46.01021496579051" lon="12.2252999804914">
        <ele>1142.511555</ele>
        <time>2026-02-23T20:52:12Z</time>
      </trkpt>
      <trkpt lat="46.010419987142086" lon="12.225160002708435">
        <ele>1143.8514580000001</ele>
        <time>2026-02-23T20:52:35Z</time>
      </trkpt>
      <trkpt lat="46.01044999435544" lon="12.225109962746501">
        <ele>1144.1224629999999</ele>
        <time>2026-02-23T20:52:39Z</time>
      </trkpt>
      <trkpt lat="46.010625008493662" lon="12.224939977750182">
        <ele>1143.059315</ele>
        <time>2026-02-23T20:53:00Z</time>
      </trkpt>
      <trkpt lat="46.010800022631884" lon="12.224769992753863">
        <ele>1141.2725350000001</ele>
        <time>2026-02-23T20:53:21Z</time>
      </trkpt>
      <trkpt lat="46.010970007628202" lon="12.224649963900447">
        <ele>1139.670055</ele>
        <time>2026-02-23T20:53:40Z</time>
      </trkpt>
      <trkpt lat="46.011179974302649" lon="12.224579975008965">
        <ele>1137.8456180000001</ele>
        <time>2026-02-23T20:54:02Z</time>
      </trkpt>
      <trkpt lat="46.011390024796128" lon="12.224509986117482">
        <ele>1136.0211830000001</ele>
        <time>2026-02-23T20:54:24Z</time>
      </trkpt>
      <trkpt lat="46.011609965935349" lon="12.224609982222319">
        <ele>1134.068534</ele>
        <time>2026-02-23T20:54:47Z</time>
      </trkpt>
      <trkpt lat="46.011690013110638" lon="12.224690029397607">
        <ele>1133.2441349999999</ele>
        <time>2026-02-23T20:54:57Z</time>
      </trkpt>
      <trkpt lat="46.011809958145022" lon="12.224850039929152">
        <ele>1131.859872</ele>
        <time>2026-02-23T20:55:13Z</time>
      </trkpt>
      <trkpt lat="46.011920012533665" lon="12.225069981068373">
        <ele>1130.2663700000001</ele>
        <time>2026-02-23T20:55:32Z</time>
      </trkpt>
      <trkpt lat="46.011914983391762" lon="12.225306015461683">
        <ele>1128.9335349999999</ele>
        <time>2026-02-23T20:55:49Z</time>
      </trkpt>
      <trkpt lat="46.011910960078239" lon="12.225540960207582">
        <ele>1127.79123</ele>
        <time>2026-02-23T20:56:05Z</time>
      </trkpt>
      <trkpt lat="46.011934010311961" lon="12.225915966555476">
        <ele>1125.9618579999999</ele>
        <time>2026-02-23T20:56:32Z</time>
      </trkpt>
      <trkpt lat="46.012089997529984" lon="12.226377977058291">
        <ele>1123.4655339999999</ele>
        <time>2026-02-23T20:57:08Z</time>
      </trkpt>
      <trkpt lat="46.012485036626458" lon="12.226849962025881">
        <ele>1119.8739889999999</ele>
        <time>2026-02-23T20:57:59Z</time>
      </trkpt>
      <trkpt lat="46.012902036309242" lon="12.227042997255921">
        <ele>1116.809254</ele>
        <time>2026-02-23T20:58:43Z</time>
      </trkpt>
      <trkpt lat="46.012893989682198" lon="12.227242989465594">
        <ele>1117.3805930000001</ele>
        <time>2026-02-23T20:58:57Z</time>
      </trkpt>
      <trkpt lat="46.013009995222092" lon="12.227252963930368">
        <ele>1118.1871249999999</ele>
        <time>2026-02-23T20:59:11Z</time>
      </trkpt>
      <trkpt lat="46.013146033510566" lon="12.227226980030537">
        <ele>1119.139306</ele>
        <time>2026-02-23T20:59:29Z</time>
      </trkpt>
      <trkpt lat="46.01326597854495" lon="12.227282971143723">
        <ele>1120.014807</ele>
        <time>2026-02-23T20:59:45Z</time>
      </trkpt>
      <trkpt lat="46.013364968821406" lon="12.22716897726059">
        <ele>1120.8946060000001</ele>
        <time>2026-02-23T21:00:01Z</time>
      </trkpt>
      <trkpt lat="46.013423977419734" lon="12.226964961737394">
        <ele>1121.9597550000001</ele>
        <time>2026-02-23T21:00:21Z</time>
      </trkpt>
      <trkpt lat="46.01380099542439" lon="12.227002009749413">
        <ele>1124.582367</ele>
        <time>2026-02-23T21:01:09Z</time>
      </trkpt>
      <trkpt lat="46.014258982613683" lon="12.226722976192832">
        <ele>1128.033842</ele>
        <time>2026-02-23T21:02:13Z</time>
      </trkpt>
      <trkpt lat="46.014547990635037" lon="12.226429022848606">
        <ele>1130.8315849999999</ele>
        <time>2026-02-23T21:02:56Z</time>
      </trkpt>
      <trkpt lat="46.015045959502459" lon="12.226448971778154">
        <ele>1135.136636</ele>
        <time>2026-02-23T21:04:03Z</time>
      </trkpt>
      <trkpt lat="46.015045959502459" lon="12.226448971778154">
        <ele>1135.136636</ele>
        <time>2026-02-23T21:04:03Z</time>
      </trkpt>
      <trkpt lat="46.015046965330839" lon="12.226423993706703">
        <ele>1135.286912</ele>
        <time>2026-02-23T21:04:05Z</time>
      </trkpt>
      <trkpt lat="46.01526296697557" lon="12.226442014798522">
        <ele>1137.1565599999999</ele>
        <time>2026-02-23T21:04:27Z</time>
      </trkpt>
      <trkpt lat="46.01526397280395" lon="12.226457018405199">
        <ele>1137.246991</ele>
        <time>2026-02-23T21:04:28Z</time>
      </trkpt>
      <trkpt lat="46.015264978632331" lon="12.226471016183496">
        <ele>1137.3314499999999</ele>
        <time>2026-02-23T21:04:29Z</time>
      </trkpt>
      <trkpt lat="46.015265984460711" lon="12.226486019790173">
        <ele>1137.4218800000001</ele>
        <time>2026-02-23T21:04:30Z</time>
      </trkpt>
      <trkpt lat="46.015266990289092" lon="12.22650102339685">
        <ele>1137.512311</ele>
        <time>2026-02-23T21:04:31Z</time>
      </trkpt>
      <trkpt lat="46.015267996117473" lon="12.226515021175146">
        <ele>1137.596769</ele>
        <time>2026-02-23T21:04:32Z</time>
      </trkpt>
      <trkpt lat="46.015269001945853" lon="12.226530024781823">
        <ele>1137.6872000000001</ele>
        <time>2026-02-23T21:04:33Z</time>
      </trkpt>
      <trkpt lat="46.015270007774234" lon="12.2265450283885">
        <ele>1137.77763</ele>
        <time>2026-02-23T21:04:34Z</time>
      </trkpt>
      <trkpt lat="46.015271013602614" lon="12.226560031995177">
        <ele>1137.8680609999999</ele>
        <time>2026-02-23T21:04:35Z</time>
      </trkpt>
      <trkpt lat="46.015272019430995" lon="12.226574029773474">
        <ele>1137.9525189999999</ele>
        <time>2026-02-23T21:04:36Z</time>
      </trkpt>
      <trkpt lat="46.015274031087756" lon="12.226589033380151">
        <ele>1138.0441800000001</ele>
        <time>2026-02-23T21:04:37Z</time>
      </trkpt>
      <trkpt lat="46.015184009447694" lon="12.226740997284651">
        <ele>1139.2428870000001</ele>
        <time>2026-02-23T21:04:51Z</time>
      </trkpt>
      <trkpt lat="46.0151750408113" lon="12.226773016154766">
        <ele>1139.4500740000001</ele>
        <time>2026-02-23T21:04:53Z</time>
      </trkpt>
      <trkpt lat="46.015165988355875" lon="12.226804029196501">
        <ele>1139.6517100000001</ele>
        <time>2026-02-23T21:04:56Z</time>
      </trkpt>
      <trkpt lat="46.015157019719481" lon="12.226835964247584">
        <ele>1139.8588970000001</ele>
        <time>2026-02-23T21:04:58Z</time>
      </trkpt>
      <trkpt lat="46.015147967264056" lon="12.2268679831177">
        <ele>1140.0660829999999</ele>
        <time>2026-02-23T21:05:00Z</time>
      </trkpt>
      <trkpt lat="46.015137992799282" lon="12.226900001987815">
        <ele>1140.276666</ele>
        <time>2026-02-23T21:05:03Z</time>
      </trkpt>
      <trkpt lat="46.015129024162889" lon="12.22693202085793">
        <ele>1140.4838520000001</ele>
        <time>2026-02-23T21:05:05Z</time>
      </trkpt>
      <trkpt lat="46.015119971707463" lon="12.226964039728045">
        <ele>1140.691039</ele>
        <time>2026-02-23T21:05:08Z</time>
      </trkpt>
      <trkpt lat="46.01511100307107" lon="12.226995974779129">
        <ele>1140.8982249999999</ele>
        <time>2026-02-23T21:05:10Z</time>
      </trkpt>
      <trkpt lat="46.015102034434676" lon="12.227026987820864">
        <ele>1141.099862</ele>
        <time>2026-02-23T21:05:12Z</time>
      </trkpt>
      <trkpt lat="46.01509197615087" lon="12.227059006690979">
        <ele>1141.3104450000001</ele>
        <time>2026-02-23T21:05:15Z</time>
      </trkpt>
      <trkpt lat="46.015002960339189" lon="12.227279031649232">
        <ele>1142.838364</ele>
        <time>2026-02-23T21:05:33Z</time>
      </trkpt>
      <trkpt lat="46.014895001426339" lon="12.227451028302312">
        <ele>1144.2299129999999</ele>
        <time>2026-02-23T21:05:49Z</time>
      </trkpt>
      <trkpt lat="46.014786958694458" lon="12.227622019127011">
        <ele>1144.4282920000001</ele>
        <time>2026-02-23T21:06:05Z</time>
      </trkpt>
      <trkpt lat="46.014585960656404" lon="12.227880014106631">
        <ele>1143.9318390000001</ele>
        <time>2026-02-23T21:06:32Z</time>
      </trkpt>
      <trkpt lat="46.014422010630369" lon="12.228034995496273">
        <ele>1143.5701529999999</ele>
        <time>2026-02-23T21:06:51Z</time>
      </trkpt>
      <trkpt lat="46.014257976785302" lon="12.228190982714295">
        <ele>1143.207762</ele>
        <time>2026-02-23T21:07:11Z</time>
      </trkpt>
      <trkpt lat="46.014005010947585" lon="12.228373037651181">
        <ele>1142.6863269999999</ele>
        <time>2026-02-23T21:07:39Z</time>
      </trkpt>
      <trkpt lat="46.013848017901182" lon="12.228470016270876">
        <ele>1142.371341</ele>
        <time>2026-02-23T21:07:57Z</time>
      </trkpt>
      <trkpt lat="46.013737041503191" lon="12.228674031794071">
        <ele>1142.039507</ele>
        <time>2026-02-23T21:08:15Z</time>
      </trkpt>
      <trkpt lat="46.013852041214705" lon="12.228873018175364">
        <ele>1141.7080209999999</ele>
        <time>2026-02-23T21:08:33Z</time>
      </trkpt>
      <trkpt lat="46.013967040926218" lon="12.229070998728275">
        <ele>1141.3775189999999</ele>
        <time>2026-02-23T21:08:51Z</time>
      </trkpt>
      <trkpt lat="46.013967962935567" lon="12.229069992899895">
        <ele>1141.375274</ele>
        <time>2026-02-23T21:08:51Z</time>
      </trkpt>
      <trkpt lat="46.014729039743543" lon="12.229871973395348">
        <ele>1142.6319169999999</ele>
        <time>2026-02-23T21:10:28Z</time>
      </trkpt>
      <trkpt lat="46.014870023354888" lon="12.230144971981645">
        <ele>1142.9708889999999</ele>
        <time>2026-02-23T21:10:57Z</time>
      </trkpt>
      <trkpt lat="46.015323987230659" lon="12.230769004672766">
        <ele>1143.8713029999999</ele>
        <time>2026-02-23T21:12:07Z</time>
      </trkpt>
      <trkpt lat="46.015591034665704" lon="12.230858020484447">
        <ele>1144.5426239999999</ele>
        <time>2026-02-23T21:12:36Z</time>
      </trkpt>
      <trkpt lat="46.015811981633306" lon="12.231221962720156">
        <ele>1145.3934879999999</ele>
        <time>2026-02-23T21:13:10Z</time>
      </trkpt>
      <trkpt lat="46.016068970784545" lon="12.23176502622664">
        <ele>1146.5498909999999</ele>
        <time>2026-02-23T21:13:58Z</time>
      </trkpt>
      <trkpt lat="46.016427967697382" lon="12.232355028390884">
        <ele>1147.9303440000001</ele>
        <time>2026-02-23T21:14:58Z</time>
      </trkpt>
      <trkpt lat="46.016776990145445" lon="12.232851991429925">
        <ele>1149.548871</ele>
        <time>2026-02-23T21:15:56Z</time>
      </trkpt>
      <trkpt lat="46.017623981460929" lon="12.233612984418869">
        <ele>1153.4050580000001</ele>
        <time>2026-02-23T21:17:52Z</time>
      </trkpt>
      <trkpt lat="46.017869990319014" lon="12.234161999076605">
        <ele>1155.157598</ele>
        <time>2026-02-23T21:18:41Z</time>
      </trkpt>
      <trkpt lat="46.018017008900642" lon="12.234697015956044">
        <ele>1157.261976</ele>
        <time>2026-02-23T21:19:24Z</time>
      </trkpt>
      <trkpt lat="46.018027989193797" lon="12.234820984303951">
        <ele>1157.742675</ele>
        <time>2026-02-23T21:19:33Z</time>
      </trkpt>
      <trkpt lat="46.018125973641872" lon="12.234960962086916">
        <ele>1158.507075</ele>
        <time>2026-02-23T21:19:48Z</time>
      </trkpt>
      <trkpt lat="46.018338035792112" lon="12.235251981765032">
        <ele>1160.128886</ele>
        <time>2026-02-23T21:20:22Z</time>
      </trkpt>
      <trkpt lat="46.018877997994423" lon="12.235602010041475">
        <ele>1163.4080120000001</ele>
        <time>2026-02-23T21:21:34Z</time>
      </trkpt>
      <trkpt lat="46.019331961870193" lon="12.235645009204745">
        <ele>1166.7427479999999</ele>
        <time>2026-02-23T21:22:32Z</time>
      </trkpt>
      <trkpt lat="46.019423995167017" lon="12.235622964799404">
        <ele>1168.0100399999999</ele>
        <time>2026-02-23T21:22:45Z</time>
      </trkpt>
      <trkpt lat="46.01951502263546" lon="12.235649032518268">
        <ele>1169.270728</ele>
        <time>2026-02-23T21:22:58Z</time>
      </trkpt>
      <trkpt lat="46.019652988761663" lon="12.235878026112914">
        <ele>1172.131864</ele>
        <time>2026-02-23T21:23:28Z</time>
      </trkpt>
      <trkpt lat="46.019846023991704" lon="12.236126968637109">
        <ele>1175.6530829999999</ele>
        <time>2026-02-23T21:24:07Z</time>
      </trkpt>
      <trkpt lat="46.020122040063143" lon="12.236370965838432">
        <ele>1180.053944</ele>
        <time>2026-02-23T21:24:58Z</time>
      </trkpt>
      <trkpt lat="46.020491011440754" lon="12.236513961106539">
        <ele>1185.246613</ele>
        <time>2026-02-23T21:25:58Z</time>
      </trkpt>
      <trkpt lat="46.02099996060133" lon="12.236916041001678">
        <ele>1195.044924</ele>
        <time>2026-02-23T21:27:43Z</time>
      </trkpt>
      <trkpt lat="46.021463982760906" lon="12.237076973542571">
        <ele>1205.253303</ele>
        <time>2026-02-23T21:29:21Z</time>
      </trkpt>
      <trkpt lat="46.021909983828664" lon="12.237022994086146">
        <ele>1214.8263320000001</ele>
        <time>2026-02-23T21:30:56Z</time>
      </trkpt>
      <trkpt lat="46.022205026820302" lon="12.237406969070435">
        <ele>1223.3315</ele>
        <time>2026-02-23T21:32:22Z</time>
      </trkpt>
      <trkpt lat="46.022865017876029" lon="12.238165028393269">
        <ele>1241.3959159999999</ele>
        <time>2026-02-23T21:35:34Z</time>
      </trkpt>
      <trkpt lat="46.023814016953111" lon="12.238660985603929">
        <ele>1263.0033370000001</ele>
        <time>2026-02-23T21:39:09Z</time>
      </trkpt>
      <trkpt lat="46.024078968912363" lon="12.239467995241284">
        <ele>1269.703581</ele>
        <time>2026-02-23T21:40:49Z</time>
      </trkpt>
      <trkpt lat="46.024115011096001" lon="12.240004017949104">
        <ele>1272.1720640000001</ele>
        <time>2026-02-23T21:41:37Z</time>
      </trkpt>
      <trkpt lat="46.024302011355758" lon="12.240825025364757">
        <ele>1276.1328189999999</ele>
        <time>2026-02-23T21:42:44Z</time>
      </trkpt>
      <trkpt lat="46.02432900108397" lon="12.241538995876908">
        <ele>1278.4858019999999</ele>
        <time>2026-02-23T21:43:35Z</time>
      </trkpt>
      <trkpt lat="46.024534022435546" lon="12.241986002773046">
        <ele>1277.9594549999999</ele>
        <time>2026-02-23T21:44:14Z</time>
      </trkpt>
      <trkpt lat="46.024677017703652" lon="12.242450024932623">
        <ele>1277.4606690000001</ele>
        <time>2026-02-23T21:44:51Z</time>
      </trkpt>
      <trkpt lat="46.02465002797544" lon="12.24326197989285">
        <ele>1276.6619370000001</ele>
        <time>2026-02-23T21:45:50Z</time>
      </trkpt>
      <trkpt lat="46.024658996611834" lon="12.243860028684139">
        <ele>1276.1619310000001</ele>
        <time>2026-02-23T21:46:33Z</time>
      </trkpt>
      <trkpt lat="46.024775002151728" lon="12.24431499838829">
        <ele>1277.0947329999999</ele>
        <time>2026-02-23T21:47:07Z</time>
      </trkpt>
      <trkpt lat="46.024838034063578" lon="12.244708025828004">
        <ele>1277.8709510000001</ele>
        <time>2026-02-23T21:47:36Z</time>
      </trkpt>
      <trkpt lat="46.024749018251896" lon="12.245376985520124">
        <ele>1279.1818510000001</ele>
        <time>2026-02-23T21:48:30Z</time>
      </trkpt>
      <trkpt lat="46.024749018251896" lon="12.245921976864338">
        <ele>1280.230697</ele>
        <time>2026-02-23T21:49:14Z</time>
      </trkpt>
      <trkpt lat="46.024909028783441" lon="12.246163040399551">
        <ele>1280.8723910000001</ele>
        <time>2026-02-23T21:49:41Z</time>
      </trkpt>
      <trkpt lat="46.025222009047866" lon="12.246367977932096">
        <ele>1282.2690640000001</ele>
        <time>2026-02-23T21:50:21Z</time>
      </trkpt>
      <trkpt lat="46.025506993755698" lon="12.246662015095353">
        <ele>1283.826153</ele>
        <time>2026-02-23T21:51:02Z</time>
      </trkpt>
      <trkpt lat="46.026087021455169" lon="12.247126959264278">
        <ele>1286.774555</ele>
        <time>2026-02-23T21:52:18Z</time>
      </trkpt>
      <trkpt lat="46.026418022811413" lon="12.247679997235537">
        <ele>1289.026206</ele>
        <time>2026-02-23T21:53:15Z</time>
      </trkpt>
      <trkpt lat="46.026578033342957" lon="12.247759960591793">
        <ele>1290.057041</ele>
        <time>2026-02-23T21:53:35Z</time>
      </trkpt>
      <trkpt lat="46.026715999469161" lon="12.247920976951718">
        <ele>1291.1595620000001</ele>
        <time>2026-02-23T21:53:56Z</time>
      </trkpt>
      <trkpt lat="46.026899982243776" lon="12.248134966939688">
        <ele>1292.62778</ele>
        <time>2026-02-23T21:54:24Z</time>
      </trkpt>
      <trkpt lat="46.027131993323565" lon="12.248376030474901">
        <ele>1294.403581</ele>
        <time>2026-02-23T21:54:59Z</time>
      </trkpt>
      <trkpt lat="46.027443967759609" lon="12.249239031225443">
        <ele>1298.597473</ele>
        <time>2026-02-23T21:56:24Z</time>
      </trkpt>
      <trkpt lat="46.027565002441406" lon="12.249427037313581">
        <ele>1299.702423</ele>
        <time>2026-02-23T21:56:46Z</time>
      </trkpt>
      <trkpt lat="46.027715038508177" lon="12.249436005949974">
        <ele>1300.4370289999999</ele>
        <time>2026-02-23T21:57:05Z</time>
      </trkpt>
      <trkpt lat="46.027821991592646" lon="12.249561985954642">
        <ele>1300.86114</ele>
        <time>2026-02-23T21:57:22Z</time>
      </trkpt>
      <trkpt lat="46.027844035997987" lon="12.249678997322917">
        <ele>1301.1193929999999</ele>
        <time>2026-02-23T21:57:32Z</time>
      </trkpt>
      <trkpt lat="46.027848981320858" lon="12.250091973692179">
        <ele>1301.99944</ele>
        <time>2026-02-23T21:58:06Z</time>
      </trkpt>
      <trkpt lat="46.027886029332876" lon="12.250221977010369">
        <ele>1302.2987780000001</ele>
        <time>2026-02-23T21:58:17Z</time>
      </trkpt>
      <trkpt lat="46.02793900296092" lon="12.250293977558613">
        <ele>1302.522342</ele>
        <time>2026-02-23T21:58:25Z</time>
      </trkpt>
      <trkpt lat="46.028114017099142" lon="12.25041601806879">
        <ele>1303.1189420000001</ele>
        <time>2026-02-23T21:58:47Z</time>
      </trkpt>
      <trkpt lat="46.028206972405314" lon="12.250541998073459">
        <ele>1303.5107379999999</ele>
        <time>2026-02-23T21:59:01Z</time>
      </trkpt>
      <trkpt lat="46.028313003480434" lon="12.250776020810008">
        <ele>1304.106006</ele>
        <time>2026-02-23T21:59:21Z</time>
      </trkpt>
      <trkpt lat="46.028321972116828" lon="12.250851038843393">
        <ele>1304.2681640000001</ele>
        <time>2026-02-23T21:59:26Z</time>
      </trkpt>
      <trkpt lat="46.028321972116828" lon="12.25095396861434">
        <ele>1304.4876079999999</ele>
        <time>2026-02-23T21:59:34Z</time>
      </trkpt>
      <trkpt lat="46.028084009885788" lon="12.25172895938158">
        <ele>1305.9624570000001</ele>
        <time>2026-02-23T22:00:33Z</time>
      </trkpt>
      <trkpt lat="46.02800102904439" lon="12.251932974904776">
        <ele>1306.1518020000001</ele>
        <time>2026-02-23T22:00:49Z</time>
      </trkpt>
      <trkpt lat="46.027886029332876" lon="12.252096002921462">
        <ele>1306.3378970000001</ele>
        <time>2026-02-23T22:01:05Z</time>
      </trkpt>
      <trkpt lat="46.027626022696495" lon="12.252316027879715">
        <ele>1306.6856969999999</ele>
        <time>2026-02-23T22:01:37Z</time>
      </trkpt>
      <trkpt lat="46.027536001056433" lon="12.252437984570861">
        <ele>1306.828246</ele>
        <time>2026-02-23T22:01:50Z</time>
      </trkpt>
      <trkpt lat="46.027498031035066" lon="12.252554995939136">
        <ele>1306.931685</ele>
        <time>2026-02-23T22:02:00Z</time>
      </trkpt>
      <trkpt lat="46.027494007721543" lon="12.25269396789372">
        <ele>1307.043093</ele>
        <time>2026-02-23T22:02:10Z</time>
      </trkpt>
      <trkpt lat="46.02753197774291" lon="12.252824977040291">
        <ele>1307.156786</ele>
        <time>2026-02-23T22:02:20Z</time>
      </trkpt>
      <trkpt lat="46.027641026303172" lon="12.253004014492035">
        <ele>1307.3474490000001</ele>
        <time>2026-02-23T22:02:38Z</time>
      </trkpt>
      <trkpt lat="46.027734987437725" lon="12.253107028082013">
        <ele>1307.4836760000001</ele>
        <time>2026-02-23T22:02:51Z</time>
      </trkpt>
      <trkpt lat="46.027691988274455" lon="12.253236025571823">
        <ele>1307.598268</ele>
        <time>2026-02-23T22:03:02Z</time>
      </trkpt>
      <trkpt lat="46.027691988274455" lon="12.253505000844598">
        <ele>1307.8136850000001</ele>
        <time>2026-02-23T22:03:22Z</time>
      </trkpt>
      <trkpt lat="46.027729036286473" lon="12.253808006644249">
        <ele>1308.375532</ele>
        <time>2026-02-23T22:03:44Z</time>
      </trkpt>
      <trkpt lat="46.027784021571279" lon="12.254140013828874">
        <ele>1309.0369679999999</ele>
        <time>2026-02-23T22:04:09Z</time>
      </trkpt>
      <trkpt lat="46.027859039604664" lon="12.254417035728693">
        <ele>1309.613132</ele>
        <time>2026-02-23T22:04:30Z</time>
      </trkpt>
      <trkpt lat="46.027945037931204" lon="12.254517031833529">
        <ele>1309.9216280000001</ele>
        <time>2026-02-23T22:04:41Z</time>
      </trkpt>
      <trkpt lat="46.028079986572266" lon="12.254538992419839">
        <ele>1310.300829</ele>
        <time>2026-02-23T22:04:54Z</time>
      </trkpt>
      <trkpt lat="46.028149975463748" lon="12.254636976867914">
        <ele>1310.573296</ele>
        <time>2026-02-23T22:05:04Z</time>
      </trkpt>
      <trkpt lat="46.028310991823673" lon="12.254754994064569">
        <ele>1311.0774960000001</ele>
        <time>2026-02-23T22:05:23Z</time>
      </trkpt>
      <trkpt lat="46.028544008731842" lon="12.254766980186105">
        <ele>1311.728235</ele>
        <time>2026-02-23T22:05:49Z</time>
      </trkpt>
      <trkpt lat="46.02858399040997" lon="12.254820959642529">
        <ele>1311.8812539999999</ele>
        <time>2026-02-23T22:05:55Z</time>
      </trkpt>
      <trkpt lat="46.028685998171568" lon="12.254866976290941">
        <ele>1312.179574</ele>
        <time>2026-02-23T22:06:07Z</time>
      </trkpt>
      <trkpt lat="46.028871992602944" lon="12.254934031516314">
        <ele>1312.714706</ele>
        <time>2026-02-23T22:06:30Z</time>
      </trkpt>
      <trkpt lat="46.029025968164206" lon="12.255128994584084">
        <ele>1315.3194920000001</ele>
        <time>2026-02-23T22:06:56Z</time>
      </trkpt>
      <trkpt lat="46.029104003682733" lon="12.255178028717637">
        <ele>1316.682319</ele>
        <time>2026-02-23T22:07:07Z</time>
      </trkpt>
      <trkpt lat="46.029318999499083" lon="12.255251035094261">
        <ele>1320.2199439999999</ele>
        <time>2026-02-23T22:07:37Z</time>
      </trkpt>
      <trkpt lat="46.029318999499083" lon="12.255251035094261">
        <ele>1320.2199439999999</ele>
        <time>2026-02-23T22:07:37Z</time>
      </trkpt>
      <trkpt lat="46.029525026679039" lon="12.255384977906942">
        <ele>1323.8399039999999</ele>
        <time>2026-02-23T22:08:11Z</time>
      </trkpt>
      <trkpt lat="46.029671039432287" lon="12.255429988726974">
        <ele>1326.2310460000001</ele>
        <time>2026-02-23T22:08:36Z</time>
      </trkpt>
      <trkpt lat="46.029895003885031" lon="12.255623023957014">
        <ele>1330.411298</ele>
        <time>2026-02-23T22:09:26Z</time>
      </trkpt>
      <trkpt lat="46.030032970011234" lon="12.255833996459842">
        <ele>1333.634448</ele>
        <time>2026-02-23T22:10:09Z</time>
      </trkpt>
      <trkpt lat="46.030097007751465" lon="12.255847994238138">
        <ele>1334.671167</ele>
        <time>2026-02-23T22:10:23Z</time>
      </trkpt>
      <trkpt lat="46.03013196028769" lon="12.255815975368023">
        <ele>1335.335088</ele>
        <time>2026-02-23T22:10:32Z</time>
      </trkpt>
      <trkpt lat="46.0302799846977" lon="12.255368968471885">
        <ele>1340.841502</ele>
        <time>2026-02-23T22:11:47Z</time>
      </trkpt>
      <trkpt lat="46.030298005789518" lon="12.2552490234375">
        <ele>1342.199987</ele>
        <time>2026-02-23T22:12:06Z</time>
      </trkpt>
      <trkpt lat="46.03036698885262" lon="12.254716018214822">
        <ele>1348.155555</ele>
        <time>2026-02-23T22:13:24Z</time>
      </trkpt>
      <trkpt lat="46.030347039923072" lon="12.254475960507989">
        <ele>1350.8107210000001</ele>
        <time>2026-02-23T22:13:57Z</time>
      </trkpt>
      <trkpt lat="46.030370006337762" lon="12.253881013020873">
        <ele>1357.356532</ele>
        <time>2026-02-23T22:15:11Z</time>
      </trkpt>
      <trkpt lat="46.030995966866612" lon="12.253645984455943">
        <ele>1367.5915070000001</ele>
        <time>2026-02-23T22:16:47Z</time>
      </trkpt>
      <trkpt lat="46.031649000942707" lon="12.25316503085196">
        <ele>1375.437085</ele>
        <time>2026-02-23T22:18:20Z</time>
      </trkpt>
      <trkpt lat="46.032175971195102" lon="12.252936959266663">
        <ele>1380.5375160000001</ele>
        <time>2026-02-23T22:19:29Z</time>
      </trkpt>
      <trkpt lat="46.033071996644139" lon="12.25269396789372">
        <ele>1389.84115</ele>
        <time>2026-02-23T22:21:32Z</time>
      </trkpt>
      <trkpt lat="46.03358899243176" lon="12.252708971500397">
        <ele>1396.494762</ele>
        <time>2026-02-23T22:22:49Z</time>
      </trkpt>
      <trkpt lat="46.033745985478163" lon="12.252794969826937">
        <ele>1398.6560280000001</ele>
        <time>2026-02-23T22:23:14Z</time>
      </trkpt>
      <trkpt lat="46.033908007666469" lon="12.252981970086694">
        <ele>1401.327223</ele>
        <time>2026-02-23T22:23:45Z</time>
      </trkpt>
      <trkpt lat="46.034095007926226" lon="12.25331699475646">
        <ele>1405.1670529999999</ele>
        <time>2026-02-23T22:24:31Z</time>
      </trkpt>
      <trkpt lat="46.034283014014363" lon="12.253771964460611">
        <ele>1409.8968170000001</ele>
        <time>2026-02-23T22:25:29Z</time>
      </trkpt>
      <trkpt lat="46.034408994019032" lon="12.253995006904006">
        <ele>1412.6061030000001</ele>
        <time>2026-02-23T22:26:02Z</time>
      </trkpt>
      <trkpt lat="46.034830017015338" lon="12.254303963854909">
        <ele>1419.0245050000001</ele>
        <time>2026-02-23T22:27:23Z</time>
      </trkpt>
      <trkpt lat="46.035290015861392" lon="12.254394991323352">
        <ele>1425.331739</ele>
        <time>2026-02-23T22:28:45Z</time>
      </trkpt>
      <trkpt lat="46.035538958385587" lon="12.254582997411489">
        <ele>1429.1505830000001</ele>
        <time>2026-02-23T22:29:32Z</time>
      </trkpt>
      <trkpt lat="46.03580198250711" lon="12.254880974069238">
        <ele>1433.6959300000001</ele>
        <time>2026-02-23T22:30:20Z</time>
      </trkpt>
      <trkpt lat="46.036019995808601" lon="12.255022963508964">
        <ele>1433.8026769999999</ele>
        <time>2026-02-23T22:30:50Z</time>
      </trkpt>
      <trkpt lat="46.036304980516434" lon="12.255075015127659">
        <ele>1432.9469529999999</ele>
        <time>2026-02-23T22:31:23Z</time>
      </trkpt>
      <trkpt lat="46.036593988537788" lon="12.256592977792025">
        <ele>1429.692063</ele>
        <time>2026-02-23T22:33:26Z</time>
      </trkpt>
      <trkpt lat="46.036774031817913" lon="12.25712195970118">
        <ele>1427.955269</ele>
        <time>2026-02-23T22:34:17Z</time>
      </trkpt>
      <trkpt lat="46.036804961040616" lon="12.257536025717854">
        <ele>1426.261861</ele>
        <time>2026-02-23T22:34:51Z</time>
      </trkpt>
      <trkpt lat="46.03679096326232" lon="12.25789301097393">
        <ele>1424.8077109999999</ele>
        <time>2026-02-23T22:35:20Z</time>
      </trkpt>
      <trkpt lat="46.036845026537776" lon="12.25838896818459">
        <ele>1422.76594</ele>
        <time>2026-02-23T22:35:59Z</time>
      </trkpt>
      <trkpt lat="46.036837985739112" lon="12.259091036394238">
        <ele>1419.9107770000001</ele>
        <time>2026-02-23T22:36:52Z</time>
      </trkpt>
      <trkpt lat="46.03691996075213" lon="12.259470988065004">
        <ele>1418.690769</ele>
        <time>2026-02-23T22:37:21Z</time>
      </trkpt>
      <trkpt lat="46.037238975986838" lon="12.259880024939775">
        <ele>1421.6962249999999</ele>
        <time>2026-02-23T22:38:04Z</time>
      </trkpt>
      <trkpt lat="46.037647007033229" lon="12.260314039885998">
        <ele>1425.265592</ele>
        <time>2026-02-23T22:39:04Z</time>
      </trkpt>
      <trkpt lat="46.037784973159432" lon="12.260285038501024">
        <ele>1426.247069</ele>
        <time>2026-02-23T22:39:22Z</time>
      </trkpt>
      <trkpt lat="46.037870971485972" lon="12.260151011869311">
        <ele>1427.1386279999999</ele>
        <time>2026-02-23T22:39:39Z</time>
      </trkpt>
      <trkpt lat="46.038035005331039" lon="12.259971974417567">
        <ele>1428.586681</ele>
        <time>2026-02-23T22:40:08Z</time>
      </trkpt>
      <trkpt lat="46.038127960637212" lon="12.260295012965798">
        <ele>1430.295018</ele>
        <time>2026-02-23T22:40:46Z</time>
      </trkpt>
      <trkpt lat="46.038245977833867" lon="12.260444965213537">
        <ele>1431.779483</ele>
        <time>2026-02-23T22:41:12Z</time>
      </trkpt>
      <trkpt lat="46.03831697255373" lon="12.260588966310024">
        <ele>1433.842944</ele>
        <time>2026-02-23T22:41:34Z</time>
      </trkpt>
      <trkpt lat="46.038782000541687" lon="12.261068997904658">
        <ele>1443.470331</ele>
        <time>2026-02-23T22:43:25Z</time>
      </trkpt>
      <trkpt lat="46.038831034675241" lon="12.261013006791472">
        <ele>1444.5229629999999</ele>
        <time>2026-02-23T22:43:38Z</time>
      </trkpt>
      <trkpt lat="46.03891896083951" lon="12.261102022603154">
        <ele>1446.3324889999999</ele>
        <time>2026-02-23T22:43:59Z</time>
      </trkpt>
      <trkpt lat="46.039056004956365" lon="12.261638967320323">
        <ele>1453.0162319999999</ele>
        <time>2026-02-23T22:45:15Z</time>
      </trkpt>
      <trkpt lat="46.039459006860852" lon="12.262645969167352">
        <ele>1462.5451049999999</ele>
        <time>2026-02-23T22:47:29Z</time>
      </trkpt>
      <trkpt lat="46.039811968803406" lon="12.262889966368675">
        <ele>1463.995684</ele>
        <time>2026-02-23T22:48:19Z</time>
      </trkpt>
      <trkpt lat="46.040028976276517" lon="12.263166988268495">
        <ele>1465.0698520000001</ele>
        <time>2026-02-23T22:48:53Z</time>
      </trkpt>
      <trkpt lat="46.040042974054813" lon="12.263444010168314">
        <ele>1465.7841169999999</ele>
        <time>2026-02-23T22:49:13Z</time>
      </trkpt>
      <trkpt lat="46.040141964331269" lon="12.263849023729563">
        <ele>1466.888375</ele>
        <time>2026-02-23T22:49:44Z</time>
      </trkpt>
      <trkpt lat="46.040195021778345" lon="12.264356967061758">
        <ele>1467.7390640000001</ele>
        <time>2026-02-23T22:50:24Z</time>
      </trkpt>
      <trkpt lat="46.040602969005704" lon="12.265588017180562">
        <ele>1459.785271</ele>
        <time>2026-02-23T22:52:17Z</time>
      </trkpt>
      <trkpt lat="46.040802961215377" lon="12.265942990779877">
        <ele>1457.1194379999999</ele>
        <time>2026-02-23T22:52:55Z</time>
      </trkpt>
      <trkpt lat="46.041070008650422" lon="12.266258988529444">
        <ele>1454.216921</ele>
        <time>2026-02-23T22:53:35Z</time>
      </trkpt>
      <trkpt lat="46.0413249861449" lon="12.266924008727074">
        <ele>1448.7288840000001</ele>
        <time>2026-02-23T22:54:36Z</time>
      </trkpt>
      <trkpt lat="46.041422970592976" lon="12.267246041446924">
        <ele>1445.9944740000001</ele>
        <time>2026-02-23T22:55:04Z</time>
      </trkpt>
      <trkpt lat="46.041824966669083" lon="12.268280033022165">
        <ele>1436.7773990000001</ele>
        <time>2026-02-23T22:56:43Z</time>
      </trkpt>
      <trkpt lat="46.041995035484433" lon="12.268626959994435">
        <ele>1433.4742550000001</ele>
        <time>2026-02-23T22:57:22Z</time>
      </trkpt>
      <trkpt lat="46.042038034647703" lon="12.268848996609449">
        <ele>1431.3227529999999</ele>
        <time>2026-02-23T22:57:43Z</time>
      </trkpt>
      <trkpt lat="46.042025964707136" lon="12.269153008237481">
        <ele>1428.1978260000001</ele>
        <time>2026-02-23T22:58:13Z</time>
      </trkpt>
      <trkpt lat="46.042106011882424" lon="12.270098989829421">
        <ele>1418.417451</ele>
        <time>2026-02-23T22:59:46Z</time>
      </trkpt>
      <trkpt lat="46.042035017162561" lon="12.270615985617042">
        <ele>1413.008748</ele>
        <time>2026-02-23T23:00:36Z</time>
      </trkpt>
      <trkpt lat="46.042065024375916" lon="12.270679017528892">
        <ele>1412.2246740000001</ele>
        <time>2026-02-23T23:00:42Z</time>
      </trkpt>
      <trkpt lat="46.042164014652371" lon="12.270728973671794">
        <ele>1410.6736100000001</ele>
        <time>2026-02-23T23:00:55Z</time>
      </trkpt>
      <trkpt lat="46.042210031300783" lon="12.270717993378639">
        <ele>1409.9841899999999</ele>
        <time>2026-02-23T23:01:01Z</time>
      </trkpt>
      <trkpt lat="46.042282031849027" lon="12.270629983395338">
        <ele>1408.5881790000001</ele>
        <time>2026-02-23T23:01:13Z</time>
      </trkpt>
      <trkpt lat="46.042315978556871" lon="12.27063400670886">
        <ele>1408.083813</ele>
        <time>2026-02-23T23:01:17Z</time>
      </trkpt>
      <trkpt lat="46.042314972728491" lon="12.270809020847082">
        <ele>1406.2877739999999</ele>
        <time>2026-02-23T23:01:31Z</time>
      </trkpt>
      <trkpt lat="46.042266022413969" lon="12.270974982529879">
        <ele>1405.9258110000001</ele>
        <time>2026-02-23T23:01:45Z</time>
      </trkpt>
      <trkpt lat="46.042193016037345" lon="12.271095011383295">
        <ele>1405.661889</ele>
        <time>2026-02-23T23:01:57Z</time>
      </trkpt>
      <trkpt lat="46.042128978297114" lon="12.271200036630034">
        <ele>1405.4307610000001</ele>
        <time>2026-02-23T23:02:08Z</time>
      </trkpt>
      <trkpt lat="46.042443970218301" lon="12.271598009392619">
        <ele>1404.432372</ele>
        <time>2026-02-23T23:02:51Z</time>
      </trkpt>
      <trkpt lat="46.042818976566195" lon="12.271847035735846">
        <ele>1403.448445</ele>
        <time>2026-02-23T23:03:33Z</time>
      </trkpt>
      <trkpt lat="46.043491959571838" lon="12.272572992369533">
        <ele>1401.016134</ele>
        <time>2026-02-23T23:04:59Z</time>
      </trkpt>
      <trkpt lat="46.043847016990185" lon="12.272850014269352">
        <ele>1399.196279</ele>
        <time>2026-02-23T23:05:42Z</time>
      </trkpt>
      <trkpt lat="46.044061006978154" lon="12.272852025926113">
        <ele>1398.2316149999999</ele>
        <time>2026-02-23T23:06:06Z</time>
      </trkpt>
      <trkpt lat="46.04422596283257" lon="12.272755969315767">
        <ele>1397.4294870000001</ele>
        <time>2026-02-23T23:06:25Z</time>
      </trkpt>
      <trkpt lat="46.044612033292651" lon="12.273144973441958">
        <ele>1395.306092</ele>
        <time>2026-02-23T23:07:19Z</time>
      </trkpt>
      <trkpt lat="46.044711023569107" lon="12.273213034495711">
        <ele>1394.8117099999999</ele>
        <time>2026-02-23T23:07:31Z</time>
      </trkpt>
      <trkpt lat="46.044966001063585" lon="12.273286040872335">
        <ele>1393.5185610000001</ele>
        <time>2026-02-23T23:08:01Z</time>
      </trkpt>
      <trkpt lat="46.045373026281595" lon="12.273072972893715">
        <ele>1390.241086</ele>
        <time>2026-02-23T23:08:50Z</time>
      </trkpt>
      <trkpt lat="46.045514009892941" lon="12.273161988705397">
        <ele>1389.075945</ele>
        <time>2026-02-23T23:09:08Z</time>
      </trkpt>
      <trkpt lat="46.046232003718615" lon="12.273919964209199">
        <ele>1382.338702</ele>
        <time>2026-02-23T23:10:51Z</time>
      </trkpt>
      <trkpt lat="46.046789987012744" lon="12.273786021396518">
        <ele>1379.09276</ele>
        <time>2026-02-23T23:11:57Z</time>
      </trkpt>
      <trkpt lat="46.046955026686192" lon="12.273715026676655">
        <ele>1378.4179999999999</ele>
        <time>2026-02-23T23:12:16Z</time>
      </trkpt>
      <trkpt lat="46.047072960063815" lon="12.273615030571818">
        <ele>1377.881572</ele>
        <time>2026-02-23T23:12:32Z</time>
      </trkpt>
      <trkpt lat="46.047398010268807" lon="12.273155031725764">
        <ele>1376.096393</ele>
        <time>2026-02-23T23:13:22Z</time>
      </trkpt>
      <trkpt lat="46.047595990821719" lon="12.273015975952148">
        <ele>1375.2333470000001</ele>
        <time>2026-02-23T23:13:46Z</time>
      </trkpt>
      <trkpt lat="46.048107035458088" lon="12.272788994014263">
        <ele>1373.1289220000001</ele>
        <time>2026-02-23T23:14:40Z</time>
      </trkpt>
      <trkpt lat="46.048238966614008" lon="12.272777007892728">
        <ele>1372.3582309999999</ele>
        <time>2026-02-23T23:14:54Z</time>
      </trkpt>
      <trkpt lat="46.048438958823681" lon="12.272837022319436">
        <ele>1371.167841</ele>
        <time>2026-02-23T23:15:16Z</time>
      </trkpt>
      <trkpt lat="46.04852001182735" lon="12.272918997332454">
        <ele>1370.5909999999999</ele>
        <time>2026-02-23T23:15:26Z</time>
      </trkpt>
      <trkpt lat="46.048656972125173" lon="12.273156037554145">
        <ele>1369.3436200000001</ele>
        <time>2026-02-23T23:15:47Z</time>
      </trkpt>
      <trkpt lat="46.048967018723488" lon="12.273862967267632">
        <ele>1365.961577</ele>
        <time>2026-02-23T23:16:52Z</time>
      </trkpt>
      <trkpt lat="46.049046982079744" lon="12.273961035534739">
        <ele>1365.3497110000001</ele>
        <time>2026-02-23T23:17:04Z</time>
      </trkpt>
      <trkpt lat="46.04910003952682" lon="12.27394200861454">
        <ele>1365.031465</ele>
        <time>2026-02-23T23:17:11Z</time>
      </trkpt>
      <trkpt lat="46.04914496652782" lon="12.273869002237916">
        <ele>1364.636606</ele>
        <time>2026-02-23T23:17:19Z</time>
      </trkpt>
      <trkpt lat="46.049283016473055" lon="12.273558033630252">
        <ele>1363.143787</ele>
        <time>2026-02-23T23:17:51Z</time>
      </trkpt>
      <trkpt lat="46.049647964537144" lon="12.273052018135786">
        <ele>1356.510986</ele>
        <time>2026-02-23T23:18:57Z</time>
      </trkpt>
      <trkpt lat="46.049736980348825" lon="12.272968031466007">
        <ele>1354.972115</ele>
        <time>2026-02-23T23:19:11Z</time>
      </trkpt>
      <trkpt lat="46.049965973943472" lon="12.272911034524441">
        <ele>1351.6108369999999</ele>
        <time>2026-02-23T23:19:43Z</time>
      </trkpt>
      <trkpt lat="46.050249030813575" lon="12.272921008989215">
        <ele>1347.516339</ele>
        <time>2026-02-23T23:20:23Z</time>
      </trkpt>
      <trkpt lat="46.050331005826592" lon="12.272883960977197">
        <ele>1346.273508</ele>
        <time>2026-02-23T23:20:34Z</time>
      </trkpt>
      <trkpt lat="46.050364030525088" lon="12.272805003449321">
        <ele>1345.3479219999999</ele>
        <time>2026-02-23T23:20:43Z</time>
      </trkpt>
      <trkpt lat="46.050394959747791" lon="12.272472996264696">
        <ele>1341.9851880000001</ele>
        <time>2026-02-23T23:21:13Z</time>
      </trkpt>
      <trkpt lat="46.050466960296035" lon="12.272254982963204">
        <ele>1339.5616889999999</ele>
        <time>2026-02-23T23:21:34Z</time>
      </trkpt>
      <trkpt lat="46.050800979137421" lon="12.271647965535522">
        <ele>1337.837207</ele>
        <time>2026-02-23T23:22:39Z</time>
      </trkpt>
      <trkpt lat="46.050959983840585" lon="12.27112703025341">
        <ele>1339.2159449999999</ele>
        <time>2026-02-23T23:23:20Z</time>
      </trkpt>
      <trkpt lat="46.05101496912539" lon="12.27086802944541">
        <ele>1339.872075</ele>
        <time>2026-02-23T23:23:41Z</time>
      </trkpt>
      <trkpt lat="46.051133992150426" lon="12.270680023357272">
        <ele>1340.488468</ele>
        <time>2026-02-23T23:24:01Z</time>
      </trkpt>
      <trkpt lat="46.051180008798838" lon="12.270740959793329">
        <ele>1340.7066789999999</ele>
        <time>2026-02-23T23:24:07Z</time>
      </trkpt>
      <trkpt lat="46.051285034045577" lon="12.271042037755251">
        <ele>1341.5227629999999</ele>
        <time>2026-02-23T23:24:31Z</time>
      </trkpt>
      <trkpt lat="46.051388969644904" lon="12.271343031898141">
        <ele>1342.3372850000001</ele>
        <time>2026-02-23T23:24:54Z</time>
      </trkpt>
      <trkpt lat="46.051492989063263" lon="12.27164302021265">
        <ele>1344.216555</ele>
        <time>2026-02-23T23:25:18Z</time>
      </trkpt>
      <trkpt lat="46.051709996536374" lon="12.27190101519227">
        <ele>1350.169999</ele>
        <time>2026-02-23T23:25:46Z</time>
      </trkpt>
      <trkpt lat="46.051928009837866" lon="12.27215800434351">
        <ele>1356.130461</ele>
        <time>2026-02-23T23:26:15Z</time>
      </trkpt>
      <trkpt lat="46.052146023139358" lon="12.27241599932313">
        <ele>1362.100224</ele>
        <time>2026-02-23T23:26:44Z</time>
      </trkpt>
      <trkpt lat="46.052363030612469" lon="12.272672988474369">
        <ele>1368.0443029999999</ele>
        <time>2026-02-23T23:27:13Z</time>
      </trkpt>
      <trkpt lat="46.05258003808558" lon="12.272929977625608">
        <ele>1373.988374</ele>
        <time>2026-02-23T23:27:42Z</time>
      </trkpt>
      <trkpt lat="46.052782963961363" lon="12.273187972605228">
        <ele>1379.7163619999999</ele>
        <time>2026-02-23T23:28:09Z</time>
      </trkpt>
      <trkpt lat="46.052986979484558" lon="12.273445967584848">
        <ele>1384.340242</ele>
        <time>2026-02-23T23:28:37Z</time>
      </trkpt>
      <trkpt lat="46.053189989179373" lon="12.27370304055512">
        <ele>1388.6224090000001</ele>
        <time>2026-02-23T23:29:04Z</time>
      </trkpt>
      <trkpt lat="46.053160987794399" lon="12.27374603971839">
        <ele>1389.281821</ele>
        <time>2026-02-23T23:29:08Z</time>
      </trkpt>
      <trkpt lat="46.053403979167342" lon="12.273889034986496">
        <ele>1393.441362</ele>
        <time>2026-02-23T23:29:35Z</time>
      </trkpt>
      <trkpt lat="46.053646970540285" lon="12.274032030254602">
        <ele>1397.600901</ele>
        <time>2026-02-23T23:30:01Z</time>
      </trkpt>
      <trkpt lat="46.053889961913228" lon="12.274175025522709">
        <ele>1401.7604369999999</ele>
        <time>2026-02-23T23:30:28Z</time>
      </trkpt>
      <trkpt lat="46.054158015176654" lon="12.273960029706359">
        <ele>1406.621222</ele>
        <time>2026-02-23T23:30:59Z</time>
      </trkpt>
      <trkpt lat="46.054425984621048" lon="12.27374603971839">
        <ele>1412.333214</ele>
        <time>2026-02-23T23:31:30Z</time>
      </trkpt>
      <trkpt lat="46.054627988487482" lon="12.273409003391862">
        <ele>1419.356211</ele>
        <time>2026-02-23T23:32:01Z</time>
      </trkpt>
      <trkpt lat="46.054828986525536" lon="12.273071967065334">
        <ele>1426.36436</ele>
        <time>2026-02-23T23:32:32Z</time>
      </trkpt>
      <trkpt lat="46.055029984563589" lon="12.2727370262146">
        <ele>1433.3486029999999</ele>
        <time>2026-02-23T23:33:04Z</time>
      </trkpt>
      <trkpt lat="46.055238023400307" lon="12.272628983482718">
        <ele>1438.373126</ele>
        <time>2026-02-23T23:33:26Z</time>
      </trkpt>
      <trkpt lat="46.055445978417993" lon="12.27252203039825">
        <ele>1443.392323</ele>
        <time>2026-02-23T23:33:49Z</time>
      </trkpt>
      <trkpt lat="46.055445978417993" lon="12.272797040641308">
        <ele>1447.729349</ele>
        <time>2026-02-23T23:34:09Z</time>
      </trkpt>
      <trkpt lat="46.055445978417993" lon="12.273070039227605">
        <ele>1452.180924</ele>
        <time>2026-02-23T23:34:29Z</time>
      </trkpt>
      <trkpt lat="46.05559098534286" lon="12.272972976788878">
        <ele>1456.13462</ele>
        <time>2026-02-23T23:34:45Z</time>
      </trkpt>
      <trkpt lat="46.055736998096108" lon="12.272877003997564">
        <ele>1460.103605</ele>
        <time>2026-02-23T23:35:02Z</time>
      </trkpt>
      <trkpt lat="46.055732974782586" lon="12.273108009248972">
        <ele>1464.0694490000001</ele>
        <time>2026-02-23T23:35:19Z</time>
      </trkpt>
      <trkpt lat="46.055729035288095" lon="12.273338008671999">
        <ele>1468.0181359999999</ele>
        <time>2026-02-23T23:35:35Z</time>
      </trkpt>
      <trkpt lat="46.055968003347516" lon="12.273166012018919">
        <ele>1474.6251729999999</ele>
        <time>2026-02-23T23:36:02Z</time>
      </trkpt>
      <trkpt lat="46.055945036932826" lon="12.273585023358464">
        <ele>1481.838825</ele>
        <time>2026-02-23T23:36:32Z</time>
      </trkpt>
      <trkpt lat="46.056157015264034" lon="12.273589968681335">
        <ele>1487.082662</ele>
        <time>2026-02-23T23:36:54Z</time>
      </trkpt>
      <trkpt lat="46.056369999423623" lon="12.273594997823238">
        <ele>1492.3512270000001</ele>
        <time>2026-02-23T23:37:15Z</time>
      </trkpt>
      <trkpt lat="46.056555993855" lon="12.273751990869641">
        <ele>1496.954526</ele>
        <time>2026-02-23T23:37:37Z</time>
      </trkpt>
      <trkpt lat="46.056741988286376" lon="12.273909989744425">
        <ele>1500.915733</ele>
        <time>2026-02-23T23:37:59Z</time>
      </trkpt>
      <trkpt lat="46.056927982717752" lon="12.274066982790828">
        <ele>1504.8704869999999</ele>
        <time>2026-02-23T23:38:22Z</time>
      </trkpt>
      <trkpt lat="46.056992020457983" lon="12.274281978607178">
        <ele>1507.8489440000001</ele>
        <time>2026-02-23T23:38:38Z</time>
      </trkpt>
      <trkpt lat="46.057054968550801" lon="12.274496974423528">
        <ele>1510.8202140000001</ele>
        <time>2026-02-23T23:38:55Z</time>
      </trkpt>
      <trkpt lat="46.057266024872661" lon="12.274636030197144">
        <ele>1515.076634</ele>
        <time>2026-02-23T23:39:18Z</time>
      </trkpt>
      <trkpt lat="46.057475991547108" lon="12.274776007980108">
        <ele>1519.3217010000001</ele>
        <time>2026-02-23T23:39:42Z</time>
      </trkpt>
      <trkpt lat="46.057686964049935" lon="12.274914979934692">
        <ele>1523.578115</ele>
        <time>2026-02-23T23:40:05Z</time>
      </trkpt>
      <trkpt lat="46.057899026200175" lon="12.274862006306648">
        <ele>1527.5256569999999</ele>
        <time>2026-02-23T23:40:27Z</time>
      </trkpt>
      <trkpt lat="46.058112010359764" lon="12.274808026850224">
        <ele>1525.9797349999999</ele>
        <time>2026-02-23T23:40:49Z</time>
      </trkpt>
      <trkpt lat="46.058417027816176" lon="12.274910034611821">
        <ele>1523.0025909999999</ele>
        <time>2026-02-23T23:41:20Z</time>
      </trkpt>
      <trkpt lat="46.058721961453557" lon="12.275011958554387">
        <ele>1520.0254480000001</ele>
        <time>2026-02-23T23:41:52Z</time>
      </trkpt>
      <trkpt lat="46.058700000867248" lon="12.275011958554387">
        <ele>1519.8162620000001</ele>
        <time>2026-02-23T23:41:54Z</time>
      </trkpt>
      <trkpt lat="46.058890018612146" lon="12.275171969085932">
        <ele>1517.7238199999999</ele>
        <time>2026-02-23T23:42:16Z</time>
      </trkpt>
      <trkpt lat="46.059080036357045" lon="12.275332985445857">
        <ele>1515.6280429999999</ele>
        <time>2026-02-23T23:42:39Z</time>
      </trkpt>
      <trkpt lat="46.059298971667886" lon="12.275285040959716">
        <ele>1513.5217479999999</ele>
        <time>2026-02-23T23:43:01Z</time>
      </trkpt>
      <trkpt lat="46.059518996626139" lon="12.275237012654543">
        <ele>1511.4060509999999</ele>
        <time>2026-02-23T23:43:24Z</time>
      </trkpt>
      <trkpt lat="46.059739021584392" lon="12.275054035708308">
        <ele>1508.538744</ele>
        <time>2026-02-23T23:43:49Z</time>
      </trkpt>
      <trkpt lat="46.059958040714264" lon="12.274871980771422">
        <ele>1505.52073</ele>
        <time>2026-02-23T23:44:15Z</time>
      </trkpt>
      <trkpt lat="46.060150992125273" lon="12.274785982444882">
        <ele>1503.1090489999999</ele>
        <time>2026-02-23T23:44:35Z</time>
      </trkpt>
      <trkpt lat="46.060345033183694" lon="12.274699984118342">
        <ele>1500.685962</ele>
        <time>2026-02-23T23:44:56Z</time>
      </trkpt>
      <trkpt lat="46.060508983209729" lon="12.274577021598816">
        <ele>1498.478846</ele>
        <time>2026-02-23T23:45:15Z</time>
      </trkpt>
      <trkpt lat="46.060673017054796" lon="12.274453975260258">
        <ele>1496.271733</ele>
        <time>2026-02-23T23:45:33Z</time>
      </trkpt>
      <trkpt lat="46.060818023979664" lon="12.27435196749866">
        <ele>1494.345497</ele>
        <time>2026-02-23T23:45:49Z</time>
      </trkpt>
      <trkpt lat="46.060963030904531" lon="12.274249959737062">
        <ele>1492.4192619999999</ele>
        <time>2026-02-23T23:46:05Z</time>
      </trkpt>
      <trkpt lat="46.061170985922217" lon="12.274082992225885">
        <ele>1489.576785</ele>
        <time>2026-02-23T23:46:29Z</time>
      </trkpt>
      <trkpt lat="46.061380030587316" lon="12.273917030543089">
        <ele>1487.435199</ele>
        <time>2026-02-23T23:46:53Z</time>
      </trkpt>
      <trkpt lat="46.061592008918524" lon="12.273589968681335">
        <ele>1484.7526150000001</ele>
        <time>2026-02-23T23:47:24Z</time>
      </trkpt>
      <trkpt lat="46.061803987249732" lon="12.273262990638614">
        <ele>1482.0700360000001</ele>
        <time>2026-02-23T23:47:55Z</time>
      </trkpt>
      <trkpt lat="46.061924016103148" lon="12.272918997332454">
        <ele>1479.7620870000001</ele>
        <time>2026-02-23T23:48:22Z</time>
      </trkpt>
      <trkpt lat="46.062169019132853" lon="12.272682962939143">
        <ele>1477.2163479999999</ele>
        <time>2026-02-23T23:48:52Z</time>
      </trkpt>
      <trkpt lat="46.062355013564229" lon="12.272506020963192">
        <ele>1475.290855</ele>
        <time>2026-02-23T23:49:14Z</time>
      </trkpt>
      <trkpt lat="46.062541007995605" lon="12.272328995168209">
        <ele>1473.030086</ele>
        <time>2026-02-23T23:49:37Z</time>
      </trkpt>
      <trkpt lat="46.062716022133827" lon="12.272156998515129">
        <ele>1469.601484</ele>
        <time>2026-02-23T23:49:58Z</time>
      </trkpt>
      <trkpt lat="46.062891036272049" lon="12.27198600769043">
        <ele>1466.1792009999999</ele>
        <time>2026-02-23T23:50:19Z</time>
      </trkpt>
      <trkpt lat="46.063069989904761" lon="12.271798001602292">
        <ele>1462.59412</ele>
        <time>2026-02-23T23:50:42Z</time>
      </trkpt>
      <trkpt lat="46.063249027356505" lon="12.271609995514154">
        <ele>1459.0090439999999</ele>
        <time>2026-02-23T23:51:04Z</time>
      </trkpt>
      <trkpt lat="46.063278028741479" lon="12.271589040756226">
        <ele>1458.4837210000001</ele>
        <time>2026-02-23T23:51:07Z</time>
      </trkpt>
      <trkpt lat="46.0635169968009" lon="12.27140698581934">
        <ele>1454.108387</ele>
        <time>2026-02-23T23:51:35Z</time>
      </trkpt>
      <trkpt lat="46.063728975132108" lon="12.271197019144893">
        <ele>1449.944536</ele>
        <time>2026-02-23T23:52:01Z</time>
      </trkpt>
      <trkpt lat="46.063830982893705" lon="12.271201964467764">
        <ele>1448.292582</ele>
        <time>2026-02-23T23:52:11Z</time>
      </trkpt>
      <trkpt lat="46.063832994550467" lon="12.271144967526197">
        <ele>1447.651601</ele>
        <time>2026-02-23T23:52:16Z</time>
      </trkpt>
      <trkpt lat="46.063832994550467" lon="12.271144967526197">
        <ele>1447.651601</ele>
        <time>2026-02-23T23:52:16Z</time>
      </trkpt>
      <trkpt lat="46.064066011458635" lon="12.270566029474139">
        <ele>1440.631394</ele>
        <time>2026-02-23T23:53:34Z</time>
      </trkpt>
      <trkpt lat="46.064155027270317" lon="12.270422028377652">
        <ele>1438.7047110000001</ele>
        <time>2026-02-23T23:53:57Z</time>
      </trkpt>
      <trkpt lat="46.064360970631242" lon="12.270270986482501">
        <ele>1435.376896</ele>
        <time>2026-02-23T23:54:36Z</time>
      </trkpt>
      <trkpt lat="46.06437798589468" lon="12.270050961524248">
        <ele>1433.165328</ele>
        <time>2026-02-23T23:55:01Z</time>
      </trkpt>
      <trkpt lat="46.064430959522724" lon="12.270116005092859">
        <ele>1432.1632669999999</ele>
        <time>2026-02-23T23:55:12Z</time>
      </trkpt>
      <trkpt lat="46.064520981162786" lon="12.270500985905528">
        <ele>1428.1043709999999</ele>
        <time>2026-02-23T23:55:57Z</time>
      </trkpt>
      <trkpt lat="46.064663976430893" lon="12.270709024742246">
        <ele>1425.178932</ele>
        <time>2026-02-23T23:56:29Z</time>
      </trkpt>
      <trkpt lat="46.064897999167442" lon="12.27134202606976">
        <ele>1418.2963239999999</ele>
        <time>2026-02-23T23:57:44Z</time>
      </trkpt>
      <trkpt lat="46.065065972507" lon="12.27170797996223">
        <ele>1415.627011</ele>
        <time>2026-02-23T23:58:28Z</time>
      </trkpt>
      <trkpt lat="46.065220031887293" lon="12.27198600769043">
        <ele>1413.4632180000001</ele>
        <time>2026-02-23T23:59:05Z</time>
      </trkpt>
      <trkpt lat="46.065549021586776" lon="12.272447012364864">
        <ele>1409.440603</ele>
        <time>2026-02-24T00:00:12Z</time>
      </trkpt>
      <trkpt lat="46.065654968842864" lon="12.272762004286051">
        <ele>1407.311146</ele>
        <time>2026-02-24T00:00:48Z</time>
      </trkpt>
      <trkpt lat="46.065658992156386" lon="12.27312401868403">
        <ele>1405.1089850000001</ele>
        <time>2026-02-24T00:01:24Z</time>
      </trkpt>
      <trkpt lat="46.065585985779762" lon="12.273390982300043">
        <ele>1403.3634030000001</ele>
        <time>2026-02-24T00:01:52Z</time>
      </trkpt>
      <trkpt lat="46.065289014950395" lon="12.273965980857611">
        <ele>1398.241831</ele>
        <time>2026-02-24T00:03:05Z</time>
      </trkpt>
      <trkpt lat="46.065197987481952" lon="12.274452969431877">
        <ele>1394.5851190000001</ele>
        <time>2026-02-24T00:03:57Z</time>
      </trkpt>
      <trkpt lat="46.065080976113677" lon="12.274606022983789">
        <ele>1392.93427</ele>
        <time>2026-02-24T00:04:20Z</time>
      </trkpt>
      <trkpt lat="46.064945021644235" lon="12.274580961093307">
        <ele>1391.501614</ele>
        <time>2026-02-24T00:04:40Z</time>
      </trkpt>
      <trkpt lat="46.064890036359429" lon="12.27460996247828">
        <ele>1390.889633</ele>
        <time>2026-02-24T00:04:49Z</time>
      </trkpt>
      <trkpt lat="46.064931023865938" lon="12.274682968854904">
        <ele>1390.2086870000001</ele>
        <time>2026-02-24T00:04:59Z</time>
      </trkpt>
      <trkpt lat="46.064879978075624" lon="12.274796962738037">
        <ele>1389.2252309999999</ele>
        <time>2026-02-24T00:05:13Z</time>
      </trkpt>
      <trkpt lat="46.064799008890986" lon="12.274892013520002">
        <ele>1388.1339720000001</ele>
        <time>2026-02-24T00:05:29Z</time>
      </trkpt>
      <trkpt lat="46.064876038581133" lon="12.274916991591454">
        <ele>1387.3091910000001</ele>
        <time>2026-02-24T00:05:41Z</time>
      </trkpt>
      <trkpt lat="46.064864974468946" lon="12.274983040988445">
        <ele>1386.8170540000001</ele>
        <time>2026-02-24T00:05:49Z</time>
      </trkpt>
      <trkpt lat="46.064945021644235" lon="12.275053029879928">
        <ele>1385.839086</ele>
        <time>2026-02-24T00:06:03Z</time>
      </trkpt>
      <trkpt lat="46.064960025250912" lon="12.275327034294605">
        <ele>1383.5746859999999</ele>
        <time>2026-02-24T00:06:33Z</time>
      </trkpt>
      <trkpt lat="46.064660036936402" lon="12.275908989831805">
        <ele>1373.959891</ele>
        <time>2026-02-24T00:07:55Z</time>
      </trkpt>
      <trkpt lat="46.064604967832565" lon="12.276182994246483">
        <ele>1370.1773089999999</ele>
        <time>2026-02-24T00:08:29Z</time>
      </trkpt>
      <trkpt lat="46.064374968409538" lon="12.276890007779002">
        <ele>1359.822199</ele>
        <time>2026-02-24T00:10:11Z</time>
      </trkpt>
      <trkpt lat="46.064359964802861" lon="12.277651000767946">
        <ele>1349.744823</ele>
        <time>2026-02-24T00:11:58Z</time>
      </trkpt>
      <trkpt lat="46.06454998254776" lon="12.27836798876524">
        <ele>1342.2325510000001</ele>
        <time>2026-02-24T00:13:41Z</time>
      </trkpt>
      <trkpt lat="46.064805965870619" lon="12.278191968798637">
        <ele>1338.2314409999999</ele>
        <time>2026-02-24T00:14:30Z</time>
      </trkpt>
      <trkpt lat="46.065190024673939" lon="12.278127009049058">
        <ele>1332.7772869999999</ele>
        <time>2026-02-24T00:15:32Z</time>
      </trkpt>
      <trkpt lat="46.065755970776081" lon="12.278386009857059">
        <ele>1324.4230540000001</ele>
        <time>2026-02-24T00:16:57Z</time>
      </trkpt>
      <trkpt lat="46.066062999889255" lon="12.278395984321833">
        <ele>1324.178357</ele>
        <time>2026-02-24T00:17:36Z</time>
      </trkpt>
      <trkpt lat="46.066471030935645" lon="12.27832498960197">
        <ele>1323.85088</ele>
        <time>2026-02-24T00:18:28Z</time>
      </trkpt>
      <trkpt lat="46.066902028396726" lon="12.278506960719824">
        <ele>1323.4929990000001</ele>
        <time>2026-02-24T00:19:26Z</time>
      </trkpt>
      <trkpt lat="46.067349035292864" lon="12.27924800477922">
        <ele>1322.7188229999999</ele>
        <time>2026-02-24T00:20:54Z</time>
      </trkpt>
      <trkpt lat="46.067668972536922" lon="12.279623011127114">
        <ele>1320.537836</ele>
        <time>2026-02-24T00:21:46Z</time>
      </trkpt>
      <trkpt lat="46.067928979173303" lon="12.280051996931434">
        <ele>1318.447874</ele>
        <time>2026-02-24T00:22:37Z</time>
      </trkpt>
      <trkpt lat="46.068345978856087" lon="12.280491963028908">
        <ele>1315.7149280000001</ele>
        <time>2026-02-24T00:23:51Z</time>
      </trkpt>
      <trkpt lat="46.068681003525853" lon="12.280137995257974">
        <ele>1313.518268</ele>
        <time>2026-02-24T00:24:54Z</time>
      </trkpt>
      <trkpt lat="46.069113006815314" lon="12.280008997768164">
        <ele>1311.613877</ele>
        <time>2026-02-24T00:26:03Z</time>
      </trkpt>
      <trkpt lat="46.069202022626996" lon="12.279881006106734">
        <ele>1311.0732190000001</ele>
        <time>2026-02-24T00:26:23Z</time>
      </trkpt>
      <trkpt lat="46.069247033447027" lon="12.279762988910079">
        <ele>1310.6714919999999</ele>
        <time>2026-02-24T00:26:38Z</time>
      </trkpt>
      <trkpt lat="46.069536963477731" lon="12.279494013637304">
        <ele>1309.188498</ele>
        <time>2026-02-24T00:27:29Z</time>
      </trkpt>
      <trkpt lat="46.07000601477921" lon="12.279139962047338">
        <ele>1306.9118860000001</ele>
        <time>2026-02-24T00:28:38Z</time>
      </trkpt>
      <trkpt lat="46.070273984223604" lon="12.278828993439674">
        <ele>1306.9447869999999</ele>
        <time>2026-02-24T00:29:33Z</time>
      </trkpt>
      <trkpt lat="46.070534996688366" lon="12.279086988419294">
        <ele>1312.1685749999999</ele>
        <time>2026-02-24T00:30:33Z</time>
      </trkpt>
      <trkpt lat="46.070690983906388" lon="12.279300978407264">
        <ele>1315.723227</ele>
        <time>2026-02-24T00:31:22Z</time>
      </trkpt>
      <trkpt lat="46.070669023320079" lon="12.279666010290384">
        <ele>1319.918696</ele>
        <time>2026-02-24T00:32:26Z</time>
      </trkpt>
      <trkpt lat="46.070690983906388" lon="12.280137995257974">
        <ele>1325.3358929999999</ele>
        <time>2026-02-24T00:33:54Z</time>
      </trkpt>
      <trkpt lat="46.070601968094707" lon="12.280566981062293">
        <ele>1330.463444</ele>
        <time>2026-02-24T00:35:16Z</time>
      </trkpt>
      <trkpt lat="46.070444975048304" lon="12.280964031815529">
        <ele>1335.528268</ele>
        <time>2026-02-24T00:36:32Z</time>
      </trkpt>
      <trkpt lat="46.070282030850649" lon="12.281189002096653">
        <ele>1336.8746719999999</ele>
        <time>2026-02-24T00:37:20Z</time>
      </trkpt>
      <trkpt lat="46.070207012817264" lon="12.281489996239543">
        <ele>1338.198384</ele>
        <time>2026-02-24T00:38:02Z</time>
      </trkpt>
      <trkpt lat="46.070036021992564" lon="12.281789984554052">
        <ele>1339.8053729999999</ele>
        <time>2026-02-24T00:38:48Z</time>
      </trkpt>
      <trkpt lat="46.069752965122461" lon="12.282112017273903">
        <ele>1341.956306</ele>
        <time>2026-02-24T00:39:43Z</time>
      </trkpt>
      <trkpt lat="46.069827983155847" lon="12.282187035307288">
        <ele>1342.500873</ele>
        <time>2026-02-24T00:39:56Z</time>
      </trkpt>
      <trkpt lat="46.069827983155847" lon="12.282379986718297">
        <ele>1343.299681</ele>
        <time>2026-02-24T00:40:14Z</time>
      </trkpt>
      <trkpt lat="46.06961902230978" lon="12.282648961991072">
        <ele>1344.971264</ele>
        <time>2026-02-24T00:40:50Z</time>
      </trkpt>
      <trkpt lat="46.069596977904439" lon="12.282980969175696">
        <ele>1345.712998</ele>
        <time>2026-02-24T00:41:22Z</time>
      </trkpt>
      <trkpt lat="46.069649029523134" lon="12.283206023275852">
        <ele>1343.3653810000001</ele>
        <time>2026-02-24T00:41:45Z</time>
      </trkpt>
      <trkpt lat="46.069805016741157" lon="12.283078031614423">
        <ele>1340.804157</ele>
        <time>2026-02-24T00:42:12Z</time>
      </trkpt>
      <trkpt lat="46.06996200978756" lon="12.283066967502236">
        <ele>1338.5613989999999</ele>
        <time>2026-02-24T00:42:36Z</time>
      </trkpt>
      <trkpt lat="46.070675980299711" lon="12.282562963664532">
        <ele>1327.217842</ele>
        <time>2026-02-24T00:44:52Z</time>
      </trkpt>
      <trkpt lat="46.071032965555787" lon="12.282594982534647">
        <ele>1322.114243</ele>
        <time>2026-02-24T00:45:59Z</time>
      </trkpt>
      <trkpt lat="46.071227006614208" lon="12.282412005588412">
        <ele>1319.6703279999999</ele>
        <time>2026-02-24T00:46:40Z</time>
      </trkpt>
      <trkpt lat="46.071598995476961" lon="12.282144036144018">
        <ele>1316.7640630000001</ele>
        <time>2026-02-24T00:47:46Z</time>
      </trkpt>
      <trkpt lat="46.071659009903669" lon="12.281940020620823">
        <ele>1315.6898229999999</ele>
        <time>2026-02-24T00:48:10Z</time>
      </trkpt>
      <trkpt lat="46.071799993515015" lon="12.281812028959394">
        <ele>1314.525343</ele>
        <time>2026-02-24T00:48:35Z</time>
      </trkpt>
      <trkpt lat="46.072916965931654" lon="12.281446997076273">
        <ele>1308.616004</ele>
        <time>2026-02-24T00:51:00Z</time>
      </trkpt>
      <trkpt lat="46.073301024734974" lon="12.28148203343153">
        <ele>1309.924209</ele>
        <time>2026-02-24T00:51:57Z</time>
      </trkpt>
      <trkpt lat="46.073446031659842" lon="12.281496031209826">
        <ele>1310.4183129999999</ele>
        <time>2026-02-24T00:52:19Z</time>
      </trkpt>
      <trkpt lat="46.073596989735961" lon="12.281628968194127">
        <ele>1311.0199689999999</ele>
        <time>2026-02-24T00:52:45Z</time>
      </trkpt>
      <trkpt lat="46.07374400831759" lon="12.281855028122663">
        <ele>1311.750691</ele>
        <time>2026-02-24T00:53:16Z</time>
      </trkpt>
      <trkpt lat="46.073846016079187" lon="12.282131966203451">
        <ele>1312.490382</ele>
        <time>2026-02-24T00:53:49Z</time>
      </trkpt>
      <trkpt lat="46.073883986100554" lon="12.282550977542996">
        <ele>1313.487077</ele>
        <time>2026-02-24T00:54:32Z</time>
      </trkpt>
      <trkpt lat="46.073802011087537" lon="12.283560996875167">
        <ele>1308.9635490000001</ele>
        <time>2026-02-24T00:56:08Z</time>
      </trkpt>
      <trkpt lat="46.0738539788872" lon="12.284086039289832">
        <ele>1305.508124</ele>
        <time>2026-02-24T00:57:01Z</time>
      </trkpt>
      <trkpt lat="46.073846016079187" lon="12.28453204035759">
        <ele>1302.6011579999999</ele>
        <time>2026-02-24T00:57:50Z</time>
      </trkpt>
      <trkpt lat="46.073898989707232" lon="12.284579984843731">
        <ele>1302.013273</ele>
        <time>2026-02-24T00:58:00Z</time>
      </trkpt>
      <trkpt lat="46.074279025197029" lon="12.284311009570956">
        <ele>1298.0370789999999</ele>
        <time>2026-02-24T00:59:15Z</time>
      </trkpt>
      <trkpt lat="46.074642967432737" lon="12.284183017909527">
        <ele>1293.3000440000001</ele>
        <time>2026-02-24T01:00:28Z</time>
      </trkpt>
      <trkpt lat="46.074837008491158" lon="12.284160973504186">
        <ele>1290.6273060000001</ele>
        <time>2026-02-24T01:01:07Z</time>
      </trkpt>
      <trkpt lat="46.075007999315858" lon="12.283968022093177">
        <ele>1287.644442</ele>
        <time>2026-02-24T01:01:51Z</time>
      </trkpt>
      <trkpt lat="46.075514014810324" lon="12.283539036288857">
        <ele>1279.5818489999999</ele>
        <time>2026-02-24T01:03:26Z</time>
      </trkpt>
      <trkpt lat="46.076006032526493" lon="12.283290009945631">
        <ele>1272.4468469999999</ele>
        <time>2026-02-24T01:04:36Z</time>
      </trkpt>
      <trkpt lat="46.07625899836421" lon="12.283032014966011">
        <ele>1272.1373719999999</ele>
        <time>2026-02-24T01:05:15Z</time>
      </trkpt>
      <trkpt lat="46.076668035238981" lon="12.282809978350997">
        <ele>1271.7009459999999</ele>
        <time>2026-02-24T01:06:12Z</time>
      </trkpt>
      <trkpt lat="46.077025020495057" lon="12.282767985016108">
        <ele>1271.3432560000001</ele>
        <time>2026-02-24T01:06:57Z</time>
      </trkpt>
      <trkpt lat="46.078089019283652" lon="12.282047979533672">
        <ele>1273.7985000000001</ele>
        <time>2026-02-24T01:09:29Z</time>
      </trkpt>
      <trkpt lat="46.078252969309688" lon="12.281769029796124">
        <ele>1275.4473270000001</ele>
        <time>2026-02-24T01:10:02Z</time>
      </trkpt>
      <trkpt lat="46.07885898090899" lon="12.281518997624516">
        <ele>1279.544259</ele>
        <time>2026-02-24T01:11:38Z</time>
      </trkpt>
      <trkpt lat="46.07913700863719" lon="12.28171999566257">
        <ele>1281.565699</ele>
        <time>2026-02-24T01:12:27Z</time>
      </trkpt>
      <trkpt lat="46.079411013051867" lon="12.28184899315238">
        <ele>1286.3056799999999</ele>
        <time>2026-02-24T01:13:21Z</time>
      </trkpt>
      <trkpt lat="46.079641012474895" lon="12.282413011416793">
        <ele>1296.972098</ele>
        <time>2026-02-24T01:14:57Z</time>
      </trkpt>
      <trkpt lat="46.07950396835804" lon="12.282689027488232">
        <ele>1302.505249</ele>
        <time>2026-02-24T01:15:51Z</time>
      </trkpt>
      <trkpt lat="46.079196017235518" lon="12.282975018024445">
        <ele>1311.116025</ele>
        <time>2026-02-24T01:17:17Z</time>
      </trkpt>
      <trkpt lat="46.079141031950712" lon="12.28333099745214">
        <ele>1317.0622760000001</ele>
        <time>2026-02-24T01:18:19Z</time>
      </trkpt>
      <trkpt lat="46.079263994470239" lon="12.283586980774999">
        <ele>1322.139392</ele>
        <time>2026-02-24T01:19:12Z</time>
      </trkpt>
      <trkpt lat="46.079215966165066" lon="12.28380499407649">
        <ele>1325.8816280000001</ele>
        <time>2026-02-24T01:19:51Z</time>
      </trkpt>
      <trkpt lat="46.079044975340366" lon="12.283950001001358">
        <ele>1330.594104</ele>
        <time>2026-02-24T01:20:39Z</time>
      </trkpt>
      <trkpt lat="46.079057967290282" lon="12.284176982939243">
        <ele>1334.347166</ele>
        <time>2026-02-24T01:21:18Z</time>
      </trkpt>
      <trkpt lat="46.079036006703973" lon="12.284286031499505">
        <ele>1336.2176710000001</ele>
        <time>2026-02-24T01:21:36Z</time>
      </trkpt>
      <trkpt lat="46.07888001948595" lon="12.284584008157253">
        <ele>1342.369246</ele>
        <time>2026-02-24T01:22:37Z</time>
      </trkpt>
      <trkpt lat="46.078608026728034" lon="12.284796992316842">
        <ele>1349.7220090000001</ele>
        <time>2026-02-24T01:23:48Z</time>
      </trkpt>
      <trkpt lat="46.078460002318025" lon="12.285098992288113">
        <ele>1355.81476</ele>
        <time>2026-02-24T01:24:44Z</time>
      </trkpt>
      <trkpt lat="46.078443992882967" lon="12.28528699837625">
        <ele>1358.935745</ele>
        <time>2026-02-24T01:25:12Z</time>
      </trkpt>
      <trkpt lat="46.07838599011302" lon="12.28539202362299">
        <ele>1361.1474149999999</ele>
        <time>2026-02-24T01:25:32Z</time>
      </trkpt>
      <trkpt lat="46.078336033970118" lon="12.285422030836344">
        <ele>1362.4338729999999</ele>
        <time>2026-02-24T01:25:43Z</time>
      </trkpt>
      <trkpt lat="46.078282976523042" lon="12.285399986431003">
        <ele>1363.74398</ele>
        <time>2026-02-24T01:25:54Z</time>
      </trkpt>
      <trkpt lat="46.078183986246586" lon="12.28528599254787">
        <ele>1366.753749</ele>
        <time>2026-02-24T01:26:19Z</time>
      </trkpt>
      <trkpt lat="46.077880980446935" lon="12.285296972841024">
        <ele>1371.16561</ele>
        <time>2026-02-24T01:27:16Z</time>
      </trkpt>
      <trkpt lat="46.077730022370815" lon="12.285246010869741">
        <ele>1373.2960350000001</ele>
        <time>2026-02-24T01:27:43Z</time>
      </trkpt>
      <trkpt lat="46.077497005462646" lon="12.285429993644357">
        <ele>1376.9454840000001</ele>
        <time>2026-02-24T01:28:25Z</time>
      </trkpt>
      <trkpt lat="46.077319979667664" lon="12.285644989460707">
        <ele>1380.1249640000001</ele>
        <time>2026-02-24T01:28:59Z</time>
      </trkpt>
      <trkpt lat="46.077234987169504" lon="12.286286037415266">
        <ele>1386.3436799999999</ele>
        <time>2026-02-24T01:30:01Z</time>
      </trkpt>
      <trkpt lat="46.077234987169504" lon="12.286286037415266">
        <ele>1386.3436799999999</ele>
        <time>2026-02-24T01:30:01Z</time>
      </trkpt>
      <trkpt lat="46.077258037403226" lon="12.286498015746474">
        <ele>1388.3883949999999</ele>
        <time>2026-02-24T01:30:21Z</time>
      </trkpt>
      <trkpt lat="46.077368007972836" lon="12.286686021834612">
        <ele>1390.7320219999999</ele>
        <time>2026-02-24T01:30:44Z</time>
      </trkpt>
      <trkpt lat="46.077599013224244" lon="12.286977041512728">
        <ele>1394.6004270000001</ele>
        <time>2026-02-24T01:31:26Z</time>
      </trkpt>
      <trkpt lat="46.077973013743758" lon="12.287144009023905">
        <ele>1399.336832</ele>
        <time>2026-02-24T01:32:18Z</time>
      </trkpt>
      <trkpt lat="46.078611966222525" lon="12.2877780161798">
        <ele>1408.7207980000001</ele>
        <time>2026-02-24T01:34:08Z</time>
      </trkpt>
      <trkpt lat="46.078611966222525" lon="12.287971973419189">
        <ele>1410.3487379999999</ele>
        <time>2026-02-24T01:34:29Z</time>
      </trkpt>
      <trkpt lat="46.078427983447909" lon="12.288117986172438">
        <ele>1412.8895110000001</ele>
        <time>2026-02-24T01:35:02Z</time>
      </trkpt>
      <trkpt lat="46.078104022890329" lon="12.288283025845885">
        <ele>1418.4541770000001</ele>
        <time>2026-02-24T01:36:00Z</time>
      </trkpt>
      <trkpt lat="46.077862037345767" lon="12.288555018603802">
        <ele>1423.7804189999999</ele>
        <time>2026-02-24T01:36:53Z</time>
      </trkpt>
      <trkpt lat="46.077802022919059" lon="12.288673035800457">
        <ele>1425.5419850000001</ele>
        <time>2026-02-24T01:37:11Z</time>
      </trkpt>
      <trkpt lat="46.077380999922752" lon="12.288505984470248">
        <ele>1433.120928</ele>
        <time>2026-02-24T01:38:30Z</time>
      </trkpt>
      <trkpt lat="46.076732994988561" lon="12.288601035252213">
        <ele>1444.4263530000001</ele>
        <time>2026-02-24T01:40:33Z</time>
      </trkpt>
      <trkpt lat="46.076329993084073" lon="12.288582008332014">
        <ele>1452.975038</ele>
        <time>2026-02-24T01:41:54Z</time>
      </trkpt>
      <trkpt lat="46.075964961200953" lon="12.288871016353369">
        <ele>1461.9544920000001</ele>
        <time>2026-02-24T01:43:19Z</time>
      </trkpt>
      <trkpt lat="46.0757190361619" lon="12.289393963292241">
        <ele>1471.4063920000001</ele>
        <time>2026-02-24T01:44:50Z</time>
      </trkpt>
      <trkpt lat="46.075373031198978" lon="12.289746003225446">
        <ele>1480.5379660000001</ele>
        <time>2026-02-24T01:46:21Z</time>
      </trkpt>
      <trkpt lat="46.07486299239099" lon="12.290371041744947">
        <ele>1497.5533089999999</ele>
        <time>2026-02-24T01:48:51Z</time>
      </trkpt>
      <trkpt lat="46.074551017954946" lon="12.291080988943577">
        <ele>1513.0333089999999</ele>
        <time>2026-02-24T01:51:12Z</time>
      </trkpt>
      <trkpt lat="46.074328981339931" lon="12.29151701554656">
        <ele>1522.994733</ele>
        <time>2026-02-24T01:52:46Z</time>
      </trkpt>
      <trkpt lat="46.074184980243444" lon="12.292318996042013">
        <ele>1538.430486</ele>
        <time>2026-02-24T01:55:13Z</time>
      </trkpt>
      <trkpt lat="46.074013989418745" lon="12.292791986837983">
        <ele>1548.5149670000001</ele>
        <time>2026-02-24T01:56:48Z</time>
      </trkpt>
      <trkpt lat="46.073308987542987" lon="12.294265022501349">
        <ele>1582.0341189999999</ele>
        <time>2026-02-24T02:01:49Z</time>
      </trkpt>
      <trkpt lat="46.07305702753365" lon="12.294894000515342">
        <ele>1593.307137</ele>
        <time>2026-02-24T02:03:37Z</time>
      </trkpt>
      <trkpt lat="46.07275603339076" lon="12.295182002708316">
        <ele>1601.3894250000001</ele>
        <time>2026-02-24T02:04:53Z</time>
      </trkpt>
      <trkpt lat="46.072580013424158" lon="12.295116037130356">
        <ele>1605.4578730000001</ele>
        <time>2026-02-24T02:05:41Z</time>
      </trkpt>
      <trkpt lat="46.072473982349038" lon="12.294963989406824">
        <ele>1608.8028159999999</ele>
        <time>2026-02-24T02:06:20Z</time>
      </trkpt>
      <trkpt lat="46.072378009557724" lon="12.295002965256572">
        <ele>1611.034148</ele>
        <time>2026-02-24T02:06:46Z</time>
      </trkpt>
      <trkpt lat="46.072222022339702" lon="12.295177979394794">
        <ele>1615.456443</ele>
        <time>2026-02-24T02:07:37Z</time>
      </trkpt>
      <trkpt lat="46.072140969336033" lon="12.295174961909652">
        <ele>1617.2691339999999</ele>
        <time>2026-02-24T02:07:54Z</time>
      </trkpt>
      <trkpt lat="46.071742996573448" lon="12.295795977115631">
        <ele>1626.8588130000001</ele>
        <time>2026-02-24T02:09:51Z</time>
      </trkpt>
      <trkpt lat="46.071712989360094" lon="12.295893961563706">
        <ele>1627.907494</ele>
        <time>2026-02-24T02:10:06Z</time>
      </trkpt>
      <trkpt lat="46.071689017117023" lon="12.296309033408761">
        <ele>1631.984479</ele>
        <time>2026-02-24T02:11:03Z</time>
      </trkpt>
      <trkpt lat="46.071650963276625" lon="12.296356977894902">
        <ele>1632.697492</ele>
        <time>2026-02-24T02:11:12Z</time>
      </trkpt>
      <trkpt lat="46.071167998015881" lon="12.296546995639801">
        <ele>1639.76271</ele>
        <time>2026-02-24T02:12:35Z</time>
      </trkpt>
      <trkpt lat="46.071118963882327" lon="12.29660902172327">
        <ele>1640.682806</ele>
        <time>2026-02-24T02:12:43Z</time>
      </trkpt>
      <trkpt lat="46.070894999429584" lon="12.297149989753962">
        <ele>1645.8327469999999</ele>
        <time>2026-02-24T02:13:36Z</time>
      </trkpt>
      <trkpt lat="46.070767007768154" lon="12.297305976971984">
        <ele>1644.4590740000001</ele>
        <time>2026-02-24T02:13:54Z</time>
      </trkpt>
      <trkpt lat="46.070738006383181" lon="12.297390969470143">
        <ele>1643.9205340000001</ele>
        <time>2026-02-24T02:14:01Z</time>
      </trkpt>
      <trkpt lat="46.070756027474999" lon="12.297450983896852">
        <ele>1643.5488780000001</ele>
        <time>2026-02-24T02:14:05Z</time>
      </trkpt>
      <trkpt lat="46.070924000814557" lon="12.297582998871803">
        <ele>1641.980851</ele>
        <time>2026-02-24T02:14:26Z</time>
      </trkpt>
      <trkpt lat="46.070963982492685" lon="12.297668997198343">
        <ele>1641.3921869999999</ele>
        <time>2026-02-24T02:14:34Z</time>
      </trkpt>
      <trkpt lat="46.070896005257964" lon="12.29781199246645">
        <ele>1640.4065189999999</ele>
        <time>2026-02-24T02:14:48Z</time>
      </trkpt>
      <trkpt lat="46.070771031081676" lon="12.297754995524883">
        <ele>1639.332099</ele>
        <time>2026-02-24T02:15:07Z</time>
      </trkpt>
      <trkpt lat="46.070633986964822" lon="12.29757503606379">
        <ele>1637.812948</ele>
        <time>2026-02-24T02:15:35Z</time>
      </trkpt>
      <trkpt lat="46.069846004247665" lon="12.297443021088839">
        <ele>1631.2544499999999</ele>
        <time>2026-02-24T02:17:45Z</time>
      </trkpt>
      <trkpt lat="46.0695989895612" lon="12.297329027205706">
        <ele>1628.3429470000001</ele>
        <time>2026-02-24T02:18:27Z</time>
      </trkpt>
      <trkpt lat="46.069345017895103" lon="12.297099027782679">
        <ele>1624.975547</ele>
        <time>2026-02-24T02:19:15Z</time>
      </trkpt>
      <trkpt lat="46.069236975163221" lon="12.297071032226086">
        <ele>1623.7436829999999</ele>
        <time>2026-02-24T02:19:33Z</time>
      </trkpt>
      <trkpt lat="46.069090962409973" lon="12.297033984214067">
        <ele>1622.0795479999999</ele>
        <time>2026-02-24T02:19:57Z</time>
      </trkpt>
      <trkpt lat="46.068856017664075" lon="12.296847989782691">
        <ele>1619.069859</ele>
        <time>2026-02-24T02:20:38Z</time>
      </trkpt>
      <trkpt lat="46.068083038553596" lon="12.296525035053492">
        <ele>1611.2679069999999</ele>
        <time>2026-02-24T02:22:34Z</time>
      </trkpt>
      <trkpt lat="46.067647011950612" lon="12.296290006488562">
        <ele>1611.2368389999999</ele>
        <time>2026-02-24T02:23:34Z</time>
      </trkpt>
      <trkpt lat="46.067077964544296" lon="12.295586010441184">
        <ele>1611.18679</ele>
        <time>2026-02-24T02:25:11Z</time>
      </trkpt>
      <trkpt lat="46.066597010940313" lon="12.295116037130356">
        <ele>1611.8683799999999</ele>
        <time>2026-02-24T02:26:32Z</time>
      </trkpt>
      <trkpt lat="46.066309008747339" lon="12.294858964160085">
        <ele>1614.0978459999999</ele>
        <time>2026-02-24T02:27:20Z</time>
      </trkpt>
      <trkpt lat="46.066309008747339" lon="12.294858964160085">
        <ele>1614.0978459999999</ele>
        <time>2026-02-24T02:27:20Z</time>
      </trkpt>
      <trkpt lat="46.065509039908648" lon="12.294340040534735">
        <ele>1619.872116</ele>
        <time>2026-02-24T02:29:35Z</time>
      </trkpt>
      <trkpt lat="46.065140990540385" lon="12.293508974835277">
        <ele>1625.629238</ele>
        <time>2026-02-24T02:31:27Z</time>
      </trkpt>
      <trkpt lat="46.064843013882637" lon="12.292933976277709">
        <ele>1631.8864430000001</ele>
        <time>2026-02-24T02:32:53Z</time>
      </trkpt>
      <trkpt lat="46.064738994464278" lon="12.292732978239655">
        <ele>1634.0724680000001</ele>
        <time>2026-02-24T02:33:25Z</time>
      </trkpt>
      <trkpt lat="46.064555011689663" lon="12.292515970766544">
        <ele>1637.059925</ele>
        <time>2026-02-24T02:34:11Z</time>
      </trkpt>
      <trkpt lat="46.064251000061631" lon="12.292282031849027">
        <ele>1641.3904930000001</ele>
        <time>2026-02-24T02:35:20Z</time>
      </trkpt>
      <trkpt lat="46.063926033675671" lon="12.291970979422331">
        <ele>1646.4502910000001</ele>
        <time>2026-02-24T02:36:39Z</time>
      </trkpt>
      <trkpt lat="46.063535017892718" lon="12.291755983605981">
        <ele>1652.8975969999999</ele>
        <time>2026-02-24T02:38:05Z</time>
      </trkpt>
      <trkpt lat="46.063106032088399" lon="12.291575018316507">
        <ele>1659.784179</ele>
        <time>2026-02-24T02:39:39Z</time>
      </trkpt>
      <trkpt lat="46.062602028250694" lon="12.291426993906498">
        <ele>1667.7083660000001</ele>
        <time>2026-02-24T02:41:27Z</time>
      </trkpt>
      <trkpt lat="46.062416033819318" lon="12.291246028617024">
        <ele>1671.1659540000001</ele>
        <time>2026-02-24T02:42:15Z</time>
      </trkpt>
      <trkpt lat="46.062191985547543" lon="12.291132034733891">
        <ele>1674.8388219999999</ele>
        <time>2026-02-24T02:43:06Z</time>
      </trkpt>
      <trkpt lat="46.061860984191298" lon="12.29102399200201">
        <ele>1680.112169</ele>
        <time>2026-02-24T02:44:18Z</time>
      </trkpt>
      <trkpt lat="46.061321021988988" lon="12.290440024808049">
        <ele>1690.6026589999999</ele>
        <time>2026-02-24T02:46:45Z</time>
      </trkpt>
      <trkpt lat="46.060687014833093" lon="12.289854967966676">
        <ele>1701.6614830000001</ele>
        <time>2026-02-24T02:49:25Z</time>
      </trkpt>
      <trkpt lat="46.060322988778353" lon="12.288874033838511">
        <ele>1706.346043</ele>
        <time>2026-02-24T02:51:41Z</time>
      </trkpt>
      <trkpt lat="46.059624021872878" lon="12.288349997252226">
        <ele>1711.1276439999999</ele>
        <time>2026-02-24T02:53:30Z</time>
      </trkpt>
      <trkpt lat="46.059210961684585" lon="12.288150005042553">
        <ele>1709.691681</ele>
        <time>2026-02-24T02:54:29Z</time>
      </trkpt>
      <trkpt lat="46.059146001935005" lon="12.288117986172438">
        <ele>1709.048315</ele>
        <time>2026-02-24T02:54:39Z</time>
      </trkpt>
      <trkpt lat="46.058678962290287" lon="12.287475010380149">
        <ele>1702.998609</ele>
        <time>2026-02-24T02:56:16Z</time>
      </trkpt>
      <trkpt lat="46.057811016216874" lon="12.285834001377225">
        <ele>1694.1495749999999</ele>
        <time>2026-02-24T03:00:00Z</time>
      </trkpt>
      <trkpt lat="46.057499041780829" lon="12.285035038366914">
        <ele>1692.9323850000001</ele>
        <time>2026-02-24T03:01:26Z</time>
      </trkpt>
      <trkpt lat="46.057075001299381" lon="12.28434101678431">
        <ele>1693.461262</ele>
        <time>2026-02-24T03:03:06Z</time>
      </trkpt>
      <trkpt lat="46.056797979399562" lon="12.283751014620066">
        <ele>1702.0243089999999</ele>
        <time>2026-02-24T03:05:08Z</time>
      </trkpt>
      <trkpt lat="46.056629000231624" lon="12.2835039999336">
        <ele>1706.1940159999999</ele>
        <time>2026-02-24T03:06:21Z</time>
      </trkpt>
      <trkpt lat="46.056616008281708" lon="12.283295961096883">
        <ele>1708.704504</ele>
        <time>2026-02-24T03:07:03Z</time>
      </trkpt>
      <trkpt lat="46.056507965549827" lon="12.282927995547652">
        <ele>1713.5075730000001</ele>
        <time>2026-02-24T03:08:17Z</time>
      </trkpt>
      <trkpt lat="46.05629799887538" lon="12.282432038336992">
        <ele>1720.492123</ele>
        <time>2026-02-24T03:09:52Z</time>
      </trkpt>
      <trkpt lat="46.056253993883729" lon="12.282233973965049">
        <ele>1722.991356</ele>
        <time>2026-02-24T03:10:21Z</time>
      </trkpt>
      <trkpt lat="46.056164978072047" lon="12.282204972580075">
        <ele>1722.693516</ele>
        <time>2026-02-24T03:10:37Z</time>
      </trkpt>
      <trkpt lat="46.056043021380901" lon="12.282090978696942">
        <ele>1722.130396</ele>
        <time>2026-02-24T03:11:02Z</time>
      </trkpt>
      <trkpt lat="46.05559098534286" lon="12.282049991190434">
        <ele>1720.3764349999999</ele>
        <time>2026-02-24T03:11:54Z</time>
      </trkpt>
      <trkpt lat="46.055256966501474" lon="12.282019983977079">
        <ele>1719.0804169999999</ele>
        <time>2026-02-24T03:12:30Z</time>
      </trkpt>
      <trkpt lat="46.054927976801991" lon="12.282014032825828">
        <ele>1717.8061709999999</ele>
        <time>2026-02-24T03:13:12Z</time>
      </trkpt>
      <trkpt lat="46.054380973801017" lon="12.282200027257204">
        <ele>1713.283105</ele>
        <time>2026-02-24T03:14:26Z</time>
      </trkpt>
      <trkpt lat="46.053961040452123" lon="12.282413011416793">
        <ele>1702.392497</ele>
        <time>2026-02-24T03:15:32Z</time>
      </trkpt>
      <trkpt lat="46.053879987448454" lon="12.282405970618129">
        <ele>1700.407727</ele>
        <time>2026-02-24T03:15:45Z</time>
      </trkpt>
      <trkpt lat="46.053834976628423" lon="12.282345034182072">
        <ele>1698.8965659999999</ele>
        <time>2026-02-24T03:15:55Z</time>
      </trkpt>
      <trkpt lat="46.053671026602387" lon="12.282335981726646">
        <ele>1694.8823179999999</ele>
        <time>2026-02-24T03:16:21Z</time>
      </trkpt>
      <trkpt lat="46.05335502885282" lon="12.282182006165385">
        <ele>1686.723068</ele>
        <time>2026-02-24T03:17:19Z</time>
      </trkpt>
      <trkpt lat="46.053108014166355" lon="12.281959969550371">
        <ele>1679.6026870000001</ele>
        <time>2026-02-24T03:18:14Z</time>
      </trkpt>
      <trkpt lat="46.052929982542992" lon="12.281913030892611">
        <ele>1675.176422</ele>
        <time>2026-02-24T03:18:48Z</time>
      </trkpt>
      <trkpt lat="46.052820011973381" lon="12.281833989545703">
        <ele>1672.1702210000001</ele>
        <time>2026-02-24T03:19:11Z</time>
      </trkpt>
      <trkpt lat="46.052693026140332" lon="12.281685965135694">
        <ele>1668.1166109999999</ele>
        <time>2026-02-24T03:19:42Z</time>
      </trkpt>
      <trkpt lat="46.052611973136663" lon="12.281682025641203">
        <ele>1666.104511</ele>
        <time>2026-02-24T03:19:58Z</time>
      </trkpt>
      <trkpt lat="46.052456991747022" lon="12.281571971252561">
        <ele>1661.8150579999999</ele>
        <time>2026-02-24T03:20:30Z</time>
      </trkpt>
      <trkpt lat="46.052119033411145" lon="12.281538024544716">
        <ele>1653.4033919999999</ele>
        <time>2026-02-24T03:21:30Z</time>
      </trkpt>
      <trkpt lat="46.051942007616162" lon="12.28156803175807">
        <ele>1648.9788659999999</ele>
        <time>2026-02-24T03:22:00Z</time>
      </trkpt>
      <trkpt lat="46.051707984879613" lon="12.28150499984622">
        <ele>1643.0690059999999</ele>
        <time>2026-02-24T03:22:39Z</time>
      </trkpt>
      <trkpt lat="46.051561972126365" lon="12.28139603510499">
        <ele>1638.9867449999999</ele>
        <time>2026-02-24T03:23:05Z</time>
      </trkpt>
      <trkpt lat="46.051283022388816" lon="12.281025974079967">
        <ele>1629.5731000000001</ele>
        <time>2026-02-24T03:24:00Z</time>
      </trkpt>
      <trkpt lat="46.050432007759809" lon="12.280404036864638">
        <ele>1608.61878</ele>
        <time>2026-02-24T03:26:15Z</time>
      </trkpt>
      <trkpt lat="46.050140988081694" lon="12.280435971915722">
        <ele>1602.293465</ele>
        <time>2026-02-24T03:26:58Z</time>
      </trkpt>
      <trkpt lat="46.050097988918424" lon="12.28047301992774">
        <ele>1601.2079699999999</ele>
        <time>2026-02-24T03:27:06Z</time>
      </trkpt>
      <trkpt lat="46.04995901696384" lon="12.280459022149444">
        <ele>1598.1880100000001</ele>
        <time>2026-02-24T03:27:28Z</time>
      </trkpt>
      <trkpt lat="46.049756007269025" lon="12.28049598634243">
        <ele>1593.7532369999999</ele>
        <time>2026-02-24T03:28:01Z</time>
      </trkpt>
      <trkpt lat="46.049335990101099" lon="12.280504032969475">
        <ele>1584.337493</ele>
        <time>2026-02-24T03:29:13Z</time>
      </trkpt>
      <trkpt lat="46.04890801012516" lon="12.280607968568802">
        <ele>1574.1559030000001</ele>
        <time>2026-02-24T03:30:33Z</time>
      </trkpt>
      <trkpt lat="46.048825029283762" lon="12.280442006886005">
        <ele>1570.825045</ele>
        <time>2026-02-24T03:30:59Z</time>
      </trkpt>
      <trkpt lat="46.048640962690115" lon="12.280462039634585">
        <ele>1566.4965970000001</ele>
        <time>2026-02-24T03:31:33Z</time>
      </trkpt>
      <trkpt lat="46.048372993245721" lon="12.279986031353474">
        <ele>1556.5177289999999</ele>
        <time>2026-02-24T03:32:43Z</time>
      </trkpt>
      <trkpt lat="46.04807099327445" lon="12.279623011127114">
        <ele>1547.2920819999999</ele>
        <time>2026-02-24T03:33:36Z</time>
      </trkpt>
      <trkpt lat="46.04800402186811" lon="12.279402986168861">
        <ele>1544.572752</ele>
        <time>2026-02-24T03:33:58Z</time>
      </trkpt>
      <trkpt lat="46.047925986349583" lon="12.279303995892406">
        <ele>1543.147645</ele>
        <time>2026-02-24T03:34:11Z</time>
      </trkpt>
      <trkpt lat="46.047652987763286" lon="12.278358014300466">
        <ele>1533.3990120000001</ele>
        <time>2026-02-24T03:35:37Z</time>
      </trkpt>
      <trkpt lat="46.047549974173307" lon="12.278156010434031">
        <ele>1531.013946</ele>
        <time>2026-02-24T03:35:58Z</time>
      </trkpt>
      <trkpt lat="46.047307988628745" lon="12.277828026562929">
        <ele>1526.4588900000001</ele>
        <time>2026-02-24T03:36:37Z</time>
      </trkpt>
      <trkpt lat="46.047016968950629" lon="12.277519991621375">
        <ele>1521.4562490000001</ele>
        <time>2026-02-24T03:37:23Z</time>
      </trkpt>
      <trkpt lat="46.046852013096213" lon="12.277270965278149">
        <ele>1516.087354</ele>
        <time>2026-02-24T03:38:00Z</time>
      </trkpt>
      <trkpt lat="46.046770038083196" lon="12.277070973068476">
        <ele>1512.464714</ele>
        <time>2026-02-24T03:38:26Z</time>
      </trkpt>
      <trkpt lat="46.04673801921308" lon="12.276819013059139">
        <ele>1508.469425</ele>
        <time>2026-02-24T03:38:57Z</time>
      </trkpt>
      <trkpt lat="46.046680016443133" lon="12.276811972260475">
        <ele>1507.1616280000001</ele>
        <time>2026-02-24T03:39:07Z</time>
      </trkpt>
      <trkpt lat="46.046563005074859" lon="12.27694901637733">
        <ele>1503.7739610000001</ele>
        <time>2026-02-24T03:39:33Z</time>
      </trkpt>
      <trkpt lat="46.046464014798403" lon="12.276838039979339">
        <ele>1500.9552650000001</ele>
        <time>2026-02-24T03:39:55Z</time>
      </trkpt>
      <trkpt lat="46.046250024810433" lon="12.276862012222409">
        <ele>1496.132239</ele>
        <time>2026-02-24T03:40:33Z</time>
      </trkpt>
      <trkpt lat="46.046086996793747" lon="12.276729997247458">
        <ele>1491.930801</ele>
        <time>2026-02-24T03:41:05Z</time>
      </trkpt>
      <trkpt lat="46.045582992956042" lon="12.27591997012496">
        <ele>1477.4509760000001</ele>
        <time>2026-02-24T03:43:02Z</time>
      </trkpt>
      <trkpt lat="46.045366991311312" lon="12.275726012885571">
        <ele>1474.020804</ele>
        <time>2026-02-24T03:43:35Z</time>
      </trkpt>
      <trkpt lat="46.045215027406812" lon="12.275572037324309">
        <ele>1471.5166260000001</ele>
        <time>2026-02-24T03:43:58Z</time>
      </trkpt>
      <trkpt lat="46.045078989118338" lon="12.275476986542344">
        <ele>1469.479791</ele>
        <time>2026-02-24T03:44:17Z</time>
      </trkpt>
      <trkpt lat="46.044903974980116" lon="12.275241035968065">
        <ele>1466.2494859999999</ele>
        <time>2026-02-24T03:44:46Z</time>
      </trkpt>
      <trkpt lat="46.044353032484651" lon="12.274915985763073">
        <ele>1458.225846</ele>
        <time>2026-02-24T03:45:56Z</time>
      </trkpt>
      <trkpt lat="46.044215988367796" lon="12.274880027398467">
        <ele>1456.322044</ele>
        <time>2026-02-24T03:46:12Z</time>
      </trkpt>
      <trkpt lat="46.043983977288008" lon="12.274762010201812">
        <ele>1452.85355</ele>
        <time>2026-02-24T03:46:42Z</time>
      </trkpt>
      <trkpt lat="46.043314011767507" lon="12.274287007749081">
        <ele>1442.3264200000001</ele>
        <time>2026-02-24T03:48:15Z</time>
      </trkpt>
      <trkpt lat="46.042752005159855" lon="12.273758025839925">
        <ele>1432.8623669999999</ele>
        <time>2026-02-24T03:49:44Z</time>
      </trkpt>
      <trkpt lat="46.042660977691412" lon="12.273546969518065">
        <ele>1430.0541459999999</ele>
        <time>2026-02-24T03:50:07Z</time>
      </trkpt>
      <trkpt lat="46.042416980490088" lon="12.272585984319448">
        <ele>1416.750583</ele>
        <time>2026-02-24T03:51:52Z</time>
      </trkpt>
      <trkpt lat="46.042412035167217" lon="12.272351961582899">
        <ele>1413.706905</ele>
        <time>2026-02-24T03:52:16Z</time>
      </trkpt>
      <trkpt lat="46.042498033493757" lon="12.272322038188577">
        <ele>1412.0495719999999</ele>
        <time>2026-02-24T03:52:29Z</time>
      </trkpt>
      <trkpt lat="46.04252602905035" lon="12.272237967699766">
        <ele>1410.838092</ele>
        <time>2026-02-24T03:52:39Z</time>
      </trkpt>
      <trkpt lat="46.042516976594925" lon="12.272150963544846">
        <ele>1409.694514</ele>
        <time>2026-02-24T03:52:48Z</time>
      </trkpt>
      <trkpt lat="46.042485041543841" lon="12.27203001268208">
        <ele>1408.011082</ele>
        <time>2026-02-24T03:53:01Z</time>
      </trkpt>
      <trkpt lat="46.042263004928827" lon="12.271919036284089">
        <ele>1403.6097030000001</ele>
        <time>2026-02-24T03:53:34Z</time>
      </trkpt>
      <trkpt lat="46.042211959138513" lon="12.271632961928844">
        <ele>1399.770661</ele>
        <time>2026-02-24T03:54:02Z</time>
      </trkpt>
      <trkpt lat="46.042082039639354" lon="12.271334985271096">
        <ele>1396.0971489999999</ele>
        <time>2026-02-24T03:54:34Z</time>
      </trkpt>
      <trkpt lat="46.042038034647703" lon="12.271223003044724">
        <ele>1394.9839079999999</ele>
        <time>2026-02-24T03:54:46Z</time>
      </trkpt>
      <trkpt lat="46.041899984702468" lon="12.271004989743233">
        <ele>1392.4317100000001</ele>
        <time>2026-02-24T03:55:12Z</time>
      </trkpt>
      <trkpt lat="46.041901996359229" lon="12.271128036081791">
        <ele>1391.3674289999999</ele>
        <time>2026-02-24T03:55:23Z</time>
      </trkpt>
      <trkpt lat="46.042026970535517" lon="12.27142701856792">
        <ele>1388.3481079999999</ele>
        <time>2026-02-24T03:55:54Z</time>
      </trkpt>
      <trkpt lat="46.042039040476084" lon="12.271747039631009">
        <ele>1385.575975</ele>
        <time>2026-02-24T03:56:21Z</time>
      </trkpt>
      <trkpt lat="46.041907025501132" lon="12.272450029850006">
        <ele>1379.2762439999999</ele>
        <time>2026-02-24T03:57:22Z</time>
      </trkpt>
      <trkpt lat="46.041552973911166" lon="12.273355023935437">
        <ele>1371.732863</ele>
        <time>2026-02-24T03:58:47Z</time>
      </trkpt>
      <trkpt lat="46.041493965312839" lon="12.273820973932743">
        <ele>1368.7750719999999</ele>
        <time>2026-02-24T03:59:26Z</time>
      </trkpt>
      <trkpt lat="46.041513998061419" lon="12.27405097335577">
        <ele>1367.3276860000001</ele>
        <time>2026-02-24T03:59:45Z</time>
      </trkpt>
      <trkpt lat="46.041761012747884" lon="12.274722028523684">
        <ele>1362.5851580000001</ele>
        <time>2026-02-24T04:00:47Z</time>
      </trkpt>
      <trkpt lat="46.041836030781269" lon="12.274998966604471">
        <ele>1360.728605</ele>
        <time>2026-02-24T04:01:11Z</time>
      </trkpt>
      <trkpt lat="46.04224699549377" lon="12.275688964873552">
        <ele>1354.959128</ele>
        <time>2026-02-24T04:02:25Z</time>
      </trkpt>
      <trkpt lat="46.042537009343505" lon="12.276271004229784">
        <ele>1350.388559</ele>
        <time>2026-02-24T04:03:24Z</time>
      </trkpt>
      <trkpt lat="46.043138997629285" lon="12.276955973356962">
        <ele>1343.3380159999999</ele>
        <time>2026-02-24T04:04:54Z</time>
      </trkpt>
      <trkpt lat="46.043677031993866" lon="12.277419995516539">
        <ele>1334.9296629999999</ele>
        <time>2026-02-24T04:06:11Z</time>
      </trkpt>
      <trkpt lat="46.043842993676662" lon="12.277419995516539">
        <ele>1332.626409</ele>
        <time>2026-02-24T04:06:32Z</time>
      </trkpt>
      <trkpt lat="46.044009039178491" lon="12.278185011819005">
        <ele>1324.9072550000001</ele>
        <time>2026-02-24T04:07:44Z</time>
      </trkpt>
      <trkpt lat="46.043993029743433" lon="12.278519030660391">
        <ele>1321.682939</ele>
        <time>2026-02-24T04:08:15Z</time>
      </trkpt>
      <trkpt lat="46.044048015028238" lon="12.278763027861714">
        <ele>1319.212235</ele>
        <time>2026-02-24T04:08:38Z</time>
      </trkpt>
      <trkpt lat="46.04409696534276" lon="12.279287986457348">
        <ele>1314.3529559999999</ele>
        <time>2026-02-24T04:09:26Z</time>
      </trkpt>
      <trkpt lat="46.044077016413212" lon="12.280019978061318">
        <ele>1307.7600910000001</ele>
        <time>2026-02-24T04:10:31Z</time>
      </trkpt>
      <trkpt lat="46.044210959225893" lon="12.280644010752439">
        <ele>1301.8816750000001</ele>
        <time>2026-02-24T04:11:27Z</time>
      </trkpt>
      <trkpt lat="46.044765003025532" lon="12.281649000942707">
        <ele>1290.904454</ele>
        <time>2026-02-24T04:13:15Z</time>
      </trkpt>
      <trkpt lat="46.044797021895647" lon="12.281990982592106">
        <ele>1288.2267019999999</ele>
        <time>2026-02-24T04:13:45Z</time>
      </trkpt>
      <trkpt lat="46.044614966958761" lon="12.283249022439122">
        <ele>1278.255449</ele>
        <time>2026-02-24T04:15:30Z</time>
      </trkpt>
      <trkpt lat="46.044604992493987" lon="12.283661998808384">
        <ele>1275.0488170000001</ele>
        <time>2026-02-24T04:16:06Z</time>
      </trkpt>
      <trkpt lat="46.044370969757438" lon="12.284441012889147">
        <ele>1262.971728</ele>
        <time>2026-02-24T04:17:22Z</time>
      </trkpt>
      <trkpt lat="46.044392008334398" lon="12.284616027027369">
        <ele>1260.315204</ele>
        <time>2026-02-24T04:17:40Z</time>
      </trkpt>
      <trkpt lat="46.044325958937407" lon="12.284617032855749">
        <ele>1258.8927900000001</ele>
        <time>2026-02-24T04:17:52Z</time>
      </trkpt>
      <trkpt lat="46.044270973652601" lon="12.28457897901535">
        <ele>1257.5782630000001</ele>
        <time>2026-02-24T04:18:04Z</time>
      </trkpt>
      <trkpt lat="46.044168965891004" lon="12.284714011475444">
        <ele>1254.593347</ele>
        <time>2026-02-24T04:18:31Z</time>
      </trkpt>
      <trkpt lat="46.044027982279658" lon="12.28477000258863">
        <ele>1251.441376</ele>
        <time>2026-02-24T04:19:00Z</time>
      </trkpt>
      <trkpt lat="46.043963022530079" lon="12.284872010350227">
        <ele>1249.3701169999999</ele>
        <time>2026-02-24T04:19:20Z</time>
      </trkpt>
      <trkpt lat="46.043891021981835" lon="12.284917021170259">
        <ele>1247.6787629999999</ele>
        <time>2026-02-24T04:19:37Z</time>
      </trkpt>
      <trkpt lat="46.043696980923414" lon="12.28504903614521">
        <ele>1243.055151</ele>
        <time>2026-02-24T04:20:24Z</time>
      </trkpt>
      <trkpt lat="46.043517021462321" lon="12.285257996991277">
        <ele>1238.0730599999999</ele>
        <time>2026-02-24T04:21:17Z</time>
      </trkpt>
      <trkpt lat="46.043396992608905" lon="12.285485984757543">
        <ele>1233.829649</ele>
        <time>2026-02-24T04:22:04Z</time>
      </trkpt>
      <trkpt lat="46.043284004554152" lon="12.28560701943934">
        <ele>1230.8564670000001</ele>
        <time>2026-02-24T04:22:36Z</time>
      </trkpt>
      <trkpt lat="46.043175961822271" lon="12.285775998607278">
        <ele>1227.489302</ele>
        <time>2026-02-24T04:23:11Z</time>
      </trkpt>
      <trkpt lat="46.043144026771188" lon="12.285791002213955">
        <ele>1226.778681</ele>
        <time>2026-02-24T04:23:19Z</time>
      </trkpt>
      <trkpt lat="46.043121982365847" lon="12.285743979737163">
        <ele>1225.947752</ele>
        <time>2026-02-24T04:23:27Z</time>
      </trkpt>
      <trkpt lat="46.043088035658002" lon="12.285284986719489">
        <ele>1219.1815999999999</ele>
        <time>2026-02-24T04:24:31Z</time>
      </trkpt>
      <trkpt lat="46.043048975989223" lon="12.285089017823339">
        <ele>1216.1929459999999</ele>
        <time>2026-02-24T04:24:56Z</time>
      </trkpt>
      <trkpt lat="46.043076971545815" lon="12.284818030893803">
        <ele>1212.1769019999999</ele>
        <time>2026-02-24T04:25:28Z</time>
      </trkpt>
      <trkpt lat="46.043045036494732" lon="12.284531034529209">
        <ele>1207.9161690000001</ele>
        <time>2026-02-24T04:26:00Z</time>
      </trkpt>
      <trkpt lat="46.043068002909422" lon="12.284334981814027">
        <ele>1205.002463</ele>
        <time>2026-02-24T04:26:22Z</time>
      </trkpt>
      <trkpt lat="46.043157018721104" lon="12.283943966031075">
        <ele>1198.970953</ele>
        <time>2026-02-24T04:27:09Z</time>
      </trkpt>
      <trkpt lat="46.043174033984542" lon="12.283656969666481">
        <ele>1194.3387150000001</ele>
        <time>2026-02-24T04:27:43Z</time>
      </trkpt>
      <trkpt lat="46.043312000110745" lon="12.28331197053194">
        <ele>1187.673227</ele>
        <time>2026-02-24T04:28:32Z</time>
      </trkpt>
      <trkpt lat="46.043375032022595" lon="12.28305296972394">
        <ele>1183.07916</ele>
        <time>2026-02-24T04:29:00Z</time>
      </trkpt>
      <trkpt lat="46.043293979018927" lon="12.282884996384382">
        <ele>1179.655027</ele>
        <time>2026-02-24T04:29:23Z</time>
      </trkpt>
      <trkpt lat="46.042861975729465" lon="12.282744012773037">
        <ele>1168.972677</ele>
        <time>2026-02-24T04:30:38Z</time>
      </trkpt>
      <trkpt lat="46.04241999797523" lon="12.282274961471558">
        <ele>1155.733997</ele>
        <time>2026-02-24T04:32:24Z</time>
      </trkpt>
      <trkpt lat="46.041834019124508" lon="12.282066000625491">
        <ele>1143.114077</ele>
        <time>2026-02-24T04:34:11Z</time>
      </trkpt>
      <trkpt lat="46.041641989722848" lon="12.281776992604136">
        <ele>1137.4097710000001</ele>
        <time>2026-02-24T04:34:53Z</time>
      </trkpt>
      <trkpt lat="46.041551968082786" lon="12.281498964875937">
        <ele>1133.0356979999999</ele>
        <time>2026-02-24T04:35:22Z</time>
      </trkpt>
      <trkpt lat="46.041470998898149" lon="12.280735038220882">
        <ele>1122.015126</ele>
        <time>2026-02-24T04:36:31Z</time>
      </trkpt>
      <trkpt lat="46.041377037763596" lon="12.280740989372134">
        <ele>1120.082216</ele>
        <time>2026-02-24T04:36:43Z</time>
      </trkpt>
      <trkpt lat="46.041227001696825" lon="12.280575027689338">
        <ele>1116.2775799999999</ele>
        <time>2026-02-24T04:37:07Z</time>
      </trkpt>
      <trkpt lat="46.040922990068793" lon="12.28040898218751">
        <ele>1110.084582</ele>
        <time>2026-02-24T04:37:49Z</time>
      </trkpt>
      <trkpt lat="46.04044396430254" lon="12.280359026044607">
        <ele>1100.936089</ele>
        <time>2026-02-24T04:38:58Z</time>
      </trkpt>
      <trkpt lat="46.039785984903574" lon="12.280693966895342">
        <ele>1087.641983</ele>
        <time>2026-02-24T04:40:52Z</time>
      </trkpt>
      <trkpt lat="46.039461018517613" lon="12.280754987150431">
        <ele>1081.9755359999999</ele>
        <time>2026-02-24T04:41:39Z</time>
      </trkpt>
      <trkpt lat="46.039111996069551" lon="12.28068801574409">
        <ele>1077.614509</ele>
        <time>2026-02-24T04:42:25Z</time>
      </trkpt>
      <trkpt lat="46.038913009688258" lon="12.280504032969475">
        <ele>1074.6856</ele>
        <time>2026-02-24T04:42:54Z</time>
      </trkpt>
      <trkpt lat="46.038788035511971" lon="12.280242014676332">
        <ele>1071.9521119999999</ele>
        <time>2026-02-24T04:43:20Z</time>
      </trkpt>
      <trkpt lat="46.038802033290267" lon="12.279848987236619">
        <ele>1068.568573</ele>
        <time>2026-02-24T04:43:51Z</time>
      </trkpt>
      <trkpt lat="46.038756016641855" lon="12.279629968106747">
        <ele>1066.6012539999999</ele>
        <time>2026-02-24T04:44:09Z</time>
      </trkpt>
      <trkpt lat="46.038683010265231" lon="12.279503988102078">
        <ele>1065.190128</ele>
        <time>2026-02-24T04:44:22Z</time>
      </trkpt>
      <trkpt lat="46.038458039984107" lon="12.279242975637317">
        <ele>1061.6119940000001</ele>
        <time>2026-02-24T04:44:55Z</time>
      </trkpt>
      <trkpt lat="46.038276990875602" lon="12.279123030602932">
        <ele>1057.431014</ele>
        <time>2026-02-24T04:45:19Z</time>
      </trkpt>
      <trkpt lat="46.037562014535069" lon="12.278995038941503">
        <ele>1039.1012040000001</ele>
        <time>2026-02-24T04:47:07Z</time>
      </trkpt>
      <trkpt lat="46.037560002878308" lon="12.27901297621429">
        <ele>1038.7792710000001</ele>
        <time>2026-02-24T04:47:08Z</time>
      </trkpt>
      <trkpt lat="46.037331009283662" lon="12.279087994247675">
        <ele>1032.804748</ele>
        <time>2026-02-24T04:47:33Z</time>
      </trkpt>
      <trkpt lat="46.037103021517396" lon="12.279164018109441">
        <ele>1026.851071</ele>
        <time>2026-02-24T04:47:57Z</time>
      </trkpt>
      <trkpt lat="46.03687402792275" lon="12.279239036142826">
        <ele>1020.876545</ele>
        <time>2026-02-24T04:48:22Z</time>
      </trkpt>
      <trkpt lat="46.03657697327435" lon="12.279345989227295">
        <ele>1012.466643</ele>
        <time>2026-02-24T04:48:54Z</time>
      </trkpt>
      <trkpt lat="46.036278996616602" lon="12.279453026130795">
        <ele>1002.129012</ele>
        <time>2026-02-24T04:49:26Z</time>
      </trkpt>
      <trkpt lat="46.036032987758517" lon="12.279527960345149">
        <ele>993.66519200000005</ele>
        <time>2026-02-24T04:49:53Z</time>
      </trkpt>
      <trkpt lat="46.036013038828969" lon="12.279705991968513">
        <ele>989.45172700000001</ele>
        <time>2026-02-24T04:50:06Z</time>
      </trkpt>
      <trkpt lat="46.035998035222292" lon="12.27970196865499">
        <ele>988.93824700000005</ele>
        <time>2026-02-24T04:50:08Z</time>
      </trkpt>
      <trkpt lat="46.035700980573893" lon="12.279558973386884">
        <ele>978.39752499999997</ele>
        <time>2026-02-24T04:51:11Z</time>
      </trkpt>
      <trkpt lat="46.03552202694118" lon="12.279262002557516">
        <ele>969.20692299999996</ele>
        <time>2026-02-24T04:52:06Z</time>
      </trkpt>
      <trkpt lat="46.035523032769561" lon="12.279168963432312">
        <ele>967.03350499999999</ele>
        <time>2026-02-24T04:52:19Z</time>
      </trkpt>
      <trkpt lat="46.035366039723158" lon="12.27903401479125">
        <ele>960.87892599999998</ele>
        <time>2026-02-24T04:52:55Z</time>
      </trkpt>
      <trkpt lat="46.035175016149879" lon="12.279150020331144">
        <ele>953.88945200000001</ele>
        <time>2026-02-24T04:53:37Z</time>
      </trkpt>
      <trkpt lat="46.034980975091457" lon="12.279402986168861">
        <ele>944.88920199999995</ele>
        <time>2026-02-24T04:54:27Z</time>
      </trkpt>
      <trkpt lat="46.034910986199975" lon="12.279415978118777">
        <ele>942.46182899999997</ele>
        <time>2026-02-24T04:54:42Z</time>
      </trkpt>
      <trkpt lat="46.034791963174939" lon="12.279326962307096">
        <ele>937.85040500000002</ele>
        <time>2026-02-24T04:55:09Z</time>
      </trkpt>
      <trkpt lat="46.03475097566843" lon="12.279341965913773">
        <ele>936.39555900000005</ele>
        <time>2026-02-24T04:55:17Z</time>
      </trkpt>
      <trkpt lat="46.034504966810346" lon="12.27976399473846">
        <ele>923.23892999999998</ele>
        <time>2026-02-24T04:56:40Z</time>
      </trkpt>
      <trkpt lat="46.034411005675793" lon="12.279876982793212">
        <ele>919.02817700000003</ele>
        <time>2026-02-24T04:57:06Z</time>
      </trkpt>
      <trkpt lat="46.034348979592323" lon="12.279897015541792">
        <ele>916.84305199999994</ele>
        <time>2026-02-24T04:57:20Z</time>
      </trkpt>
      <trkpt lat="46.034288965165615" lon="12.279831971973181">
        <ele>914.26106700000003</ele>
        <time>2026-02-24T04:57:36Z</time>
      </trkpt>
      <trkpt lat="46.034270022064447" lon="12.279738010838628">
        <ele>911.92353500000002</ele>
        <time>2026-02-24T04:57:50Z</time>
      </trkpt>
      <trkpt lat="46.034206990152597" lon="12.279662992805243">
        <ele>909.11262699999997</ele>
        <time>2026-02-24T04:58:08Z</time>
      </trkpt>
      <trkpt lat="46.034156028181314" lon="12.279344983398914">
        <ele>901.32009200000005</ele>
        <time>2026-02-24T04:58:54Z</time>
      </trkpt>
      <trkpt lat="46.034152004867792" lon="12.279000990092754">
        <ele>893.105592</ele>
        <time>2026-02-24T04:59:43Z</time>
      </trkpt>
      <trkpt lat="46.034112023189664" lon="12.278891019523144">
        <ele>890.51556700000003</ele>
        <time>2026-02-24T05:00:00Z</time>
      </trkpt>
      <trkpt lat="46.034107999876142" lon="12.278667977079749">
        <ele>885.998062</ele>
        <time>2026-02-24T05:00:30Z</time>
      </trkpt>
      <trkpt lat="46.034042034298182" lon="12.278426997363567">
        <ele>880.75152800000001</ele>
        <time>2026-02-24T05:01:04Z</time>
      </trkpt>
      <trkpt lat="46.034033987671137" lon="12.278141006827354">
        <ele>874.95500200000004</ele>
        <time>2026-02-24T05:01:41Z</time>
      </trkpt>
      <trkpt lat="46.033940026536584" lon="12.277655024081469">
        <ele>864.73810600000002</ele>
        <time>2026-02-24T05:02:44Z</time>
      </trkpt>
      <trkpt lat="46.033856961876154" lon="12.27740197442472">
        <ele>859.07128999999998</ele>
        <time>2026-02-24T05:03:19Z</time>
      </trkpt>
      <trkpt lat="46.033874982967973" lon="12.277183961123228">
        <ele>854.62541299999998</ele>
        <time>2026-02-24T05:03:45Z</time>
      </trkpt>
      <trkpt lat="46.033861991018057" lon="12.277126964181662">
        <ele>853.41039899999998</ele>
        <time>2026-02-24T05:03:53Z</time>
      </trkpt>
      <trkpt lat="46.03352403268218" lon="12.276604017242789">
        <ele>838.78353300000003</ele>
        <time>2026-02-24T05:05:19Z</time>
      </trkpt>
      <trkpt lat="46.033404003828764" lon="12.27634702809155">
        <ele>831.69453199999998</ele>
        <time>2026-02-24T05:05:57Z</time>
      </trkpt>
      <trkpt lat="46.033210968598723" lon="12.276222975924611">
        <ele>824.72721899999999</ele>
        <time>2026-02-24T05:06:36Z</time>
      </trkpt>
      <trkpt lat="46.032991027459502" lon="12.27583103813231">
        <ele>813.18983000000003</ele>
        <time>2026-02-24T05:07:43Z</time>
      </trkpt>
      <trkpt lat="46.032882984727621" lon="12.275823997333646">
        <ele>809.62556400000005</ele>
        <time>2026-02-24T05:08:04Z</time>
      </trkpt>
      <trkpt lat="46.03266597725451" lon="12.275971015915275">
        <ele>801.71957099999997</ele>
        <time>2026-02-24T05:08:54Z</time>
      </trkpt>
      <trkpt lat="46.032512001693249" lon="12.276294976472855">
        <ele>792.73208799999998</ele>
        <time>2026-02-24T05:09:52Z</time>
      </trkpt>
      <trkpt lat="46.03242801502347" lon="12.27639296092093">
        <ele>789.16822500000001</ele>
        <time>2026-02-24T05:10:15Z</time>
      </trkpt>
      <trkpt lat="46.032320978119969" lon="12.276607034727931">
        <ele>783.13190699999996</ele>
        <time>2026-02-24T05:10:56Z</time>
      </trkpt>
      <trkpt lat="46.031961981207132" lon="12.276828987523913">
        <ele>769.15784699999995</ele>
        <time>2026-02-24T05:12:22Z</time>
      </trkpt>
      <trkpt lat="46.031722007319331" lon="12.276920014992356">
        <ele>760.13091199999997</ele>
        <time>2026-02-24T05:13:17Z</time>
      </trkpt>
      <trkpt lat="46.031601978465915" lon="12.277010036632419">
        <ele>755.20988799999998</ele>
        <time>2026-02-24T05:13:46Z</time>
      </trkpt>
      <trkpt lat="46.031209034845233" lon="12.277421001344919">
        <ele>737.54479100000003</ele>
        <time>2026-02-24T05:15:31Z</time>
      </trkpt>
      <trkpt lat="46.031092023476958" lon="12.27740197442472">
        <ele>733.26217699999995</ele>
        <time>2026-02-24T05:15:56Z</time>
      </trkpt>
      <trkpt lat="46.031092023476958" lon="12.27740197442472">
        <ele>733.26217699999995</ele>
        <time>2026-02-24T05:15:56Z</time>
      </trkpt>
      <trkpt lat="46.030951961874962" lon="12.277237018570304">
        <ele>726.68249600000001</ele>
        <time>2026-02-24T05:16:15Z</time>
      </trkpt>
      <trkpt lat="46.030939975753427" lon="12.27750800549984">
        <ele>719.82509900000002</ele>
        <time>2026-02-24T05:16:35Z</time>
      </trkpt>
      <trkpt lat="46.030941987410188" lon="12.277519991621375">
        <ele>719.51345600000002</ele>
        <time>2026-02-24T05:16:36Z</time>
      </trkpt>
      <trkpt lat="46.030937964096665" lon="12.277522003278136">
        <ele>719.35944700000005</ele>
        <time>2026-02-24T05:16:36Z</time>
      </trkpt>
      <trkpt lat="46.030751969665289" lon="12.277586041018367">
        <ele>713.39423699999998</ele>
        <time>2026-02-24T05:16:56Z</time>
      </trkpt>
      <trkpt lat="46.030674017965794" lon="12.27774697355926">
        <ele>710.06453699999997</ele>
        <time>2026-02-24T05:17:10Z</time>
      </trkpt>
      <trkpt lat="46.030543008819222" lon="12.277957024052739">
        <ele>705.27637100000004</ele>
        <time>2026-02-24T05:17:31Z</time>
      </trkpt>
      <trkpt lat="46.030379980802536" lon="12.277871025726199">
        <ele>701.03573800000004</ele>
        <time>2026-02-24T05:17:48Z</time>
      </trkpt>
      <trkpt lat="46.030293982475996" lon="12.2778329718858">
        <ele>698.83822699999996</ele>
        <time>2026-02-24T05:17:58Z</time>
      </trkpt>
      <trkpt lat="46.030216030776501" lon="12.277950989082456">
        <ele>696.07488899999998</ele>
        <time>2026-02-24T05:18:09Z</time>
      </trkpt>
      <trkpt lat="46.030036993324757" lon="12.278036987408996">
        <ele>691.46528000000001</ele>
        <time>2026-02-24T05:18:29Z</time>
      </trkpt>
      <trkpt lat="46.029955018311739" lon="12.27791897021234">
        <ele>688.63367200000005</ele>
        <time>2026-02-24T05:18:41Z</time>
      </trkpt>
      <trkpt lat="46.030006986111403" lon="12.277693999931216">
        <ele>684.61169099999995</ele>
        <time>2026-02-24T05:18:58Z</time>
      </trkpt>
      <trkpt lat="46.029961975291371" lon="12.277393005788326">
        <ele>679.38957200000004</ele>
        <time>2026-02-24T05:19:19Z</time>
      </trkpt>
      <trkpt lat="46.029775980859995" lon="12.277231989428401">
        <ele>674.08842700000002</ele>
        <time>2026-02-24T05:19:41Z</time>
      </trkpt>
      <trkpt lat="46.029642038047314" lon="12.277308013290167">
        <ele>671.09796900000003</ele>
        <time>2026-02-24T05:19:56Z</time>
      </trkpt>
      <trkpt lat="46.029426036402583" lon="12.277222014963627">
        <ele>668.79386499999998</ele>
        <time>2026-02-24T05:20:18Z</time>
      </trkpt>
      <trkpt lat="46.029325034469366" lon="12.277044989168644">
        <ele>667.15839400000004</ele>
        <time>2026-02-24T05:20:34Z</time>
      </trkpt>
      <trkpt lat="46.02922503836453" lon="12.276867963373661">
        <ele>665.52943000000005</ele>
        <time>2026-02-24T05:20:50Z</time>
      </trkpt>
      <trkpt lat="46.029097968712449" lon="12.276503015309572">
        <ele>662.61503000000005</ele>
        <time>2026-02-24T05:21:19Z</time>
      </trkpt>
      <trkpt lat="46.029030997306108" lon="12.276234040036798">
        <ele>660.574973</ele>
        <time>2026-02-24T05:21:39Z</time>
      </trkpt>
      <trkpt lat="46.028964025899768" lon="12.275965986773372">
        <ele>658.54163100000005</ele>
        <time>2026-02-24T05:21:58Z</time>
      </trkpt>
      <trkpt lat="46.028866963461041" lon="12.275612019002438">
        <ele>655.82494299999996</ele>
        <time>2026-02-24T05:22:25Z</time>
      </trkpt>
      <trkpt lat="46.028659008443356" lon="12.275441028177738">
        <ele>653.36252500000001</ele>
        <time>2026-02-24T05:22:49Z</time>
      </trkpt>
      <trkpt lat="46.028550965711474" lon="12.275527026504278">
        <ele>652.12129700000003</ele>
        <time>2026-02-24T05:23:01Z</time>
      </trkpt>
      <trkpt lat="46.028349967673421" lon="12.275477992370725">
        <ele>650.089924</ele>
        <time>2026-02-24T05:23:22Z</time>
      </trkpt>
      <trkpt lat="46.02828299626708" lon="12.275617970153689">
        <ele>648.91353900000001</ele>
        <time>2026-02-24T05:23:34Z</time>
      </trkpt>
      <trkpt lat="46.028296994045377" lon="12.275692988187075">
        <ele>648.37622899999997</ele>
        <time>2026-02-24T05:23:39Z</time>
      </trkpt>
      <trkpt lat="46.028378969058394" lon="12.276058020070195">
        <ele>645.72208899999998</ele>
        <time>2026-02-24T05:24:06Z</time>
      </trkpt>
      <trkpt lat="46.028491035103798" lon="12.276374017819762">
        <ele>643.26747699999999</ele>
        <time>2026-02-24T05:24:31Z</time>
      </trkpt>
      <trkpt lat="46.028577033430338" lon="12.276711976155639">
        <ele>640.776971</ele>
        <time>2026-02-24T05:24:56Z</time>
      </trkpt>
      <trkpt lat="46.028586002066731" lon="12.276747012510896">
        <ele>640.51875299999995</ele>
        <time>2026-02-24T05:24:59Z</time>
      </trkpt>
      <trkpt lat="46.028594970703125" lon="12.276782970875502">
        <ele>640.25403500000004</ele>
        <time>2026-02-24T05:25:01Z</time>
      </trkpt>
      <trkpt lat="46.02860402315855" lon="12.276818007230759">
        <ele>639.99581699999999</ele>
        <time>2026-02-24T05:25:04Z</time>
      </trkpt>
      <trkpt lat="46.028612991794944" lon="12.276852959766984">
        <ele>639.73759900000005</ele>
        <time>2026-02-24T05:25:07Z</time>
      </trkpt>
      <trkpt lat="46.028621038421988" lon="12.276887996122241">
        <ele>639.48266999999998</ele>
        <time>2026-02-24T05:25:09Z</time>
      </trkpt>
      <trkpt lat="46.028630007058382" lon="12.276924038305879">
        <ele>639.21795299999997</ele>
        <time>2026-02-24T05:25:12Z</time>
      </trkpt>
      <trkpt lat="46.028638975694776" lon="12.276958990842104">
        <ele>638.95973400000003</ele>
        <time>2026-02-24T05:25:14Z</time>
      </trkpt>
      <trkpt lat="46.028632018715143" lon="12.276957985013723">
        <ele>638.88963999999999</ele>
        <time>2026-02-24T05:25:15Z</time>
      </trkpt>
      <trkpt lat="46.028624977916479" lon="12.276957985013723">
        <ele>638.81988799999999</ele>
        <time>2026-02-24T05:25:16Z</time>
      </trkpt>
      <trkpt lat="46.028618020936847" lon="12.276957985013723">
        <ele>638.750135</ele>
        <time>2026-02-24T05:25:17Z</time>
      </trkpt>
      <trkpt lat="46.028609974309802" lon="12.276956979185343">
        <ele>638.670119</ele>
        <time>2026-02-24T05:25:17Z</time>
      </trkpt>
      <trkpt lat="46.02860301733017" lon="12.276956979185343">
        <ele>638.60036700000001</ele>
        <time>2026-02-24T05:25:18Z</time>
      </trkpt>
      <trkpt lat="46.028595976531506" lon="12.276955973356962">
        <ele>638.53027199999997</ele>
        <time>2026-02-24T05:25:19Z</time>
      </trkpt>
      <trkpt lat="46.028589019551873" lon="12.276955973356962">
        <ele>638.46051999999997</ele>
        <time>2026-02-24T05:25:19Z</time>
      </trkpt>
      <trkpt lat="46.028511989861727" lon="12.276862012222409">
        <ele>637.45471599999996</ele>
        <time>2026-02-24T05:25:30Z</time>
      </trkpt>
      <trkpt lat="46.028473014011979" lon="12.276766039431095">
        <ele>636.685205</ele>
        <time>2026-02-24T05:25:37Z</time>
      </trkpt>
      <trkpt lat="46.028311997652054" lon="12.276470996439457">
        <ele>635.35100899999998</ele>
        <time>2026-02-24T05:26:03Z</time>
      </trkpt>
      <trkpt lat="46.028314009308815" lon="12.276463033631444">
        <ele>635.36818700000003</ele>
        <time>2026-02-24T05:26:04Z</time>
      </trkpt>
      <trkpt lat="46.028058025985956" lon="12.276335963979363">
        <ele>636.15607</ele>
        <time>2026-02-24T05:26:33Z</time>
      </trkpt>
      <trkpt lat="46.027769017964602" lon="12.275787033140659">
        <ele>637.54800599999999</ele>
        <time>2026-02-24T05:27:24Z</time>
      </trkpt>
      <trkpt lat="46.027628034353256" lon="12.275385959073901">
        <ele>638.456143</ele>
        <time>2026-02-24T05:28:01Z</time>
      </trkpt>
      <trkpt lat="46.027604984119534" lon="12.275186972692609">
        <ele>638.86372900000003</ele>
        <time>2026-02-24T05:28:18Z</time>
      </trkpt>
      <trkpt lat="46.027688970789313" lon="12.275040959939361">
        <ele>639.24681699999996</ele>
        <time>2026-02-24T05:28:40Z</time>
      </trkpt>
      <trkpt lat="46.02772400714457" lon="12.274787994101644">
        <ele>639.76801699999999</ele>
        <time>2026-02-24T05:29:11Z</time>
      </trkpt>
      <trkpt lat="46.027330979704857" lon="12.274851026013494">
        <ele>641.86121500000002</ele>
        <time>2026-02-24T05:30:22Z</time>
      </trkpt>
      <trkpt lat="46.026936024427414" lon="12.274675006046891">
        <ele>644.89642200000003</ele>
        <time>2026-02-24T05:31:36Z</time>
      </trkpt>
      <trkpt lat="46.026860000565648" lon="12.274754969403148">
        <ele>645.587446</ele>
        <time>2026-02-24T05:31:53Z</time>
      </trkpt>
      <trkpt lat="46.026677023619413" lon="12.27484499104321">
        <ele>647.00697400000001</ele>
        <time>2026-02-24T05:32:27Z</time>
      </trkpt>
      <trkpt lat="46.026464961469173" lon="12.275043977424502">
        <ele>648.86457700000005</ele>
        <time>2026-02-24T05:33:10Z</time>
      </trkpt>
      <trkpt lat="46.026333030313253" lon="12.275207005441189">
        <ele>650.14096199999994</ele>
        <time>2026-02-24T05:33:40Z</time>
      </trkpt>
      <trkpt lat="46.02617603726685" lon="12.275270037353039">
        <ele>651.33736599999997</ele>
        <time>2026-02-24T05:34:07Z</time>
      </trkpt>
      <trkpt lat="46.026127003133297" lon="12.275397023186088">
        <ele>652.07790399999999</ele>
        <time>2026-02-24T05:34:23Z</time>
      </trkpt>
      <trkpt lat="46.025905972346663" lon="12.275649989023805">
        <ele>653.08483699999999</ele>
        <time>2026-02-24T05:35:07Z</time>
      </trkpt>
      <trkpt lat="46.025602966547012" lon="12.275865990668535">
        <ele>651.48050899999998</ele>
        <time>2026-02-24T05:35:56Z</time>
      </trkpt>
      <trkpt lat="46.025345977395773" lon="12.276135971769691">
        <ele>649.97096799999997</ele>
        <time>2026-02-24T05:36:40Z</time>
      </trkpt>
      <trkpt lat="46.024913974106312" lon="12.276767967268825">
        <ele>647.04886499999998</ele>
        <time>2026-02-24T05:38:14Z</time>
      </trkpt>
      <trkpt lat="46.024756981059909" lon="12.277094023302197">
        <ele>645.74164599999995</ele>
        <time>2026-02-24T05:39:00Z</time>
      </trkpt>
      <trkpt lat="46.024508038535714" lon="12.277307007461786">
        <ele>643.14721099999997</ele>
        <time>2026-02-24T05:39:49Z</time>
      </trkpt>
      <trkpt lat="46.024307040497661" lon="12.277427036315203">
        <ele>640.01731700000005</ele>
        <time>2026-02-24T05:40:27Z</time>
      </trkpt>
      <trkpt lat="46.024131020531058" lon="12.277470035478473">
        <ele>637.44944799999996</ele>
        <time>2026-02-24T05:40:58Z</time>
      </trkpt>
      <trkpt lat="46.023729024454951" lon="12.277453020215034">
        <ele>631.66432999999995</ele>
        <time>2026-02-24T05:42:08Z</time>
      </trkpt>
      <trkpt lat="46.023608995601535" lon="12.277386970818043">
        <ele>629.81657900000005</ele>
        <time>2026-02-24T05:42:31Z</time>
      </trkpt>
      <trkpt lat="46.023471029475331" lon="12.276827981695533">
        <ele>623.89081299999998</ele>
        <time>2026-02-24T05:43:42Z</time>
      </trkpt>
      <trkpt lat="46.023256033658981" lon="12.276524975895882">
        <ele>619.56368799999996</ele>
        <time>2026-02-24T05:44:34Z</time>
      </trkpt>
      <trkpt lat="46.02321001701057" lon="12.276375023648143">
        <ele>617.71456599999999</ele>
        <time>2026-02-24T05:44:53Z</time>
      </trkpt>
      <trkpt lat="46.022981023415923" lon="12.276164973154664">
        <ele>613.10375899999997</ele>
        <time>2026-02-24T05:45:41Z</time>
      </trkpt>
      <trkpt lat="46.02269402705133" lon="12.275779992341995">
        <ele>606.44242599999995</ele>
        <time>2026-02-24T05:46:50Z</time>
      </trkpt>
      <trkpt lat="46.022576009854674" lon="12.275732969865203">
        <ele>604.363113</ele>
        <time>2026-02-24T05:47:12Z</time>
      </trkpt>
      <trkpt lat="46.022445000708103" lon="12.275726012885571">
        <ele>602.13671799999997</ele>
        <time>2026-02-24T05:47:37Z</time>
      </trkpt>
      <trkpt lat="46.022188011556864" lon="12.275613024830818">
        <ele>597.57300799999996</ele>
        <time>2026-02-24T05:48:27Z</time>
      </trkpt>
      <trkpt lat="46.022057002410293" lon="12.275589974597096">
        <ele>595.33167100000003</ele>
        <time>2026-02-24T05:48:53Z</time>
      </trkpt>
      <trkpt lat="46.021957006305456" lon="12.275523003190756">
        <ele>593.45849599999997</ele>
        <time>2026-02-24T05:49:14Z</time>
      </trkpt>
      <trkpt lat="46.021681996062398" lon="12.275519985705614">
        <ele>588.78784499999995</ele>
        <time>2026-02-24T05:50:06Z</time>
      </trkpt>
      <trkpt lat="46.021426012739539" lon="12.2754240129143">
        <ele>585.333755</ele>
        <time>2026-02-24T05:50:56Z</time>
      </trkpt>
      <trkpt lat="46.021223003044724" lon="12.275190996006131">
        <ele>582.00187700000004</ele>
        <time>2026-02-24T05:51:44Z</time>
      </trkpt>
      <trkpt lat="46.021056035533547" lon="12.274881033226848">
        <ele>578.50496699999997</ele>
        <time>2026-02-24T05:52:31Z</time>
      </trkpt>
      <trkpt lat="46.020875992253423" lon="12.274687997996807">
        <ele>575.62457800000004</ele>
        <time>2026-02-24T05:53:09Z</time>
      </trkpt>
      <trkpt lat="46.020502997562289" lon="12.274168990552425">
        <ele>568.967398</ele>
        <time>2026-02-24T05:54:33Z</time>
      </trkpt>
      <trkpt lat="46.020444994792342" lon="12.274004034698009">
        <ele>567.31909499999995</ele>
        <time>2026-02-24T05:54:53Z</time>
      </trkpt>
      <trkpt lat="46.019994970411062" lon="12.273458959534764">
        <ele>564.02796899999998</ele>
        <time>2026-02-24T05:56:00Z</time>
      </trkpt>
      <trkpt lat="46.019889023154974" lon="12.273431969806552">
        <ele>563.67983200000003</ele>
        <time>2026-02-24T05:56:12Z</time>
      </trkpt>
      <trkpt lat="46.01968802511692" lon="12.273444961756468">
        <ele>563.02912000000003</ele>
        <time>2026-02-24T05:56:33Z</time>
      </trkpt>
      <trkpt lat="46.019449979066849" lon="12.273366004228592">
        <ele>562.23922000000005</ele>
        <time>2026-02-24T05:56:59Z</time>
      </trkpt>
      <trkpt lat="46.019366998225451" lon="12.273429036140442">
        <ele>561.93578300000001</ele>
        <time>2026-02-24T05:57:09Z</time>
      </trkpt>
      <trkpt lat="46.01934403181076" lon="12.273364998400211">
        <ele>561.77394400000003</ele>
        <time>2026-02-24T05:57:14Z</time>
      </trkpt>
      <trkpt lat="46.019288040697575" lon="12.273208005353808">
        <ele>561.37755700000002</ele>
        <time>2026-02-24T05:57:28Z</time>
      </trkpt>
      <trkpt lat="46.019283011555672" lon="12.272912040352821">
        <ele>560.71259799999996</ele>
        <time>2026-02-24T05:57:50Z</time>
      </trkpt>
      <trkpt lat="46.019245963543653" lon="12.272768039256334">
        <ele>560.36777199999995</ele>
        <time>2026-02-24T05:58:01Z</time>
      </trkpt>
      <trkpt lat="46.019153008237481" lon="12.272414993494749">
        <ele>560.06314699999996</ele>
        <time>2026-02-24T05:58:28Z</time>
      </trkpt>
      <trkpt lat="46.01899903267622" lon="12.272194968536496">
        <ele>562.41934400000002</ele>
        <time>2026-02-24T05:58:52Z</time>
      </trkpt>
      <trkpt lat="46.018847990781069" lon="12.272081980481744">
        <ele>564.267741</ele>
        <time>2026-02-24T05:59:13Z</time>
      </trkpt>
      <trkpt lat="46.018767021596432" lon="12.271868996322155">
        <ele>566.09948099999997</ele>
        <time>2026-02-24T05:59:35Z</time>
      </trkpt>
      <trkpt lat="46.018811026588082" lon="12.271566996350884">
        <ele>568.42699500000003</ele>
        <time>2026-02-24T06:00:04Z</time>
      </trkpt>
      <trkpt lat="46.018925020471215" lon="12.271355018019676">
        <ele>570.44944399999997</ele>
        <time>2026-02-24T06:00:31Z</time>
      </trkpt>
      <trkpt lat="46.019132975488901" lon="12.270837016403675">
        <ele>574.96276799999998</ele>
        <time>2026-02-24T06:01:35Z</time>
      </trkpt>
      <trkpt lat="46.019542012363672" lon="12.270539039745927">
        <ele>580.34798599999999</ele>
        <time>2026-02-24T06:03:02Z</time>
      </trkpt>
      <trkpt lat="46.019736975431442" lon="12.270396966487169">
        <ele>583.99023699999998</ele>
        <time>2026-02-24T06:03:46Z</time>
      </trkpt>
      <trkpt lat="46.019747033715248" lon="12.27031197398901">
        <ele>584.98810100000003</ele>
        <time>2026-02-24T06:03:58Z</time>
      </trkpt>
      <trkpt lat="46.019596997648478" lon="12.269610995426774">
        <ele>593.47841800000003</ele>
        <time>2026-02-24T06:05:33Z</time>
      </trkpt>
      <trkpt lat="46.019680984318256" lon="12.269169017672539">
        <ele>598.78255200000001</ele>
        <time>2026-02-24T06:06:26Z</time>
      </trkpt>
      <trkpt lat="46.019673021510243" lon="12.268839022144675">
        <ele>602.60451399999999</ele>
        <time>2026-02-24T06:07:03Z</time>
      </trkpt>
      <trkpt lat="46.019736975431442" lon="12.268659984692931">
        <ele>604.93488100000002</ele>
        <time>2026-02-24T06:07:25Z</time>
      </trkpt>
      <trkpt lat="46.019759019836783" lon="12.268597958609462">
        <ele>605.74077199999999</ele>
        <time>2026-02-24T06:07:33Z</time>
      </trkpt>
      <trkpt lat="46.019662963226438" lon="12.268497040495276">
        <ele>607.72247700000003</ele>
        <time>2026-02-24T06:07:52Z</time>
      </trkpt>
      <trkpt lat="46.019561961293221" lon="12.268251031637192">
        <ele>610.88791300000003</ele>
        <time>2026-02-24T06:08:24Z</time>
      </trkpt>
      <trkpt lat="46.0195819940418" lon="12.266619997099042">
        <ele>628.33053700000005</ele>
        <time>2026-02-24T06:11:43Z</time>
      </trkpt>
      <trkpt lat="46.019556010141969" lon="12.266286984086037">
        <ele>631.91366500000004</ele>
        <time>2026-02-24T06:12:26Z</time>
      </trkpt>
      <trkpt lat="46.019329028204083" lon="12.265353994444013">
        <ele>637.85171800000001</ele>
        <time>2026-02-24T06:14:12Z</time>
      </trkpt>
      <trkpt lat="46.019254010170698" lon="12.265267996117473">
        <ele>638.11252500000001</ele>
        <time>2026-02-24T06:14:24Z</time>
      </trkpt>
      <trkpt lat="46.019136998802423" lon="12.265363968908787">
        <ele>638.47884699999997</ele>
        <time>2026-02-24T06:14:41Z</time>
      </trkpt>
      <trkpt lat="46.018945975229144" lon="12.265680972486734">
        <ele>639.27167499999996</ele>
        <time>2026-02-24T06:15:14Z</time>
      </trkpt>
      <trkpt lat="46.01865797303617" lon="12.266038041561842">
        <ele>640.30542300000002</ele>
        <time>2026-02-24T06:15:53Z</time>
      </trkpt>
      <trkpt lat="46.018325965851545" lon="12.266525030136108">
        <ele>641.59463800000003</ele>
        <time>2026-02-24T06:16:44Z</time>
      </trkpt>
      <trkpt lat="46.01760596036911" lon="12.266789982095361">
        <ele>628.87433699999997</ele>
        <time>2026-02-24T06:18:16Z</time>
      </trkpt>
      <trkpt lat="46.017420971766114" lon="12.267015958204865">
        <ele>624.319524</ele>
        <time>2026-02-24T06:18:48Z</time>
      </trkpt>
      <trkpt lat="46.01721502840519" lon="12.26730396039784">
        <ele>618.92898700000001</ele>
        <time>2026-02-24T06:19:30Z</time>
      </trkpt>
      <trkpt lat="46.016838010400534" lon="12.267534965649247">
        <ele>611.23676999999998</ele>
        <time>2026-02-24T06:20:40Z</time>
      </trkpt>
      <trkpt lat="46.016714964061975" lon="12.267666980624199">
        <ele>608.35670200000004</ele>
        <time>2026-02-24T06:21:09Z</time>
      </trkpt>
      <trkpt lat="46.016728961840272" lon="12.267735041677952">
        <ele>607.01017200000001</ele>
        <time>2026-02-24T06:21:19Z</time>
      </trkpt>
      <trkpt lat="46.016566017642617" lon="12.267911983653903">
        <ele>600.23506399999997</ele>
        <time>2026-02-24T06:22:00Z</time>
      </trkpt>
      <trkpt lat="46.016662996262312" lon="12.268226975575089">
        <ele>592.29370600000004</ele>
        <time>2026-02-24T06:22:50Z</time>
      </trkpt>
      <trkpt lat="46.016762992367148" lon="12.268358990550041">
        <ele>587.79168900000002</ele>
        <time>2026-02-24T06:23:18Z</time>
      </trkpt>
      <trkpt lat="46.016755029559135" lon="12.268441971391439">
        <ele>585.86049800000001</ele>
        <time>2026-02-24T06:23:31Z</time>
      </trkpt>
      <trkpt lat="46.016598958522081" lon="12.268626037985086">
        <ele>579.16834400000005</ele>
        <time>2026-02-24T06:24:14Z</time>
      </trkpt>
      <trkpt lat="46.016559982672334" lon="12.268888978287578">
        <ele>572.970463</ele>
        <time>2026-02-24T06:24:54Z</time>
      </trkpt>
      <trkpt lat="46.016582027077675" lon="12.269395999610424">
        <ele>561.26308800000004</ele>
        <time>2026-02-24T06:26:06Z</time>
      </trkpt>
      <trkpt lat="46.016655033454299" lon="12.269550981000066">
        <ele>556.94686200000001</ele>
        <time>2026-02-24T06:26:32Z</time>
      </trkpt>
      <trkpt lat="46.016669031232595" lon="12.26983998902142">
        <ele>550.27024300000005</ele>
        <time>2026-02-24T06:27:11Z</time>
      </trkpt>
      <trkpt lat="46.0166360065341" lon="12.269969992339611">
        <ele>547.27925300000004</ele>
        <time>2026-02-24T06:27:30Z</time>
      </trkpt>
      <trkpt lat="46.016569035127759" lon="12.270065965130925">
        <ele>544.65821600000004</ele>
        <time>2026-02-24T06:27:48Z</time>
      </trkpt>
      <trkpt lat="46.016516983509064" lon="12.270371988415718">
        <ele>538.59150999999997</ele>
        <time>2026-02-24T06:28:29Z</time>
      </trkpt>
      <trkpt lat="46.016596024855971" lon="12.27048103697598">
        <ele>535.55746199999999</ele>
        <time>2026-02-24T06:28:49Z</time>
      </trkpt>
      <trkpt lat="46.016699960455298" lon="12.270520012825727">
        <ele>532.57727299999999</ele>
        <time>2026-02-24T06:29:09Z</time>
      </trkpt>
      <trkpt lat="46.016842033714056" lon="12.270506015047431">
        <ele>528.63028599999996</ele>
        <time>2026-02-24T06:29:35Z</time>
      </trkpt>
      <trkpt lat="46.016672970727086" lon="12.270684968680143">
        <ele>522.81257100000005</ele>
        <time>2026-02-24T06:30:12Z</time>
      </trkpt>
      <trkpt lat="46.016509020701051" lon="12.27080600336194">
        <ele>517.70252100000005</ele>
        <time>2026-02-24T06:30:44Z</time>
      </trkpt>
      <trkpt lat="46.016281032934785" lon="12.270859982818365">
        <ele>511.29495700000001</ele>
        <time>2026-02-24T06:31:23Z</time>
      </trkpt>
      <trkpt lat="46.016109958291054" lon="12.270858976989985">
        <ele>506.55295699999999</ele>
        <time>2026-02-24T06:31:50Z</time>
      </trkpt>
      <trkpt lat="46.015807036310434" lon="12.270687986165285">
        <ele>497.52200599999998</ele>
        <time>2026-02-24T06:32:43Z</time>
      </trkpt>
      <trkpt lat="46.015592040494084" lon="12.270470978692174">
        <ele>490.18967600000002</ele>
        <time>2026-02-24T06:33:29Z</time>
      </trkpt>
      <trkpt lat="46.015572007745504" lon="12.270621014758945">
        <ele>487.227417</ele>
        <time>2026-02-24T06:33:48Z</time>
      </trkpt>
      <trkpt lat="46.015620036050677" lon="12.271071961149573">
        <ele>478.37852299999997</ele>
        <time>2026-02-24T06:34:46Z</time>
      </trkpt>
      <trkpt lat="46.015602014958858" lon="12.271139016374946">
        <ele>476.98526900000002</ele>
        <time>2026-02-24T06:34:55Z</time>
      </trkpt>
      <trkpt lat="46.015574019402266" lon="12.271159971132874">
        <ele>476.10360900000001</ele>
        <time>2026-02-24T06:35:01Z</time>
      </trkpt>
      <trkpt lat="46.015524985268712" lon="12.271141028031707">
        <ele>474.68644599999999</ele>
        <time>2026-02-24T06:35:10Z</time>
      </trkpt>
      <trkpt lat="46.015463965013623" lon="12.271060980856419">
        <ele>472.382251</ele>
        <time>2026-02-24T06:35:25Z</time>
      </trkpt>
      <trkpt lat="46.015419960021973" lon="12.271060980856419">
        <ele>471.15346899999997</ele>
        <time>2026-02-24T06:35:34Z</time>
      </trkpt>
      <trkpt lat="46.015319041907787" lon="12.27099702693522">
        <ele>468.07182599999999</ele>
        <time>2026-02-24T06:35:54Z</time>
      </trkpt>
      <trkpt lat="46.015269001945853" lon="12.271270025521517">
        <ele>462.59615500000001</ele>
        <time>2026-02-24T06:36:30Z</time>
      </trkpt>
      <trkpt lat="46.015216028317809" lon="12.271350994706154">
        <ele>460.43777299999999</ele>
        <time>2026-02-24T06:36:44Z</time>
      </trkpt>
      <trkpt lat="46.015122989192605" lon="12.27162198163569">
        <ele>454.57522</ele>
        <time>2026-02-24T06:37:22Z</time>
      </trkpt>
      <trkpt lat="46.015158025547862" lon="12.271779980510473">
        <ele>451.35880100000003</ele>
        <time>2026-02-24T06:37:44Z</time>
      </trkpt>
      <trkpt lat="46.015148973092437" lon="12.271883999928832">
        <ele>449.32619199999999</ele>
        <time>2026-02-24T06:37:57Z</time>
      </trkpt>
      <trkpt lat="46.015018969774246" lon="12.271980978548527">
        <ele>445.61615</ele>
        <time>2026-02-24T06:38:24Z</time>
      </trkpt>
      <trkpt lat="46.014606999233365" lon="12.272134032100439">
        <ele>435.26268499999998</ele>
        <time>2026-02-24T06:39:40Z</time>
      </trkpt>
      <trkpt lat="46.014495017006993" lon="12.272091032937169">
        <ele>432.442115</ele>
        <time>2026-02-24T06:40:00Z</time>
      </trkpt>
      <trkpt lat="46.014322014525533" lon="12.271824991330504">
        <ele>426.28353299999998</ele>
        <time>2026-02-24T06:40:42Z</time>
      </trkpt>
      <trkpt lat="46.01427499204874" lon="12.271804036572576">
        <ele>425.08606099999997</ele>
        <time>2026-02-24T06:40:50Z</time>
      </trkpt>
      <trkpt lat="46.014159992337227" lon="12.271564984694123">
        <ele>420.17245300000002</ele>
        <time>2026-02-24T06:41:21Z</time>
      </trkpt>
      <trkpt lat="46.014022026211023" lon="12.271369015797973">
        <ele>415.45574399999998</ele>
        <time>2026-02-24T06:41:51Z</time>
      </trkpt>
      <trkpt lat="46.013829996809363" lon="12.271288968622684">
        <ele>410.59202800000003</ele>
        <time>2026-02-24T06:42:21Z</time>
      </trkpt>
      <trkpt lat="46.013776017352939" lon="12.271315958350897">
        <ele>409.20104900000001</ele>
        <time>2026-02-24T06:42:30Z</time>
      </trkpt>
      <trkpt lat="46.013755984604359" lon="12.271601026877761">
        <ele>404.365025</ele>
        <time>2026-02-24T06:43:00Z</time>
      </trkpt>
      <trkpt lat="46.013700999319553" lon="12.271920964121819">
        <ele>399.284828</ele>
        <time>2026-02-24T06:43:35Z</time>
      </trkpt>
      <trkpt lat="46.013598991557956" lon="12.272117016837001">
        <ele>395.51039800000001</ele>
        <time>2026-02-24T06:44:00Z</time>
      </trkpt>
      <trkpt lat="46.013128012418747" lon="12.272752029821277">
        <ele>381.19268099999999</ele>
        <time>2026-02-24T06:45:37Z</time>
      </trkpt>
      <trkpt lat="46.013079984113574" lon="12.272755969315767">
        <ele>380.12577599999997</ele>
        <time>2026-02-24T06:45:45Z</time>
      </trkpt>
      <trkpt lat="46.012874962761998" lon="12.272338969632983">
        <ele>372.25234399999999</ele>
        <time>2026-02-24T06:46:40Z</time>
      </trkpt>
      <trkpt lat="46.012824000790715" lon="12.272345004603267">
        <ele>371.11687999999998</ele>
        <time>2026-02-24T06:46:49Z</time>
      </trkpt>
      <trkpt lat="46.012777984142303" lon="12.272409964352846">
        <ele>369.68672600000002</ele>
        <time>2026-02-24T06:46:59Z</time>
      </trkpt>
      <trkpt lat="46.012768009677529" lon="12.272476013749838">
        <ele>368.64567899999997</ele>
        <time>2026-02-24T06:47:07Z</time>
      </trkpt>
      <trkpt lat="46.01281201466918" lon="12.272784970700741">
        <ele>363.68165499999998</ele>
        <time>2026-02-24T06:47:44Z</time>
      </trkpt>
      <trkpt lat="46.012792987748981" lon="12.272815983742476">
        <ele>362.95310999999998</ele>
        <time>2026-02-24T06:47:49Z</time>
      </trkpt>
      <trkpt lat="46.012668013572693" lon="12.272543990984559">
        <ele>357.20591899999999</ele>
        <time>2026-02-24T06:48:26Z</time>
      </trkpt>
      <trkpt lat="46.012602970004082" lon="12.272578021511436">
        <ele>355.45128199999999</ele>
        <time>2026-02-24T06:48:38Z</time>
      </trkpt>
      <trkpt lat="46.012584026902914" lon="12.272576009854674">
        <ele>354.96792499999998</ele>
        <time>2026-02-24T06:48:41Z</time>
      </trkpt>
      <trkpt lat="46.01255401968956" lon="12.27269696071744">
        <ele>352.70399900000001</ele>
        <time>2026-02-24T06:48:55Z</time>
      </trkpt>
      <trkpt lat="46.012513032183051" lon="12.2727179992944">
        <ele>351.59988700000002</ele>
        <time>2026-02-24T06:49:03Z</time>
      </trkpt>
      <trkpt lat="46.012005005031824" lon="12.27248297072947">
        <ele>338.06199700000002</ele>
        <time>2026-02-24T06:50:34Z</time>
      </trkpt>
      <trkpt lat="46.011863015592098" lon="12.272450029850006">
        <ele>334.412533</ele>
        <time>2026-02-24T06:50:59Z</time>
      </trkpt>
      <trkpt lat="46.011677021160722" lon="12.272471990436316">
        <ele>329.67742500000003</ele>
        <time>2026-02-24T06:51:31Z</time>
      </trkpt>
      <trkpt lat="46.011547017842531" lon="12.27222497574985">
        <ele>324.21637500000003</ele>
        <time>2026-02-24T06:52:09Z</time>
      </trkpt>
      <trkpt lat="46.011169999837875" lon="12.271871007978916">
        <ele>313.60759899999999</ele>
        <time>2026-02-24T06:53:25Z</time>
      </trkpt>
      <trkpt lat="46.011000014841557" lon="12.271834965795279">
        <ele>309.83022199999999</ele>
        <time>2026-02-24T06:53:53Z</time>
      </trkpt>
      <trkpt lat="46.01085601374507" lon="12.271761959418654">
        <ele>306.47413799999998</ele>
        <time>2026-02-24T06:54:18Z</time>
      </trkpt>
      <trkpt lat="46.010744031518698" lon="12.27162298746407">
        <ele>303.223592</ele>
        <time>2026-02-24T06:54:42Z</time>
      </trkpt>
      <trkpt lat="46.010411018505692" lon="12.271408997476101">
        <ele>295.20705900000002</ele>
        <time>2026-02-24T06:55:40Z</time>
      </trkpt>
      <trkpt lat="46.010348992422223" lon="12.271336996927857">
        <ele>293.45601699999997</ele>
        <time>2026-02-24T06:55:52Z</time>
      </trkpt>
      <trkpt lat="46.010265005752444" lon="12.271355018019676">
        <ele>291.58907499999998</ele>
        <time>2026-02-24T06:56:05Z</time>
      </trkpt>
      <trkpt lat="46.010354021564126" lon="12.27196698077023">
        <ele>282.04236800000001</ele>
        <time>2026-02-24T06:57:07Z</time>
      </trkpt>
      <trkpt lat="46.010437002405524" lon="12.272268980741501">
        <ele>277.34089299999999</ele>
        <time>2026-02-24T06:57:37Z</time>
      </trkpt>
      <trkpt lat="46.010638000443578" lon="12.272638035938144">
        <ele>271.00224500000002</ele>
        <time>2026-02-24T06:58:19Z</time>
      </trkpt>
      <trkpt lat="46.010618973523378" lon="12.272671982645988">
        <ele>270.41239000000002</ele>
        <time>2026-02-24T06:58:24Z</time>
      </trkpt>
      <trkpt lat="46.01057899184525" lon="12.27267500013113">
        <ele>269.63286900000003</ele>
        <time>2026-02-24T06:58:29Z</time>
      </trkpt>
      <trkpt lat="46.010442031547427" lon="12.272476013749838">
        <ele>265.84553599999998</ele>
        <time>2026-02-24T06:58:57Z</time>
      </trkpt>
      <trkpt lat="46.010373970493674" lon="12.272437959909439">
        <ele>264.42596600000002</ele>
        <time>2026-02-24T06:59:08Z</time>
      </trkpt>
      <trkpt lat="46.010269029065967" lon="12.272296976298094">
        <ele>261.63168200000001</ele>
        <time>2026-02-24T06:59:29Z</time>
      </trkpt>
      <trkpt lat="46.010090997442603" lon="12.271974021568894">
        <ele>256.058402</ele>
        <time>2026-02-24T07:00:12Z</time>
      </trkpt>
      <trkpt lat="46.009987983852625" lon="12.271974021568894">
        <ele>254.053855</ele>
        <time>2026-02-24T07:00:27Z</time>
      </trkpt>
      <trkpt lat="46.009971974417567" lon="12.272014003247023">
        <ele>253.42992799999999</ele>
        <time>2026-02-24T07:00:31Z</time>
      </trkpt>
      <trkpt lat="46.009988989681005" lon="12.272109976038337">
        <ele>252.09080800000001</ele>
        <time>2026-02-24T07:00:42Z</time>
      </trkpt>
      <trkpt lat="46.010036012157798" lon="12.272160016000271">
        <ele>250.95352</ele>
        <time>2026-02-24T07:00:50Z</time>
      </trkpt>
      <trkpt lat="46.010015979409218" lon="12.272206032648683">
        <ele>250.21996799999999</ele>
        <time>2026-02-24T07:00:55Z</time>
      </trkpt>
      <trkpt lat="46.009939033538103" lon="12.27226403541863">
        <ele>248.52874199999999</ele>
        <time>2026-02-24T07:01:08Z</time>
      </trkpt>
      <trkpt lat="46.009898968040943" lon="12.27241599932313">
        <ele>246.331661</ele>
        <time>2026-02-24T07:01:24Z</time>
      </trkpt>
      <trkpt lat="46.009795032441616" lon="12.272575004026294">
        <ele>243.28560300000001</ele>
        <time>2026-02-24T07:01:45Z</time>
      </trkpt>
      <trkpt lat="46.009842976927757" lon="12.272713975980878">
        <ele>240.978568</ele>
        <time>2026-02-24T07:02:01Z</time>
      </trkpt>
      <trkpt lat="46.009836019948125" lon="12.272820007055998">
        <ele>239.396119</ele>
        <time>2026-02-24T07:02:13Z</time>
      </trkpt>
      <trkpt lat="46.00986703298986" lon="12.272943975403905">
        <ele>237.43751399999999</ele>
        <time>2026-02-24T07:02:27Z</time>
      </trkpt>
      <trkpt lat="46.009865021333098" lon="12.273044977337122">
        <ele>235.935869</ele>
        <time>2026-02-24T07:02:39Z</time>
      </trkpt>
      <trkpt lat="46.009894022718072" lon="12.273096023127437">
        <ele>234.95629700000001</ele>
        <time>2026-02-24T07:02:46Z</time>
      </trkpt>
      <trkpt lat="46.009940961375833" lon="12.273352006450295">
        <ele>231.021017</ele>
        <time>2026-02-24T07:03:17Z</time>
      </trkpt>
      <trkpt lat="46.009930986911058" lon="12.273433981463313">
        <ele>229.783714</ele>
        <time>2026-02-24T07:03:27Z</time>
      </trkpt>
      <trkpt lat="46.00991003215313" lon="12.273521991446614">
        <ele>228.40083799999999</ele>
        <time>2026-02-24T07:03:38Z</time>
      </trkpt>
      <trkpt lat="46.009969040751457" lon="12.273790966719389">
        <ele>224.20842999999999</ele>
        <time>2026-02-24T07:04:11Z</time>
      </trkpt>
      <trkpt lat="46.009872984141111" lon="12.274097995832562">
        <ele>219.204768</ele>
        <time>2026-02-24T07:04:47Z</time>
      </trkpt>
      <trkpt lat="46.009892011061311" lon="12.274292036890984">
        <ele>216.293069</ele>
        <time>2026-02-24T07:05:06Z</time>
      </trkpt>
      <trkpt lat="46.009857980534434" lon="12.274399995803833">
        <ele>214.53081299999999</ele>
        <time>2026-02-24T07:05:18Z</time>
      </trkpt>
      <trkpt lat="46.009811963886023" lon="12.274451041594148">
        <ele>213.28849299999999</ele>
        <time>2026-02-24T07:05:26Z</time>
      </trkpt>
      <trkpt lat="46.0095040127635" lon="12.274624966084957">
        <ele>206.20870500000001</ele>
        <time>2026-02-24T07:06:12Z</time>
      </trkpt>
      <trkpt lat="46.009124983102083" lon="12.274605017155409">
        <ele>200.26665399999999</ele>
        <time>2026-02-24T07:07:08Z</time>
      </trkpt>
      <trkpt lat="46.008954998105764" lon="12.274461016058922">
        <ele>197.230931</ele>
        <time>2026-02-24T07:07:36Z</time>
      </trkpt>
      <trkpt lat="46.008761962875724" lon="12.274535028263927">
        <ele>194.15691200000001</ele>
        <time>2026-02-24T07:08:04Z</time>
      </trkpt>
      <trkpt lat="46.00870999507606" lon="12.274583978578448">
        <ele>193.2004</ele>
        <time>2026-02-24T07:08:12Z</time>
      </trkpt>
      <trkpt lat="46.008464992046356" lon="12.274872986599803">
        <ele>188.325615</ele>
        <time>2026-02-24T07:08:53Z</time>
      </trkpt>
      <trkpt lat="46.008398020640016" lon="12.274916991591454">
        <ele>187.19220200000001</ele>
        <time>2026-02-24T07:09:03Z</time>
      </trkpt>
      <trkpt lat="46.008274974301457" lon="12.275149002671242">
        <ele>184.07216099999999</ele>
        <time>2026-02-24T07:09:28Z</time>
      </trkpt>
      <trkpt lat="46.007984960451722" lon="12.275794995948672">
        <ele>177.705951</ele>
        <time>2026-02-24T07:10:34Z</time>
      </trkpt>
      <trkpt lat="46.007968029007316" lon="12.275844030082226">
        <ele>177.592545</ele>
        <time>2026-02-24T07:10:38Z</time>
      </trkpt>
      <trkpt lat="46.007933998480439" lon="12.275818968191743">
        <ele>177.47873799999999</ele>
        <time>2026-02-24T07:10:42Z</time>
      </trkpt>
      <trkpt lat="46.007840037345886" lon="12.27604703977704">
        <ele>176.92976400000001</ele>
        <time>2026-02-24T07:11:01Z</time>
      </trkpt>
      <trkpt lat="46.007749009877443" lon="12.276273015886545">
        <ele>176.38888700000001</ele>
        <time>2026-02-24T07:11:19Z</time>
      </trkpt>
      <trkpt lat="46.007729982957244" lon="12.27630402892828">
        <ele>176.30328499999999</ele>
        <time>2026-02-24T07:11:22Z</time>
      </trkpt>
      <trkpt lat="46.007679020985961" lon="12.276297993957996">
        <ele>176.150746</ele>
        <time>2026-02-24T07:11:27Z</time>
      </trkpt>
      <trkpt lat="46.00748497992754" lon="12.276210989803076">
        <ele>175.54502500000001</ele>
        <time>2026-02-24T07:11:47Z</time>
      </trkpt>
      <trkpt lat="46.007310971617699" lon="12.276142006739974">
        <ele>175.007014</ele>
        <time>2026-02-24T07:12:05Z</time>
      </trkpt>
      <trkpt lat="46.007124977186322" lon="12.276073023676872">
        <ele>174.43443600000001</ele>
        <time>2026-02-24T07:12:24Z</time>
      </trkpt>
      <trkpt lat="46.00694602355361" lon="12.276014015078545">
        <ele>173.88703000000001</ele>
        <time>2026-02-24T07:12:43Z</time>
      </trkpt>
      <trkpt lat="46.006835969164968" lon="12.275825003162026">
        <ele>173.37647699999999</ele>
        <time>2026-02-24T07:13:00Z</time>
      </trkpt>
      <trkpt lat="46.006751982495189" lon="12.275827014818788">
        <ele>173.12603799999999</ele>
        <time>2026-02-24T07:13:08Z</time>
      </trkpt>
      <trkpt lat="46.00675399415195" lon="12.275847969576716">
        <ele>173.08215000000001</ele>
        <time>2026-02-24T07:13:10Z</time>
      </trkpt>
      <trkpt lat="46.006573028862476" lon="12.275949977338314">
        <ele>173.17854700000001</ele>
        <time>2026-02-24T07:13:29Z</time>
      </trkpt>
      <trkpt lat="46.006458029150963" lon="12.27604603394866">
        <ele>173.714189</ele>
        <time>2026-02-24T07:13:43Z</time>
      </trkpt>
      <trkpt lat="46.006267005577683" lon="12.27608903311193">
        <ele>174.49315899999999</ele>
        <time>2026-02-24T07:14:02Z</time>
      </trkpt>
      <trkpt lat="46.006102971732616" lon="12.276153992861509">
        <ele>175.17856599999999</ele>
        <time>2026-02-24T07:14:19Z</time>
      </trkpt>
      <trkpt lat="46.006085034459829" lon="12.276163967326283">
        <ele>175.25630799999999</ele>
        <time>2026-02-24T07:14:21Z</time>
      </trkpt>
      <trkpt lat="46.005936004221439" lon="12.276196992024779">
        <ele>175.863753</ele>
        <time>2026-02-24T07:14:36Z</time>
      </trkpt>
      <trkpt lat="46.005856040865183" lon="12.276202021166682">
        <ele>176.18641</ele>
        <time>2026-02-24T07:14:44Z</time>
      </trkpt>
      <trkpt lat="46.005800971761346" lon="12.276233034208417">
        <ele>176.424406</ele>
        <time>2026-02-24T07:14:50Z</time>
      </trkpt>
      <trkpt lat="46.005810024216771" lon="12.276277039200068">
        <ele>176.55278100000001</ele>
        <time>2026-02-24T07:14:53Z</time>
      </trkpt>
      <trkpt lat="46.005462007597089" lon="12.276513995602727">
        <ele>178.10398900000001</ele>
        <time>2026-02-24T07:15:32Z</time>
      </trkpt>
      <trkpt lat="46.005410961806774" lon="12.276507960632443">
        <ele>178.31017399999999</ele>
        <time>2026-02-24T07:15:37Z</time>
      </trkpt>
      <trkpt lat="46.005255980417132" lon="12.27637100033462">
        <ele>179.04304300000001</ele>
        <time>2026-02-24T07:15:55Z</time>
      </trkpt>
      <trkpt lat="46.005231002345681" lon="12.276422968134284">
        <ele>179.22004200000001</ele>
        <time>2026-02-24T07:16:00Z</time>
      </trkpt>
      <trkpt lat="46.004954986274242" lon="12.276146030053496">
        <ele>180.30049600000001</ele>
        <time>2026-02-24T07:16:39Z</time>
      </trkpt>
      <trkpt lat="46.004820959642529" lon="12.275746967643499">
        <ele>180.906522</ele>
        <time>2026-02-24T07:17:15Z</time>
      </trkpt>
      <trkpt lat="46.004694979637861" lon="12.275458965450525">
        <ele>181.37194600000001</ele>
        <time>2026-02-24T07:17:42Z</time>
      </trkpt>
      <trkpt lat="46.00452097132802" lon="12.275401968508959">
        <ele>181.72324599999999</ele>
        <time>2026-02-24T07:18:01Z</time>
      </trkpt>
      <trkpt lat="46.004478977993131" lon="12.275348994880915">
        <ele>181.83319499999999</ele>
        <time>2026-02-24T07:18:07Z</time>
      </trkpt>
      <trkpt lat="46.004537986591458" lon="12.274942975491285">
        <ele>182.40038899999999</ele>
        <time>2026-02-24T07:18:36Z</time>
      </trkpt>
      <trkpt lat="46.004443019628525" lon="12.27458699606359">
        <ele>182.92188200000001</ele>
        <time>2026-02-24T07:19:03Z</time>
      </trkpt>
      <trkpt lat="46.004448970779777" lon="12.274436037987471">
        <ele>183.12870000000001</ele>
        <time>2026-02-24T07:19:14Z</time>
      </trkpt>
      <trkpt lat="46.00447503849864" lon="12.274209978058934">
        <ele>183.441948</ele>
        <time>2026-02-24T07:19:30Z</time>
      </trkpt>
      <trkpt lat="46.004592971876264" lon="12.273709997534752">
        <ele>183.91347400000001</ele>
        <time>2026-02-24T07:20:07Z</time>
      </trkpt>
      <trkpt lat="46.00460596382618" lon="12.273541018366814">
        <ele>184.04648900000001</ele>
        <time>2026-02-24T07:20:19Z</time>
      </trkpt>
      <trkpt lat="46.004577968269587" lon="12.27349198423326">
        <ele>184.096126</ele>
        <time>2026-02-24T07:20:24Z</time>
      </trkpt>
      <trkpt lat="46.005263021215796" lon="12.270904993638396">
        <ele>186.95487199999999</ele>
        <time>2026-02-24T07:23:49Z</time>
      </trkpt>
      <trkpt lat="46.005290010944009" lon="12.270584972575307">
        <ele>187.47268</ele>
        <time>2026-02-24T07:24:13Z</time>
      </trkpt>
      <trkpt lat="46.005175011232495" lon="12.270578015595675">
        <ele>187.73887199999999</ele>
        <time>2026-02-24T07:24:25Z</time>
      </trkpt>
      <trkpt lat="46.004847027361393" lon="12.270642975345254">
        <ele>188.50457</ele>
        <time>2026-02-24T07:25:01Z</time>
      </trkpt>
      <trkpt lat="46.004720963537693" lon="12.270732996985316">
        <ele>188.82985600000001</ele>
        <time>2026-02-24T07:25:16Z</time>
      </trkpt>
      <trkpt lat="46.004514014348388" lon="12.271028039976954">
        <ele>189.50344999999999</ele>
        <time>2026-02-24T07:25:48Z</time>
      </trkpt>
      <trkpt lat="46.004293989390135" lon="12.271017981693149">
        <ele>190.30798999999999</ele>
        <time>2026-02-24T07:26:12Z</time>
      </trkpt>
      <trkpt lat="46.004161974415183" lon="12.270893007516861">
        <ele>191.10756499999999</ele>
        <time>2026-02-24T07:26:30Z</time>
      </trkpt>
      <trkpt lat="46.004015961661935" lon="12.270606011152267">
        <ele>192.35806099999999</ele>
        <time>2026-02-24T07:26:58Z</time>
      </trkpt>
      <trkpt lat="46.003427971154451" lon="12.269778968766332">
        <ele>196.518125</ele>
        <time>2026-02-24T07:28:37Z</time>
      </trkpt>
      <trkpt lat="46.003249017521739" lon="12.269547963514924">
        <ele>197.73467299999999</ele>
        <time>2026-02-24T07:29:06Z</time>
      </trkpt>
      <trkpt lat="46.003020023927093" lon="12.269071033224463">
        <ele>200.00681299999999</ele>
        <time>2026-02-24T07:29:55Z</time>
      </trkpt>
      <trkpt lat="46.002708971500397" lon="12.268598964437842">
        <ele>202.88354100000001</ele>
        <time>2026-02-24T07:30:49Z</time>
      </trkpt>
      <trkpt lat="46.002507973462343" lon="12.268212977796793">
        <ele>205.01673600000001</ele>
        <time>2026-02-24T07:31:30Z</time>
      </trkpt>
      <trkpt lat="46.002374030649662" lon="12.268005022779107">
        <ele>206.27116599999999</ele>
        <time>2026-02-24T07:31:54Z</time>
      </trkpt>
      <trkpt lat="46.002236986532807" lon="12.267878036946058">
        <ele>207.30845400000001</ele>
        <time>2026-02-24T07:32:14Z</time>
      </trkpt>
      <trkpt lat="46.002096002921462" lon="12.267848029732704">
        <ele>208.21578700000001</ele>
        <time>2026-02-24T07:32:32Z</time>
      </trkpt>
      <trkpt lat="46.00198301486671" lon="12.267878036946058">
        <ele>208.94725700000001</ele>
        <time>2026-02-24T07:32:46Z</time>
      </trkpt>
      <trkpt lat="46.00176801905036" lon="12.267817016690969">
        <ele>210.34052199999999</ele>
        <time>2026-02-24T07:33:13Z</time>
      </trkpt>
      <trkpt lat="46.001719990745187" lon="12.267650971189141">
        <ele>211.083292</ele>
        <time>2026-02-24T07:33:28Z</time>
      </trkpt>
      <trkpt lat="46.001531984657049" lon="12.26739096455276">
        <ele>212.63361599999999</ele>
        <time>2026-02-24T07:34:00Z</time>
      </trkpt>
      <trkpt lat="46.001310031861067" lon="12.267165994271636">
        <ele>214.24818400000001</ele>
        <time>2026-02-24T07:34:33Z</time>
      </trkpt>
      <trkpt lat="46.001000991091132" lon="12.267011012881994">
        <ele>216.19412399999999</ele>
        <time>2026-02-24T07:35:14Z</time>
      </trkpt>
      <trkpt lat="46.000752970576286" lon="12.266814038157463">
        <ele>217.87857399999999</ele>
        <time>2026-02-24T07:35:51Z</time>
      </trkpt>
      <trkpt lat="46.000474020838737" lon="12.266711024567485">
        <ele>219.59143800000001</ele>
        <time>2026-02-24T07:36:26Z</time>
      </trkpt>
      <trkpt lat="46.000285008922219" lon="12.26676600985229">
        <ele>220.73813000000001</ele>
        <time>2026-02-24T07:36:49Z</time>
      </trkpt>
      <trkpt lat="46.000070013105869" lon="12.266887966543436">
        <ele>220.89227500000001</ele>
        <time>2026-02-24T07:37:13Z</time>
      </trkpt>
      <trkpt lat="45.999715961515903" lon="12.266816971823573">
        <ele>220.66014100000001</ele>
        <time>2026-02-24T07:37:50Z</time>
      </trkpt>
      <trkpt lat="45.999689977616072" lon="12.266772966831923">
        <ele>220.63407900000001</ele>
        <time>2026-02-24T07:37:54Z</time>
      </trkpt>
      <trkpt lat="45.999703975394368" lon="12.266699960455298">
        <ele>220.59991199999999</ele>
        <time>2026-02-24T07:37:59Z</time>
      </trkpt>
      <trkpt lat="45.999937998130918" lon="12.266603987663984">
        <ele>220.44188399999999</ele>
        <time>2026-02-24T07:38:25Z</time>
      </trkpt>
      <trkpt lat="46.000095997005701" lon="12.266468033194542">
        <ele>220.32232200000001</ele>
        <time>2026-02-24T07:38:44Z</time>
      </trkpt>
      <trkpt lat="46.000167997553945" lon="12.266330989077687">
        <ele>220.24481599999999</ele>
        <time>2026-02-24T07:38:57Z</time>
      </trkpt>
      <trkpt lat="46.000278973951936" lon="12.265935027971864">
        <ele>220.05215999999999</ele>
        <time>2026-02-24T07:39:28Z</time>
      </trkpt>
      <trkpt lat="46.000400008633733" lon="12.26569295860827">
        <ele>219.91763800000001</ele>
        <time>2026-02-24T07:39:49Z</time>
      </trkpt>
      <trkpt lat="46.000418029725552" lon="12.265544012188911">
        <ele>219.84940599999999</ele>
        <time>2026-02-24T07:40:01Z</time>
      </trkpt>
      <trkpt lat="46.000185012817383" lon="12.265184009447694">
        <ele>220.45402999999999</ele>
        <time>2026-02-24T07:40:36Z</time>
      </trkpt>
      <trkpt lat="46.000104965642095" lon="12.265087030827999">
        <ele>220.64508000000001</ele>
        <time>2026-02-24T07:40:47Z</time>
      </trkpt>
      <trkpt lat="45.999910002574325" lon="12.264930959790945">
        <ele>221.05256199999999</ele>
        <time>2026-02-24T07:41:11Z</time>
      </trkpt>
      <trkpt lat="45.999712022021413" lon="12.26468201726675">
        <ele>221.53278499999999</ele>
        <time>2026-02-24T07:41:40Z</time>
      </trkpt>
      <trkpt lat="45.99959903396666" lon="12.264436008408666">
        <ele>221.90698900000001</ele>
        <time>2026-02-24T07:42:04Z</time>
      </trkpt>
      <trkpt lat="45.999374985694885" lon="12.263760007917881">
        <ele>222.85731200000001</ele>
        <time>2026-02-24T07:43:03Z</time>
      </trkpt>
      <trkpt lat="45.999337015673518" lon="12.263612989336252">
        <ele>223.05632800000001</ele>
        <time>2026-02-24T07:43:15Z</time>
      </trkpt>
      <trkpt lat="45.999327963218093" lon="12.263268996030092">
        <ele>223.644396</ele>
        <time>2026-02-24T07:43:41Z</time>
      </trkpt>
      <trkpt lat="45.999387977644801" lon="12.262817965820432">
        <ele>224.46947800000001</ele>
        <time>2026-02-24T07:44:14Z</time>
      </trkpt>
      <trkpt lat="45.999397030100226" lon="12.262400966137648">
        <ele>225.21910399999999</ele>
        <time>2026-02-24T07:44:45Z</time>
      </trkpt>
      <trkpt lat="45.999093018472195" lon="12.261014012619853">
        <ele>227.83075199999999</ele>
        <time>2026-02-24T07:46:36Z</time>
      </trkpt>
      <trkpt lat="45.999010959640145" lon="12.260747971013188">
        <ele>228.33688599999999</ele>
        <time>2026-02-24T07:46:58Z</time>
      </trkpt>
      <trkpt lat="45.999261997640133" lon="12.260066019371152">
        <ele>229.679203</ele>
        <time>2026-02-24T07:47:59Z</time>
      </trkpt>
      <trkpt lat="45.999549999833107" lon="12.259476017206907">
        <ele>230.93333000000001</ele>
        <time>2026-02-24T07:48:54Z</time>
      </trkpt>
      <trkpt lat="45.999903967604041" lon="12.259144010022283">
        <ele>231.99111300000001</ele>
        <time>2026-02-24T07:49:39Z</time>
      </trkpt>
      <trkpt lat="45.999622000381351" lon="12.258664984256029">
        <ele>232.314043</ele>
        <time>2026-02-24T07:50:24Z</time>
      </trkpt>
      <trkpt lat="45.999539019539952" lon="12.258576974272728">
        <ele>232.32343299999999</ele>
        <time>2026-02-24T07:50:34Z</time>
      </trkpt>
      <trkpt lat="45.999500965699553" lon="12.258545039221644">
        <ele>232.32744400000001</ele>
        <time>2026-02-24T07:50:39Z</time>
      </trkpt>
      <trkpt lat="45.999468024820089" lon="12.258631037548184">
        <ele>232.33366100000001</ele>
        <time>2026-02-24T07:50:46Z</time>
      </trkpt>
      <trkpt lat="45.999124031513929" lon="12.258199034258723">
        <ele>232.37524500000001</ele>
        <time>2026-02-24T07:51:32Z</time>
      </trkpt>
      <trkpt lat="45.998903000727296" lon="12.258390979841352">
        <ele>232.39875799999999</ele>
        <time>2026-02-24T07:51:58Z</time>
      </trkpt>
      <trkpt lat="45.998653974384069" lon="12.258512014523149">
        <ele>232.422698</ele>
        <time>2026-02-24T07:52:25Z</time>
      </trkpt>
      <trkpt lat="45.998312998563051" lon="12.258582003414631">
        <ele>232.50854799999999</ele>
        <time>2026-02-24T07:52:59Z</time>
      </trkpt>
      <trkpt lat="45.998090961948037" lon="12.258831029757857">
        <ele>232.801368</ele>
        <time>2026-02-24T07:53:28Z</time>
      </trkpt>
      <trkpt lat="45.997738000005484" lon="12.258055033162236">
        <ele>233.47180800000001</ele>
        <time>2026-02-24T07:54:34Z</time>
      </trkpt>
      <trkpt lat="45.997633980587125" lon="12.257738029584289">
        <ele>233.7252</ele>
        <time>2026-02-24T07:55:00Z</time>
      </trkpt>
      <trkpt lat="45.99764496088028" lon="12.257524039596319">
        <ele>233.880301</ele>
        <time>2026-02-24T07:55:16Z</time>
      </trkpt>
      <trkpt lat="45.997648984193802" lon="12.25744298659265">
        <ele>233.93899500000001</ele>
        <time>2026-02-24T07:55:22Z</time>
      </trkpt>
      <trkpt lat="45.997693995013833" lon="12.257255986332893">
        <ele>234.08203800000001</ele>
        <time>2026-02-24T07:55:37Z</time>
      </trkpt>
      <trkpt lat="45.997813018038869" lon="12.25703596137464">
        <ele>234.28357099999999</ele>
        <time>2026-02-24T07:55:58Z</time>
      </trkpt>
      <trkpt lat="45.997839001938701" lon="12.256875028833747">
        <ele>234.38157100000001</ele>
        <time>2026-02-24T07:56:10Z</time>
      </trkpt>
      <trkpt lat="45.997813018038869" lon="12.256681993603706">
        <ele>234.48680999999999</ele>
        <time>2026-02-24T07:56:25Z</time>
      </trkpt>
      <trkpt lat="45.997612020000815" lon="12.255995012819767">
        <ele>234.88584900000001</ele>
        <time>2026-02-24T07:57:19Z</time>
      </trkpt>
      <trkpt lat="45.997618976980448" lon="12.255711033940315">
        <ele>235.037971</ele>
        <time>2026-02-24T07:57:39Z</time>
      </trkpt>
      <trkpt lat="45.997682008892298" lon="12.255472987890244">
        <ele>235.17430899999999</ele>
        <time>2026-02-24T07:57:57Z</time>
      </trkpt>
      <trkpt lat="45.997780999168754" lon="12.255461001768708">
        <ele>235.250866</ele>
        <time>2026-02-24T07:58:08Z</time>
      </trkpt>
      <trkpt lat="45.998016027733684" lon="12.255514981225133">
        <ele>235.43424200000001</ele>
        <time>2026-02-24T07:58:32Z</time>
      </trkpt>
      <trkpt lat="45.997726013883948" lon="12.254430027678609">
        <ele>235.26184000000001</ele>
        <time>2026-02-24T07:59:54Z</time>
      </trkpt>
      <trkpt lat="45.997211029753089" lon="12.252877028658986">
        <ele>234.09320700000001</ele>
        <time>2026-02-24T08:01:56Z</time>
      </trkpt>
      <trkpt lat="45.997204994782805" lon="12.252769991755486">
        <ele>234.020307</ele>
        <time>2026-02-24T08:02:04Z</time>
      </trkpt>
      <trkpt lat="45.99712897092104" lon="12.252711988985538">
        <ele>233.931543</ele>
        <time>2026-02-24T08:02:13Z</time>
      </trkpt>
      <trkpt lat="45.996919004246593" lon="12.25239397957921">
        <ele>233.51515000000001</ele>
        <time>2026-02-24T08:02:44Z</time>
      </trkpt>
      <trkpt lat="45.996551960706711" lon="12.25207001902163">
        <ele>232.92700099999999</ele>
        <time>2026-02-24T08:03:29Z</time>
      </trkpt>
      <trkpt lat="45.996580962091684" lon="12.252002963796258">
        <ele>232.85208299999999</ele>
        <time>2026-02-24T08:03:34Z</time>
      </trkpt>
      <trkpt lat="45.996497981250286" lon="12.251759972423315">
        <ele>232.59509700000001</ele>
        <time>2026-02-24T08:03:53Z</time>
      </trkpt>
      <trkpt lat="45.99648498930037" lon="12.251670034602284">
        <ele>232.507856</ele>
        <time>2026-02-24T08:03:59Z</time>
      </trkpt>
      <trkpt lat="45.996516002342105" lon="12.251571966335177">
        <ele>232.40566100000001</ele>
        <time>2026-02-24T08:04:07Z</time>
      </trkpt>
      <trkpt lat="45.996572999283671" lon="12.251438023522496">
        <ele>232.25654299999999</ele>
        <time>2026-02-24T08:04:18Z</time>
      </trkpt>
      <trkpt lat="45.996572999283671" lon="12.251159995794296">
        <ele>231.99270799999999</ele>
        <time>2026-02-24T08:04:37Z</time>
      </trkpt>
      <trkpt lat="45.996564030647278" lon="12.250880962237716">
        <ele>231.72763800000001</ele>
        <time>2026-02-24T08:04:57Z</time>
      </trkpt>
      <trkpt lat="45.996532011777163" lon="12.250625984743237">
        <ele>231.490814</ele>
        <time>2026-02-24T08:05:15Z</time>
      </trkpt>
      <trkpt lat="45.996510973200202" lon="12.250357009470463">
        <ele>231.490814</ele>
        <time>2026-02-24T08:05:33Z</time>
      </trkpt>
      <trkpt lat="45.996672995388508" lon="12.250232035294175">
        <ele>231.490814</ele>
        <time>2026-02-24T08:05:52Z</time>
      </trkpt>
      <trkpt lat="45.996809033676982" lon="12.250408977270126">
        <ele>231.490814</ele>
        <time>2026-02-24T08:06:10Z</time>
      </trkpt>
      <trkpt lat="45.99684800952673" lon="12.250666972249746">
        <ele>231.490814</ele>
        <time>2026-02-24T08:06:28Z</time>
      </trkpt>
      <trkpt lat="45.996869970113039" lon="12.25093100219965">
        <ele>231.490814</ele>
        <time>2026-02-24T08:06:47Z</time>
      </trkpt>
    </trkseg>
  </trk>

</gpx>